[[{"header":{"parameterUnit":"m.s-1","parameterCategory":1,"la1":30.6,"la2":28.766,"lo1":-90.7593,"lo2":-88.6598,"dy":0.0162,"dx":0.0183,"nx":116,"ny":114,"refTime":"2023-04-05T12:00:00:Z","depth":0,"parameterNumber":2,"parameterNumberName":"U-component_of_WINDS"},"data":[0.0,0.0,0.0,0.0,0.0,0.0,0.0,0.0,0.0,0.0,0.0,0.0,0.0,0.0,0.0,0.0,0.0,0.0,0.0,0.0,0.0,0.0,0.0,0.0,0.0,0.0,0.0,0.0,0.0,0.0,0.0,0.0,0.0,0.0,0.0,0.0,0.0,0.0,0.0,0.0,0.0,0.0,0.0,0.0,0.0,0.0,0.0,0.0,0.0,0.0,0.0,0.0,0.0,0.0,0.0,0.0,0.0,0.0,0.0,0.0,0.0,0.0,0.0,0.0,0.0,0.0,0.0,0.0,0.0,0.0,0.0,0.0,0.0,0.0,0.0,0.0,0.0,0.0,0.0,0.0,0.0,0.0,0.0,0.0,0.0,0.0,0.0,0.0,0.0,0.0,0.0,0.0,0.0,0.0,0.0,0.0,0.0,0.0,0.0,0.0,0.0,0.0,0.0,0.0,0.0,0.0,0.0,0.0,0.0,0.0,0.0,0.0,0.0,0.0,0.0,0.0,0.0,0.0,0.0,0.0,0.0,0.0,0.0,0.0,0.0,0.0,0.0,0.0,0.0,0.0,0.0,0.0,0.0,0.0,0.0,0.0,0.0,0.0,0.0,0.0,0.0,0.0,0.0,0.0,0.0,0.0,0.0,0.0,0.0,0.0,0.0,0.0,0.0,0.0,0.0,0.0,0.0,0.0,0.0,0.0,0.0,0.0,0.0,0.0,0.0,0.0,0.0,0.0,0.0,0.0,0.0,0.0,0.0,0.0,0.0,0.0,0.0,0.0,0.0,0.0,0.0,0.0,0.0,0.0,0.0,0.0,0.0,0.0,0.0,0.0,0.0,0.0,0.0,0.0,0.0,0.0,0.0,0.0,0.0,0.0,0.0,0.0,0.0,0.0,0.0,0.0,0.0,0.0,0.0,0.0,0.0,0.0,0.0,0.0,0.0,0.0,0.0,0.0,0.0,0.0,0.0,0.0,0.0,0.0,0.0,0.0,0.0,0.0,0.0,0.0,0.0,0.0,0.0,0.0,0.0,0.0,0.0,0.0,0.0,0.0,0.0,0.0,0.0,0.0,0.0,0.0,0.0,0.0,0.0,0.0,0.0,0.0,0.0,0.0,0.0,0.0,0.0,0.0,0.0,0.0,0.0,0.0,0.0,0.0,0.0,0.0,0.0,0.0,0.0,0.0,0.0,0.0,0.0,0.0,0.0,0.0,0.0,0.0,0.0,0.0,0.0,0.0,0.0,0.0,0.0,0.0,0.0,0.0,0.0,0.0,0.0,0.0,0.0,0.0,0.0,0.0,0.0,0.0,0.0,0.0,0.0,0.0,0.0,0.0,0.0,0.0,0.0,0.0,0.0,0.0,0.0,0.0,0.0,0.0,0.0,0.0,0.0,0.0,0.0,0.0,0.0,0.0,0.0,0.0,0.0,0.0,0.0,0.0,0.0,0.0,0.0,0.0,0.0,0.0,0.0,0.0,0.0,0.0,0.0,0.0,0.0,0.0,0.0,0.0,0.0,0.0,0.0,0.0,0.0,0.0,0.0,0.0,0.0,0.0,0.0,0.0,0.0,0.0,0.0,0.0,0.0,0.0,0.0,0.0,0.0,0.0,0.0,0.0,0.0,0.0,0.0,0.0,0.0,0.0,0.0,0.0,0.0,0.0,0.0,0.0,0.0,0.0,0.0,0.0,0.0,0.0,0.0,0.0,0.0,0.0,0.0,0.0,0.0,0.0,0.0,0.0,0.0,0.0,0.0,0.0,0.0,0.0,0.0,0.0,0.0,0.0,0.0,0.0,0.0,0.0,0.0,0.0,0.0,0.0,0.0,0.0,0.0,0.0,0.0,0.0,0.0,0.0,0.0,0.0,0.0,0.0,0.0,0.0,0.0,0.0,0.0,0.0,0.0,0.0,0.0,0.0,0.0,0.0,0.0,0.0,0.0,0.0,0.0,0.0,0.0,0.0,0.0,0.0,0.0,0.0,0.0,0.0,0.0,0.0,0.0,0.0,0.0,0.0,0.0,0.0,0.0,0.0,0.0,0.0,0.0,0.0,0.0,0.0,0.0,0.0,0.0,0.0,0.0,0.0,0.0,0.0,0.0,0.0,0.0,0.0,0.0,0.0,0.0,0.0,0.0,0.0,0.0,0.0,0.0,0.0,0.0,0.0,0.0,0.0,0.0,0.0,0.0,0.0,0.0,0.0,0.0,0.0,0.0,0.0,0.0,0.0,0.0,0.0,0.0,0.0,0.0,0.0,0.0,0.0,0.0,0.0,0.0,0.0,0.0,0.0,0.0,0.0,0.0,0.0,0.0,0.0,0.0,0.0,0.0,0.0,0.0,0.0,0.0,0.0,0.0,0.0,0.0,0.0,0.0,0.0,0.0,0.0,0.0,0.0,0.0,0.0,0.0,0.0,0.0,0.0,0.0,0.0,0.0,0.0,0.0,0.0,0.0,0.0,0.0,0.0,0.0,0.0,0.0,0.0,0.0,0.0,0.0,0.0,0.0,0.0,0.0,0.0,0.0,0.0,0.0,0.0,0.0,0.0,0.0,0.0,0.0,0.0,0.0,0.0,0.0,0.0,0.0,0.0,0.0,0.0,0.0,0.0,0.0,0.0,0.0,0.0,0.0,0.0,0.0,0.0,0.0,0.0,0.0,0.0,0.0,0.0,0.0,0.0,0.0,0.0,0.0,0.0,0.0,0.0,0.0,0.0,0.0,0.0,0.0,0.0,0.0,0.0,0.0,0.0,0.0,0.0,0.0,0.0,0.0,0.0,0.0,0.0,0.0,0.0,0.0,0.0,0.0,0.0,0.0,0.0,0.0,0.0,0.0,0.0,0.0,0.0,0.0,0.0,0.0,0.0,0.0,0.0,0.0,0.0,0.0,0.0,0.0,0.0,0.0,0.0,0.0,0.0,0.0,0.0,0.0,0.0,0.0,0.0,0.0,0.0,0.0,0.0,0.0,0.0,0.0,0.0,0.0,0.0,0.0,0.0,0.0,0.0,0.0,0.0,0.0,0.0,0.0,0.0,0.0,0.0,0.0,0.0,0.0,0.0,0.0,0.0,0.0,0.0,0.0,0.0,0.0,0.0,0.0,0.0,0.0,0.0,0.0,0.0,0.0,0.0,0.0,0.0,0.0,0.0,0.0,0.0,0.0,0.0,0.0,0.0,0.0,0.0,0.0,0.0,0.0,0.0,0.0,0.0,0.0,0.0,0.0,0.0,0.0,0.0,0.0,0.0,0.0,0.0,0.0,0.0,0.0,0.0,0.0,0.0,0.0,0.0,0.0,0.0,0.0,0.0,0.0,0.0,0.0,0.0,0.0,0.0,0.0,0.0,0.0,0.0,0.0,0.0,0.0,0.0,0.0,0.0,0.0,0.0,0.0,0.0,0.0,0.0,0.0,0.0,0.0,0.0,0.0,0.0,0.0,0.0,0.0,0.0,0.0,0.0,0.0,0.0,0.0,0.0,0.0,0.0,0.0,0.0,0.0,0.0,0.0,0.0,0.0,0.0,0.0,0.0,0.0,0.0,0.0,0.0,0.0,0.0,0.0,0.0,0.0,0.0,0.0,0.0,0.0,0.0,0.0,0.0,0.0,0.0,0.0,0.0,0.0,0.0,0.0,0.0,0.0,0.0,0.0,0.0,0.0,0.0,0.0,0.0,0.0,0.0,0.0,0.0,0.0,0.0,0.0,0.0,0.0,0.0,0.0,0.0,0.0,0.0,0.0,0.0,0.0,0.0,0.0,0.0,0.0,0.0,0.0,0.0,0.0,0.0,0.0,0.0,0.0,0.0,0.0,0.0,0.0,0.0,0.0,0.0,0.0,0.0,0.0,0.0,0.0,0.0,0.0,0.0,0.0,0.0,0.0,0.0,0.0,0.0,0.0,0.0,0.0,0.0,0.0,0.0,0.0,0.0,0.0,0.0,0.0,0.0,0.0,0.0,0.0,0.0,0.0,0.0,0.0,0.0,0.0,0.0,0.0,0.0,0.0,0.0,0.0,0.0,0.0,0.0,0.0,0.0,0.0,0.0,0.0,0.0,0.0,0.0,0.0,0.0,0.0,0.0,0.0,0.0,0.0,0.0,0.0,0.0,0.0,0.0,0.0,0.0,0.0,0.0,0.0,0.0,0.0,0.0,0.0,0.0,0.0,0.0,0.0,0.0,0.0,0.0,0.0,0.0,0.0,0.0,0.0,0.0,0.0,0.0,0.0,0.0,0.0,0.0,0.0,0.0,0.0,0.0,0.0,0.0,0.0,0.0,0.0,0.0,0.0,0.0,0.0,0.0,0.0,0.0,0.0,0.0,0.0,0.0,0.0,0.0,0.0,0.0,0.0,0.0,0.0,0.0,0.0,0.0,0.0,0.0,0.0,0.0,0.0,0.0,0.0,0.0,0.0,0.0,0.0,0.0,0.0,0.0,0.0,0.0,0.0,0.0,0.0,0.0,0.0,0.0,0.0,0.0,0.0,0.0,0.0,0.0,0.0,0.0,0.0,0.0,0.0,0.0,0.0,0.0,0.0,0.0,0.0,0.0,0.0,0.0,0.0,0.0,0.0,0.0,0.0,0.0,0.0,0.0,0.0,0.0,0.0,0.0,0.0,0.0,0.0,0.0,0.0,0.0,0.0,0.0,0.0,0.0,0.0,0.0,0.0,0.0,0.0,0.0,0.0,0.0,0.0,0.0,0.0,0.0,0.0,0.0,0.0,0.0,0.0,0.0,0.0,0.0,0.0,0.0,0.0,0.0,0.0,0.0,0.0,0.0,0.0,0.0,0.0,0.0,0.0,0.0,0.0,0.0,0.0,0.0,0.0,0.0,0.0,0.0,0.0,0.0,0.0,0.0,0.0,0.0,0.0,0.0,0.0,0.0,0.0,0.0,0.0,0.0,0.0,0.0,0.0,0.0,0.0,0.0,0.0,0.0,0.0,0.0,0.0,0.0,0.0,0.0,0.0,0.0,0.0,0.0,0.0,0.0,0.0,0.0,0.0,0.0,0.0,0.0,0.0,0.0,0.0,0.0,0.0,0.0,0.0,0.0,0.0,0.0,0.0,0.0,0.0,0.0,0.0,0.0,0.0,0.0,0.0,0.0,0.0,0.0,0.0,0.0,0.0,0.0,0.0,0.0,0.0,0.0,0.0,0.0,0.0,0.0,0.0,0.0,0.0,0.0,0.0,0.0,0.0,0.0,0.0,0.0,0.0,0.0,0.0,0.0,0.0,0.0,0.0,0.0,0.0,0.0,0.0,0.0,0.0,0.0,0.0,0.0,0.0,0.0,0.0,0.0,0.0,0.0,0.0,0.0,0.0,0.0,0.0,0.0,0.0,0.0,0.0,0.0,0.0,0.0,0.0,0.0,0.0,0.0,0.0,0.0,0.0,0.0,0.0,0.0,0.0,0.0,0.0,0.0,0.0,0.0,0.0,0.0,0.0,0.0,0.0,0.0,0.0,0.0,0.0,0.0,0.0,0.0,0.0,0.0,0.0,0.0,0.0,0.0,0.0,0.0,0.0,0.0,0.0,0.0,0.0,0.0,0.0,0.0,0.0,0.0,0.0,0.0,0.0,0.0,0.0,0.0,0.0,0.0,0.0,0.0,0.0,0.0,0.0,0.0,0.0,0.0,0.0,0.0,0.0,0.0,0.0,0.0,0.0,0.0,0.0,0.0,0.0,0.0,0.0,0.0,0.0,0.0,0.0,0.0,0.0,0.0,0.0,0.0,0.0,0.0,0.0,0.0,0.0,0.0,0.0,0.0,0.0,0.0,0.0,0.0,0.0,0.0,0.0,0.0,0.0,0.0,0.0,0.0,0.0,0.0,0.0,0.0,0.0,0.0,0.0,0.0,0.0,0.0,0.0,0.0,0.0,0.0,0.0,0.0,0.0,0.0,0.0,0.0,0.0,0.0,0.0,0.0,0.0,0.0,0.0,0.0,0.0,0.0,0.0,0.0,0.0,0.0,0.0,0.0,0.0,0.0,0.0,0.0,0.0,0.0,0.0,0.0,0.0,0.0,0.0,0.0,0.0,0.0,0.0,0.0,0.0,0.0,0.0,0.0,0.0,0.0,0.0,0.0,0.0,0.0,3.8142,0.0,0.0,0.0,0.0,0.0,0.0,0.0,0.0,0.0,0.0,0.0,0.0,0.0,0.0,0.0,0.0,0.0,0.0,0.0,0.0,0.0,0.0,0.0,0.0,0.0,0.0,0.0,0.0,0.0,0.0,0.0,0.0,0.0,0.0,0.0,0.0,0.0,0.0,0.0,3.5996,3.7384,3.9579,3.8385,3.7148,3.5898,0.0,0.0,0.0,0.0,0.0,0.0,0.0,0.0,0.0,0.0,0.0,0.0,0.0,0.0,0.0,0.0,0.0,0.0,0.0,0.0,0.0,0.0,0.0,0.0,0.0,0.0,0.0,0.0,0.0,0.0,0.0,0.0,0.0,0.0,0.0,0.0,0.0,0.0,0.0,0.0,0.0,0.0,0.0,0.0,0.0,0.0,0.0,0.0,0.0,0.0,0.0,0.0,0.0,0.0,0.0,0.0,0.0,0.0,0.0,0.0,0.0,0.0,0.0,0.0,0.0,0.0,0.0,0.0,0.0,0.0,0.0,3.9281,0.0,0.0,0.0,0.0,0.0,0.0,0.0,0.0,0.0,0.0,0.0,0.0,0.0,0.0,0.0,0.0,0.0,0.0,0.0,0.0,0.0,0.0,0.0,0.0,3.4714,3.4773,3.5223,0.0,0.0,0.0,0.0,0.0,0.0,0.0,0.0,3.441,3.4578,3.5828,3.7172,3.9006,4.1228,4.0481,3.9277,3.7676,3.6094,0.0,0.0,0.0,0.0,0.0,0.0,0.0,0.0,0.0,0.0,0.0,0.0,0.0,0.0,0.0,0.0,0.0,0.0,0.0,0.0,0.0,0.0,0.0,0.0,0.0,0.0,0.0,0.0,0.0,0.0,0.0,0.0,0.0,0.0,0.0,0.0,0.0,0.0,0.0,0.0,0.0,0.0,0.0,0.0,0.0,0.0,0.0,0.0,0.0,0.0,0.0,0.0,0.0,0.0,0.0,0.0,0.0,0.0,0.0,0.0,0.0,0.0,0.0,0.0,4.003,4.0738,4.0596,4.1682,4.3599,4.2082,4.2107,4.2958,0.0,0.0,0.0,0.0,0.0,0.0,0.0,0.0,0.0,0.0,0.0,0.0,0.0,0.0,0.0,0.0,0.0,0.0,0.0,0.0,0.0,0.0,3.4486,3.4793,3.5035,3.532,3.5493,0.0,0.0,0.0,0.0,0.0,0.0,3.4372,3.3526,3.4263,3.6729,3.9998,4.1801,4.2201,4.1397,4.0508,3.9512,3.8535,3.8086,3.7988,0.0,0.0,0.0,0.0,0.0,0.0,0.0,0.0,0.0,0.0,0.0,0.0,0.0,0.0,0.0,0.0,0.0,0.0,0.0,0.0,0.0,0.0,0.0,0.0,0.0,0.0,0.0,0.0,0.0,0.0,0.0,0.0,0.0,0.0,0.0,0.0,0.0,0.0,0.0,0.0,0.0,3.7637,3.6875,0.0,0.0,0.0,0.0,0.0,0.0,0.0,0.0,0.0,0.0,0.0,0.0,0.0,0.0,3.8418,4.0664,4.1836,4.1914,4.4042,4.5134,4.5243,4.509,4.5234,4.5526,4.5295,0.0,4.3069,4.2687,0.0,0.0,0.0,0.0,0.0,0.0,0.0,0.0,0.0,0.0,0.0,0.0,0.0,0.0,0.0,0.0,0.0,0.0,0.0,0.0,0.0,3.5468,3.6577,3.7182,3.7901,3.8123,3.7661,0.0,0.0,0.0,0.0,3.3468,3.3468,3.4084,3.6228,3.9927,4.2046,4.335,4.3844,4.3507,4.2871,4.2012,4.1641,4.0391,3.8516,3.7266,0.0,0.0,0.0,0.0,0.0,0.0,0.0,0.0,0.0,0.0,0.0,0.0,0.0,0.0,0.0,0.0,0.0,0.0,0.0,0.0,0.0,0.0,0.0,0.0,0.0,0.0,0.0,0.0,0.0,0.0,0.0,0.0,0.0,0.0,0.0,0.0,0.0,0.0,0.0,3.5195,3.5547,3.5156,3.4043,3.2754,0.0,0.0,0.0,0.0,0.0,0.0,0.0,0.0,0.0,3.7904,3.8364,3.9639,4.1927,4.2578,4.3407,4.4378,4.5002,4.5581,4.6094,4.5961,4.5938,4.6005,4.5916,4.5428,4.4601,4.3689,4.2475,4.1112,0.0,0.0,0.0,0.0,0.0,3.2017,0.0,0.0,0.0,0.0,0.0,0.0,0.0,0.0,0.0,0.0,0.0,0.0,3.4974,3.6936,3.8535,3.9256,4.0024,4.0046,3.9027,3.7546,0.0,0.0,3.316,3.2583,3.2583,3.5021,3.8246,4.2257,4.3216,4.4023,4.4668,4.4238,4.3672,4.3066,4.3066,4.1758,3.9512,3.8652,3.8047,3.7519,0.0,0.0,0.0,0.0,0.0,0.0,0.0,0.0,0.0,0.0,0.0,0.0,0.0,0.0,0.0,0.0,0.0,0.0,0.0,0.0,0.0,0.0,0.0,0.0,0.0,0.0,0.0,0.0,0.0,0.0,0.0,0.0,0.0,0.0,0.0,0.0,0.0,3.4824,3.5156,3.4473,3.4258,3.3398,0.0,0.0,0.0,0.0,0.0,0.0,3.6555,3.6615,3.7747,4.0215,4.0315,4.172,4.4607,4.3782,4.4102,4.5589,4.4985,4.5082,4.5757,4.586,4.5941,4.6035,4.5949,4.5898,4.5806,4.4555,4.3848,4.3408,4.2155,4.1381,4.0847,3.9852,3.6661,3.2513,0.0,0.0,0.0,0.0,0.0,0.0,0.0,0.0,0.0,0.0,0.0,3.6766,3.7036,3.8802,4.0098,4.0396,4.0469,3.9796,3.8161,3.7219,3.5949,3.4257,3.2622,3.1756,3.1756,3.5974,3.9468,4.211,4.3173,4.3711,4.373,4.2148,4.1367,4.1328,4.1328,4.1641,4.2168,4.1348,4.0059,3.8301,3.5781,0.0,0.0,0.0,0.0,0.0,0.0,0.0,0.0,0.0,0.0,0.0,0.0,0.0,0.0,0.0,0.0,0.0,0.0,0.0,0.0,0.0,0.0,0.0,0.0,0.0,0.0,0.0,0.0,0.0,0.0,0.0,0.0,0.0,0.0,0.0,0.0,0.0,0.0,3.7402,3.8535,0.0,0.0,0.0,0.0,3.5801,3.5833,3.6546,3.82,3.8283,3.939,4.1809,4.1944,4.2787,4.4487,4.364,4.3728,4.4751,4.4729,4.4735,4.4807,4.5548,4.5913,4.5908,4.5901,4.5893,4.5884,4.5816,4.4841,4.3404,4.3447,4.2195,4.0358,4.0466,3.672,3.1553,0.0,0.0,0.0,0.0,0.0,0.0,0.0,0.0,0.0,3.3807,3.5701,3.7084,3.7192,4.0082,4.2288,4.2893,4.3451,4.3278,4.2124,3.9219,3.6796,3.5103,3.2891,3.3262,3.6575,3.9296,4.1993,4.4677,4.4491,4.418,4.3672,4.2519,4.1699,4.1191,4.1191,4.1367,4.1601,4.1328,4.0527,3.9316,3.7812,3.5879,0.0,0.0,0.0,0.0,0.0,0.0,0.0,0.0,0.0,0.0,0.0,0.0,0.0,0.0,0.0,0.0,0.0,0.0,0.0,0.0,0.0,0.0,0.0,0.0,0.0,0.0,0.0,0.0,0.0,0.0,0.0,0.0,0.0,0.0,0.0,0.0,0.0,3.6719,3.8008,0.0,3.6191,3.6949,3.7531,3.7531,3.848,3.9301,3.9912,3.9932,4.0324,4.1139,4.1178,4.1697,4.2739,4.1893,4.2467,4.4443,4.3929,4.4278,4.5413,4.5692,4.5863,4.5902,4.5902,4.5902,4.5896,4.5891,4.5546,4.4992,4.4911,4.4353,4.3376,4.1681,3.7658,3.2975,0.0,0.0,0.0,0.0,0.0,0.0,0.0,0.0,3.4044,3.4718,3.6714,3.8294,3.8967,4.1971,4.4162,4.4682,4.5259,4.4855,4.3124,3.9873,3.6988,3.4718,3.3295,3.4956,4.0102,4.1397,4.3175,4.5552,4.4776,4.3984,4.3203,4.2383,4.1719,4.1191,4.1191,4.1191,4.1191,4.1191,4.0879,4.0254,3.9394,3.748,3.5039,0.0,0.0,0.0,0.0,0.0,0.0,0.0,0.0,0.0,0.0,0.0,0.0,0.0,0.0,0.0,0.0,0.0,0.0,0.0,0.0,0.0,0.0,0.0,0.0,0.0,0.0,0.0,0.0,0.0,0.0,0.0,0.0,0.0,0.0,0.0,3.7949,3.6211,3.8066,3.8789,3.7051,3.8371,3.9325,3.9281,4.023,4.0788,4.077,4.0773,4.0735,4.0639,4.0581,4.0895,4.1622,4.0669,4.1188,4.3159,4.3004,4.3558,4.4728,4.5304,4.5592,4.563,4.5514,4.5454,4.5475,4.5628,4.5661,4.5617,4.5553,4.5115,4.4146,4.1324,3.6977,3.1504,0.0,0.0,0.0,0.0,0.0,0.0,0.0,3.3807,3.4518,3.6547,3.8493,4.0466,4.2467,4.444,4.5586,4.5586,4.5586,4.4162,4.0758,3.895,3.6507,3.3122,3.391,3.6757,4.1739,4.2021,4.2903,4.4487,4.3883,4.3144,4.2285,4.1543,4.1191,4.1191,4.1191,4.1191,4.1191,4.1191,4.1191,4.1133,4.0273,3.9394,3.8223,0.0,0.0,0.0,0.0,0.0,0.0,0.0,0.0,0.0,0.0,0.0,0.0,0.0,0.0,0.0,0.0,0.0,0.0,0.0,0.0,0.0,0.0,0.0,0.0,0.0,0.0,0.0,0.0,0.0,0.0,0.0,0.0,0.0,3.6009,3.7443,3.8047,3.6367,3.9141,4.0547,3.8848,4.0195,4.1148,4.1012,4.0885,4.0773,4.0696,4.0696,4.0639,4.0489,4.031,4.0535,4.1264,4.0176,4.0056,4.091,4.2036,4.26,4.2676,4.4334,4.5074,4.5074,4.4732,4.458,4.4612,4.5073,4.517,4.509,4.5281,4.4265,4.2338,3.9279,3.4271,2.6603,0.0,0.0,0.0,0.0,0.0,0.0,0.0,3.3807,3.4518,3.6547,3.8493,4.0466,4.2467,4.444,4.5586,4.5586,4.5586,4.4412,4.1623,3.9277,3.7046,3.4891,3.795,4.0662,4.2701,4.3968,4.4564,4.4487,4.3794,4.3055,4.2285,4.1543,4.1191,4.1191,4.1191,4.1191,4.1191,4.1191,4.1191,4.1172,4.0937,3.9941,3.8496,0.0,0.0,0.0,0.0,0.0,0.0,0.0,0.0,0.0,0.0,0.0,0.0,0.0,0.0,0.0,0.0,0.0,0.0,0.0,0.0,0.0,0.0,0.0,0.0,0.0,0.0,0.0,0.0,0.0,0.0,0.0,0.0,3.8056,3.7711,3.9217,4.0195,3.9824,4.0625,4.1016,4.0527,4.082,4.1032,4.0992,4.0893,4.0773,4.0696,4.0696,4.0639,4.0489,4.0463,4.0421,4.0425,4.0117,4.0276,4.091,4.1808,4.2536,4.3123,4.424,4.4751,4.4732,4.4631,4.458,4.458,4.4282,4.4119,4.4102,4.4253,4.359,4.194,3.6859,2.7175,1.5418,0.0,0.0,0.0,0.0,0.0,0.0,0.0,3.3807,3.4818,3.7638,3.8995,4.0775,4.3599,4.4917,4.5586,4.5586,4.4951,4.347,4.0912,3.8373,3.7315,3.8104,4.0489,4.2547,4.4105,4.5086,4.5064,4.391,4.3506,4.2761,4.1654,4.1287,4.1152,4.1191,4.1191,4.1191,4.1191,4.1191,4.1191,4.1191,4.1191,4.0586,3.9609,3.8887,3.7969,3.6973,3.6191,3.5893,3.5709,3.4533,0.0,0.0,0.0,0.0,0.0,0.0,0.0,0.0,0.0,0.0,0.0,0.0,0.0,0.0,0.0,0.0,0.0,0.0,0.0,0.0,0.0,0.0,0.0,0.0,3.8022,3.92,3.933,4.0313,4.1035,4.1113,4.1172,4.1191,4.1191,4.1133,4.1055,4.0996,4.0887,4.0759,4.07,4.066,4.0581,4.0489,4.0248,4.0062,3.9901,3.9637,3.9665,3.997,4.0952,4.1792,4.2626,4.3222,4.3706,0.0,4.3601,4.3247,4.2931,4.2736,4.2467,0.0,0.0,0.0,0.0,0.0,2.156,0.9238,0.0,0.0,0.0,0.0,0.0,0.0,0.0,3.3807,3.5229,3.9169,3.9712,4.1218,4.5166,4.5586,4.5586,4.5586,4.4066,4.2027,3.9469,3.7353,3.7892,4.1643,4.2085,4.3297,4.5547,4.549,4.4682,4.3104,4.3082,4.2298,4.0807,4.0938,4.1074,4.1191,4.1191,4.1191,4.1191,4.1191,4.1191,4.1191,4.1191,4.1191,4.1035,3.9473,3.8887,3.8672,3.707,3.6504,3.6444,3.6044,0.0,0.0,0.0,0.0,0.0,0.0,0.0,0.0,0.0,0.0,0.0,0.0,0.0,0.0,0.0,0.0,0.0,0.0,0.0,0.0,0.0,0.0,0.0,0.0,3.9681,4.0816,4.0947,4.112,4.1187,4.1015,4.1113,4.1172,4.1191,4.1191,4.1132,4.1009,4.0883,4.0791,4.071,0.0,0.0,0.0,0.0,3.9622,3.9534,3.898,3.864,3.8627,3.966,4.0595,4.1382,4.1625,4.2137,4.285,4.1961,4.1076,4.0348,4.063,4.0127,3.9316,4.0697,3.8475,3.3713,2.7024,1.7056,0.0,0.0,0.0,0.0,0.0,0.0,0.0,0.0,3.3807,3.5229,3.9169,3.9712,4.1218,4.5166,4.5586,4.5586,4.5586,4.4066,4.2027,3.9469,4.0104,4.095,4.1758,4.3778,4.5086,4.5586,4.4913,4.4066,4.3104,4.2508,4.1728,4.0795,4.0944,4.1074,4.1191,4.1191,4.1191,4.1191,4.1191,4.1191,4.1191,4.1191,4.1191,4.1152,4.082,4.0703,4.0644,4.0293,4.0176,3.9922,3.8318,3.7785,3.7516,3.5993,3.5273,0.0,0.0,0.0,0.0,0.0,0.0,0.0,0.0,0.0,0.0,0.0,0.0,0.0,0.0,0.0,0.0,0.0,0.0,0.0,3.9873,4.147,4.2604,4.2624,4.272,4.2325,4.115,4.1016,4.1074,4.1191,4.1191,4.114,4.1013,4.099,4.0877,4.0714,4.0688,0.0,4.0177,4.0062,3.9735,3.9186,3.8707,3.83,3.8065,0.0,0.0,3.9924,3.9958,4.0393,4.1051,4.0289,3.9411,3.8569,3.8146,3.6397,3.4091,3.4638,3.0639,2.4423,2.3312,1.3872,0.0945,0.0,0.0,0.0,0.0,0.0,0.0,0.0,3.3807,3.4874,3.785,3.8258,3.9365,4.2334,4.2412,4.2256,4.2256,4.1209,4.0181,3.9354,4.0873,4.2374,4.3643,4.4913,4.5586,4.5586,4.4739,4.3912,4.3104,4.2297,4.1508,4.0808,4.0867,4.1019,4.1191,4.1191,4.1191,4.1191,4.1191,4.1191,4.1191,4.1191,4.1191,4.1191,4.1191,4.1191,4.1191,4.1191,4.1191,4.1035,3.9922,3.9539,3.9362,3.8331,3.7437,3.6424,0.0,0.0,0.0,0.0,0.0,0.0,0.0,0.0,0.0,0.0,0.0,0.0,0.0,0.0,3.8265,0.0,0.0,4.0835,4.1662,4.2527,4.3104,4.3104,4.314,4.2874,4.2177,4.2161,4.2065,4.1698,4.1257,4.0972,4.0912,4.0467,4.035,4.0677,4.0507,4.0308,4.0101,3.9775,3.9438,3.908,3.8469,3.8092,3.7911,3.7843,3.7994,3.8403,3.8474,3.8162,3.7576,3.659,3.5106,3.3333,3.3154,3.0818,2.7606,2.9727,2.7721,2.2992,1.7301,0.9396,0.056,0.0,0.0,0.0,0.0,0.0,0.0,0.0,0.0,3.4518,3.6547,3.6801,3.7483,3.9274,3.9087,3.8632,3.8192,3.8463,3.8843,3.9258,4.1335,4.3451,4.5509,4.5586,4.5586,4.5586,4.4739,4.3912,4.3104,4.2239,4.145,4.0808,4.08,4.093,4.1191,4.1191,4.1191,4.1191,4.1191,4.1191,4.1191,4.1191,4.1191,4.1191,4.1191,4.1191,4.1191,4.1191,4.1191,4.1152,4.0898,4.0799,4.0754,4.0562,3.9569,3.8101,3.6086,3.5603,0.0,0.0,0.0,0.0,0.0,0.0,0.0,0.0,0.0,3.7201,3.8872,3.9923,4.0724,4.1355,4.2074,4.2777,4.347,4.3585,4.3585,4.3585,4.3585,4.3544,4.3426,4.3247,4.2859,4.217,4.1304,4.0857,4.1024,4.0172,4.0023,4.087,4.0385,4.0081,4.0002,3.9432,3.9026,3.8859,3.8005,3.7506,3.7398,3.6777,3.6506,3.6536,3.632,3.5198,3.3411,3.2182,3.014,2.76,2.597,2.2941,1.9554,2.1911,2.2099,1.9857,1.0627,0.4791,0.0183,0.0,0.0,0.0,0.0,0.0,0.0,0.0,0.0,0.0,3.6547,3.6801,3.7258,3.8502,3.8584,3.7736,3.5694,3.8895,4.0515,3.9392,4.2989,4.5297,4.5586,4.5586,4.5586,4.5586,4.4739,4.3912,4.3104,4.2239,4.145,4.0808,4.08,4.093,4.1191,4.1191,4.1191,4.1191,4.1191,4.1191,4.1191,4.1191,4.1191,4.1191,4.1191,4.1191,4.1191,4.1191,4.1191,4.1152,4.0898,4.0799,4.0754,4.0562,4.0373,3.9608,3.6427,3.6021,3.5854,3.2594,3.4068,3.6915,3.8366,3.8729,3.9359,0.0,0.0,4.1581,4.3248,4.4282,4.4914,4.501,4.5105,4.5201,4.5297,4.5316,4.5316,4.5316,4.5316,4.5028,4.4259,4.298,4.2148,4.2094,4.1316,4.1084,4.1801,4.1039,4.0889,4.1643,4.0672,3.9943,3.9668,3.9289,3.8773,3.8044,3.6885,3.6115,3.5676,3.4525,3.396,3.3786,3.2251,3.0821,2.9562,2.7829,2.6196,2.3934,1.5733,1.1017,0.8853,0.578,0.4671,0.4787,0.4758,0.0921,-0.5075,0.0,0.0,0.0,0.0,0.0,0.0,0.0,0.0,0.0,0.0,3.5055,3.5236,3.5708,3.5071,3.3919,3.2286,3.6491,3.9042,3.8569,4.297,4.5586,4.5586,4.5586,4.5586,4.5586,4.4739,4.3912,4.3104,4.2239,4.145,4.0808,4.08,4.093,4.1191,4.1191,4.1191,4.1191,4.1191,4.1191,4.1191,4.1191,4.1191,4.1191,4.1113,4.1074,4.0957,3.998,3.957,0.0,3.9336,3.9286,3.9419,4.0239,3.9819,3.8577,3.6201,3.6078,3.6728,3.681,3.7127,3.7993,4.0194,4.0748,4.1181,4.2749,4.2819,4.3037,4.4722,4.5355,4.5586,4.5586,4.5586,4.5586,0.0,4.5586,4.5586,4.5586,4.5163,4.4701,4.4335,4.2874,4.1893,4.1915,4.1143,4.0773,4.1104,4.0777,4.0652,4.0803,4.1085,4.0892,4.0019,3.984,3.9182,3.8006,3.6898,3.5785,3.4738,3.2875,3.1713,3.1246,2.9156,2.6955,2.4503,1.9046,1.4263,1.0135,0.6222,0.3047,-0.0,-0.5341,-0.7321,-0.6731,-0.3454,-0.5095,-0.9407,0.0,0.0,0.0,0.0,0.0,0.0,0.0,0.0,0.0,0.0,3.3807,3.3715,3.3495,3.2207,3.1061,3.0314,3.4329,3.7213,3.7954,4.2335,4.5105,4.5566,4.5586,4.5586,4.5586,4.497,4.4259,4.3431,4.2585,4.1816,4.1155,4.0907,4.093,4.1191,4.1191,4.1191,4.1191,4.1191,4.1191,4.1191,4.1191,4.1191,4.1191,4.1049,4.0695,4.0071,3.8604,3.8026,3.7822,3.7042,3.6956,3.7341,3.8408,3.7932,3.6673,3.5211,3.5045,3.5939,3.8704,3.8907,3.8973,4.1522,4.252,4.3017,4.3649,4.3784,4.4128,4.5355,4.5586,4.5586,4.5586,4.5586,4.5586,4.5586,4.5586,4.5586,4.5586,4.4855,4.422,4.3989,4.2701,4.1668,4.1368,4.0822,4.0585,4.0835,4.0575,4.04,4.0444,4.0976,4.0806,3.9806,3.947,3.8661,3.7386,3.5949,3.4513,3.3013,3.0634,2.8989,2.7948,2.4225,2.0748,1.7331,1.0114,0.3773,-0.1536,-0.2849,-0.5046,-0.8074,-1.2619,-1.4375,-1.3971,-1.0958,-1.1107,-1.2906,0.0,0.0,0.0,0.0,0.0,0.0,0.0,0.0,0.0,0.0,0.0,0.0,0.0,3.1201,3.0428,3.0847,3.3318,3.5778,3.7858,4.1258,4.3893,4.5528,4.5586,4.5586,4.5586,4.5566,4.5124,4.4259,4.3451,4.2717,4.2033,4.1198,4.093,4.1191,4.1191,4.1191,4.1191,4.1191,4.1191,4.1191,4.1191,4.1191,4.1188,4.1048,3.9923,3.8247,3.7371,3.7043,3.6659,3.411,3.382,3.4492,3.4416,3.4359,3.414,3.3231,3.2443,3.2582,3.5912,3.8007,3.9883,4.2424,4.4282,4.549,4.5509,4.5509,4.5528,4.5586,4.5586,4.5586,4.5586,4.5586,4.5586,4.5586,4.5586,4.5586,4.5586,4.4855,4.4008,4.3239,4.2354,4.1368,0.0,4.0375,4.0854,4.17,4.0747,4.0463,4.1226,3.9957,3.898,3.8481,3.7522,3.6496,3.5491,3.3267,3.1374,2.9912,2.7285,2.5232,2.3508,1.6113,1.0752,0.7052,0.2343,-0.2343,-0.7063,-1.161,-1.4389,-1.574,-1.5576,-1.5591,-1.5673,-1.6635,-1.6374,-1.5502,0.0,0.0,0.0,0.0,0.0,0.0,0.0,0.0,0.0,0.0,0.0,0.0,0.0,0.0,0.0,0.0,3.3409,3.5384,3.6281,4.0046,4.2758,4.3893,4.5009,4.5586,4.5586,4.5586,4.5163,4.4297,4.4028,4.3275,4.209,4.181,4.1496,4.1191,4.1191,4.1504,4.1953,4.1426,4.0879,4.0391,4.0976,4.0508,3.9451,3.9277,3.883,3.7871,0.0,3.3485,3.3265,3.1804,3.1491,3.1927,3.3006,3.2564,3.1616,3.1333,3.1845,3.3352,3.7363,0.0,4.1564,4.4128,4.5182,4.5586,4.5586,4.5586,4.5586,4.5586,4.4263,4.309,4.3092,4.3085,4.3092,4.3069,4.4489,4.5586,4.5586,4.4855,4.3989,4.3201,4.2335,0.0,0.0,0.0,0.0,4.0323,4.0523,4.0259,3.9432,3.9962,3.9487,3.7727,3.752,3.6325,3.4024,3.2181,2.9886,2.7182,2.4625,1.9966,1.3581,0.9176,0.4748,0.0606,-0.2267,-0.7382,-1.3713,-1.415,-1.5524,-1.7422,-1.8002,-1.8062,-1.8017,-1.9097,-1.9246,-1.8726,0.0,0.0,0.0,0.0,0.0,0.0,0.0,0.0,0.0,0.0,0.0,0.0,0.0,0.0,0.0,0.0,0.0,3.4437,3.5296,3.7982,4.0219,4.1681,4.247,4.3028,4.3335,4.3028,4.2604,4.2047,4.2354,4.2085,4.1204,4.1498,4.1476,4.1191,4.1191,4.1641,4.2344,4.1543,4.0703,3.9922,4.0132,3.9189,3.761,3.7404,3.6954,0.0,3.2827,3.1311,3.0644,2.9786,2.9506,2.9747,3.1116,3.1017,3.0398,3.0398,3.1815,3.4306,3.8568,4.0739,4.2424,4.4953,4.5586,4.5586,4.5586,4.5355,4.5143,4.5143,4.3113,4.1327,4.1335,4.1354,4.1146,4.0546,4.2316,4.3893,4.4201,4.3133,4.2485,4.2868,4.1799,4.0692,0.0,0.0,0.0,3.9599,3.9858,3.9537,3.8462,3.8907,3.8396,3.6697,3.6025,3.4478,3.2068,2.9813,2.6783,2.3067,1.9275,1.3712,0.6767,0.3306,-0.0957,-0.5757,-0.7598,-1.1696,-1.7099,-1.6553,-1.7487,-1.9232,-2.0498,-2.088,-2.0719,-2.1842,-2.2242,-2.1947,0.0,0.0,0.0,0.0,0.0,0.0,0.0,0.0,0.0,0.0,0.0,0.0,0.0,0.0,0.0,0.0,0.0,0.0,3.4916,3.5315,3.657,3.9065,3.8411,3.8392,3.9219,3.8411,3.8007,3.8007,3.8834,3.9311,3.9482,4.0253,4.0716,4.0937,4.0937,4.1387,4.2089,4.1269,4.0429,3.9548,3.8691,3.7317,3.5743,3.5547,3.4481,3.2972,3.1987,3.0535,2.8972,2.8163,2.7962,2.8174,2.9023,2.9854,3.055,3.0578,3.2431,3.5342,3.9397,4.1221,4.2577,4.4991,4.5586,4.5586,4.5528,4.4895,4.4263,4.4128,4.208,4.0271,0.0,0.0,3.9783,3.8161,3.9454,4.0954,4.1764,4.0271,3.9947,0.0,0.0,0.0,0.0,0.0,0.0,3.9462,0.0,3.8303,3.8253,3.6816,3.5745,3.5217,3.3016,3.1065,2.9525,2.6076,2.202,1.754,1.1643,0.6819,0.2912,-0.142,-0.6471,-1.1768,-1.3328,-1.5284,-1.7429,-1.8929,-2.0304,-2.146,-2.2946,-2.3572,-2.3732,-2.477,-2.5171,-2.4959,0.0,0.0,0.0,0.0,0.0,0.0,0.0,0.0,0.0,0.0,0.0,0.0,0.0,0.0,0.0,0.0,0.0,0.0,3.4096,3.4792,3.5844,3.73,3.7777,3.8104,3.8334,3.8104,3.8007,3.8007,3.8219,3.8101,3.7666,3.7865,3.7751,3.7324,3.7324,3.7764,3.846,3.7616,3.6715,3.5914,3.632,3.5436,3.3882,3.3774,3.3473,3.2894,3.1302,3.0028,2.8972,2.8163,2.8722,3.0029,3.1468,3.2074,3.2396,3.304,3.5496,3.8377,4.0032,4.252,4.4799,4.5432,4.5586,4.5432,4.478,4.4455,4.3744,4.1873,3.9445,3.7294,0.0,0.0,0.0,3.6829,4.0234,0.0,4.2921,4.3033,0.0,4.2286,0.0,4.0835,3.9264,3.8689,0.0,0.0,3.7821,3.7124,3.622,3.5159,3.3908,3.2377,3.0469,2.8353,2.5942,2.187,1.6476,0.9776,0.6489,0.2111,-0.3163,-0.6383,-0.9908,-1.3412,-1.3814,-1.5929,-1.9029,-1.9407,-2.0924,-2.2946,-2.3381,-2.405,-2.477,-2.5093,-2.5171,-2.5215,0.0,0.0,0.0,0.0,0.0,0.0,0.0,0.0,0.0,0.0,0.0,0.0,0.0,0.0,0.0,0.0,0.0,0.0,0.0,3.3658,3.4101,3.4825,3.4994,3.5115,3.5238,3.4853,3.4661,3.4661,3.5391,3.5595,3.5302,3.6066,3.6264,3.5957,3.5958,3.6414,3.715,3.6238,3.5338,0.0,0.0,3.3568,3.2004,3.1946,3.1927,3.1773,3.0756,3.0564,3.0814,3.1129,3.1872,3.2749,3.3281,3.3718,3.4212,3.5053,3.745,4.0092,4.1313,4.3592,4.5586,4.5586,4.5586,4.5182,4.3573,4.2917,4.1915,3.9346,3.681,3.4641,3.3342,3.479,3.572,0.0,0.0,0.0,4.1099,4.1117,4.1147,0.0,4.0719,0.0,3.867,3.7677,3.7017,0.0,3.6561,3.6094,3.543,3.3353,3.1758,3.0675,2.7749,2.441,2.0632,1.7073,1.1776,0.4875,0.2198,-0.1941,-0.7169,-0.9144,-1.1718,-1.4705,0.0,-1.7155,-2.0113,-2.0675,-2.184,-2.3287,-2.4368,-2.5362,-2.619,-2.6665,-2.6972,-2.7228,0.0,0.0,0.0,0.0,0.0,0.0,0.0,0.0,0.0,0.0,3.3807,0.0,0.0,0.0,0.0,0.0,0.0,0.0,0.0,0.0,3.2336,3.2602,3.1873,3.1522,3.1642,3.0936,3.0513,3.0398,3.1872,3.2627,3.2779,3.4294,3.5079,3.5192,3.5205,3.5604,3.6257,3.5434,3.4658,3.3894,3.308,3.1831,3.0487,0.0,3.0398,3.0398,3.0398,3.1472,3.3171,3.4908,3.5649,3.5745,3.5212,3.5553,3.6297,3.6999,3.8846,4.1027,4.267,4.4243,4.5451,4.5566,4.5509,4.4761,4.2215,4.0957,3.9542,3.6761,3.4353,3.2463,3.1521,3.332,3.417,3.1844,0.0,3.779,3.8428,3.7683,3.7859,3.9993,3.8871,3.7898,3.7808,3.6348,3.5385,3.5385,3.4923,3.4642,3.4642,3.1384,2.9209,2.8588,2.4644,2.0176,1.5278,1.3033,0.8562,0.1934,-0.1769,-0.5687,-0.9717,-1.0626,-1.2777,-1.5927,0.0,0.0,-2.0664,-2.2025,-2.2745,-2.315,-2.5512,-2.6852,-2.7536,-2.8498,-2.9252,-2.9616,0.0,0.0,0.0,0.0,0.0,0.0,0.0,0.0,0.0,0.0,3.3807,3.3807,0.0,0.0,0.0,0.0,0.0,0.0,0.0,0.0,0.0,3.3223,3.2627,3.2,3.1378,3.145,3.1121,3.0398,3.0686,3.0871,3.096,3.1256,3.1437,3.152,3.1527,3.1562,3.1657,3.1492,3.1299,3.1095,3.0941,3.0679,3.0417,3.0398,0.0,0.0,3.0398,3.1472,3.3171,3.4908,3.6427,3.7778,3.9019,3.9512,3.9665,3.98,4.0658,4.1793,4.2823,4.3803,4.4703,4.5413,4.5049,4.3861,4.1297,4.0092,3.8382,3.4378,3.2678,3.1426,2.9839,3.0904,3.2245,3.2825,3.5687,3.8257,3.9446,3.9648,3.9581,0.0,3.8726,3.8051,3.7394,3.6177,0.0,0.0,0.0,0.0,3.0798,2.8814,2.5967,2.2125,2.0129,1.7523,1.4186,1.3803,0.9235,0.0354,-0.6142,-0.9648,-1.0448,-1.2468,-1.4726,-1.7066,0.0,0.0,-2.0644,-2.1675,-2.2907,-2.4178,-2.5394,-2.6748,-2.8064,-2.8675,-2.8988,-2.9139,0.0,0.0,0.0,0.0,0.0,0.0,0.0,3.3807,3.3807,3.3807,3.3807,3.3807,3.3807,3.3807,3.3807,0.0,0.0,0.0,0.0,0.0,0.0,0.0,3.3034,3.2648,3.1946,3.2204,0.0,0.0,0.0,3.1102,3.1121,0.0,0.0,3.0548,3.0548,3.054,3.0506,3.0467,3.0417,3.0398,3.0398,3.0398,3.0398,0.0,0.0,0.0,3.0398,3.1472,3.3029,3.3859,3.5854,3.8293,3.9954,4.0489,4.0489,4.0489,4.1116,4.1998,4.2852,4.3684,4.4493,4.5374,4.4934,4.34,3.9989,3.8238,3.6084,3.1677,3.0129,2.9137,2.7738,2.9155,3.0674,3.1129,3.4064,3.662,3.7507,3.8221,3.8562,3.8186,3.7662,3.705,0.0,3.516,0.0,0.0,0.0,0.0,2.9734,2.5807,2.1502,1.7194,1.5545,1.377,1.164,0.8384,0.4086,-0.1236,-0.7204,-1.0522,-1.1552,-1.3231,-1.5238,-1.7334,-1.847,0.0,-2.0634,-2.1593,-2.2757,-2.3947,-2.4987,-2.6359,-2.7745,-2.8298,-2.8687,-2.9013,0.0,0.0,0.0,0.0,0.0,0.0,3.3807,3.3807,3.3807,3.3807,3.3807,3.3807,3.3807,3.3807,3.3807,0.0,0.0,0.0,0.0,0.0,0.0,0.0,0.0,0.0,0.0,0.0,0.0,0.0,0.0,0.0,0.0,0.0,0.0,0.0,0.0,0.0,3.0487,3.0417,3.0398,0.0,0.0,0.0,0.0,0.0,0.0,0.0,0.0,3.1261,3.2382,3.2586,3.4424,3.6906,3.8405,3.9362,3.9954,3.9954,4.045,4.1309,4.2707,4.3544,4.4282,4.5336,4.4818,4.2958,3.8869,3.6491,3.3932,2.9621,2.7943,2.7001,2.6166,2.7608,2.8909,2.8932,3.1602,3.4043,3.5015,3.5954,3.665,3.6985,3.6422,0.0,3.5019,0.0,0.0,0.0,0.0,0.0,2.7732,2.201,1.7426,1.4538,1.2466,1.04,0.8277,0.1775,-0.2308,-0.3871,-0.7986,-1.0835,-1.2322,-1.3988,-1.5659,-1.7415,-1.8709,0.0,0.0,-2.1811,-2.2776,-2.3599,-2.485,-2.6061,-2.7168,-2.772,-2.821,-2.8674,0.0,0.0,0.0,0.0,0.0,0.0,3.3807,3.3807,3.3807,3.3807,3.3807,3.3807,3.3807,3.3807,3.3807,0.0,0.0,0.0,0.0,0.0,0.0,0.0,0.0,0.0,0.0,0.0,0.0,0.0,0.0,0.0,0.0,0.0,0.0,0.0,0.0,0.0,0.0,3.0398,0.0,0.0,0.0,0.0,0.0,0.0,0.0,0.0,0.0,3.0506,3.0737,3.153,3.2011,3.2429,3.3321,3.5726,3.8235,3.8235,3.8293,3.9054,4.2245,4.3159,4.3592,4.5201,4.4397,4.2249,3.8565,3.5809,3.3006,2.9292,2.7262,2.6117,2.6024,2.6043,2.6451,2.7568,2.9067,3.098,3.3601,3.4249,3.4992,3.6325,0.0,0.0,3.3562,0.0,0.0,0.0,0.0,0.0,0.0,1.6975,1.5039,1.5943,1.2516,0.8572,0.4066,-0.2941,-0.7272,-0.8823,-1.0707,-1.1819,-1.2407,-1.5584,-1.709,-1.7415,0.0,0.0,0.0,-2.2638,-2.3452,-2.3661,-2.5639,-2.6421,-2.6672,-2.7155,-2.7394,-2.7582,0.0,0.0,0.0,0.0,0.0,0.0,3.3807,3.3807,3.3807,3.3807,3.3807,3.3807,3.3807,3.3807,3.3807,3.3807,0.0,0.0,0.0,0.0,0.0,0.0,0.0,0.0,0.0,0.0,0.0,0.0,0.0,0.0,0.0,0.0,0.0,0.0,0.0,0.0,0.0,0.0,0.0,0.0,0.0,0.0,0.0,0.0,0.0,0.0,0.0,0.0,3.0359,3.0186,3.0821,3.1493,3.0263,3.1525,3.3916,3.6473,3.7219,3.7951,4.1386,4.2701,4.3248,4.3918,4.2712,4.0586,3.7594,3.4065,3.0694,2.808,2.6242,2.5003,2.4688,2.454,2.4739,2.5564,2.6694,2.8031,2.9664,3.135,3.2681,3.327,3.3274,0.0,0.0,0.0,0.0,0.0,0.0,0.0,0.0,1.4859,1.3423,1.2175,0.7007,0.3288,0.1419,-0.4283,-0.834,-1.0896,-1.1029,-1.186,-1.3464,-1.6101,-1.7342,-1.7415,0.0,0.0,0.0,-2.2038,-2.2925,-2.3661,-2.5075,-2.5955,-2.6596,-2.708,-2.7281,-2.7394,0.0,0.0,0.0,0.0,0.0,3.3807,3.3807,3.3807,3.3807,3.3807,3.3807,3.3807,3.3807,3.3807,3.3807,3.3807,3.3807,0.0,0.0,0.0,0.0,0.0,0.0,0.0,0.0,0.0,3.4695,3.4981,0.0,0.0,0.0,0.0,0.0,0.0,0.0,0.0,0.0,0.0,0.0,0.0,0.0,0.0,0.0,0.0,0.0,0.0,0.0,0.0,0.0,0.0,0.0,2.9834,2.7778,2.7943,2.967,3.3669,3.5187,3.6332,3.9742,4.1588,4.2631,4.2883,4.1485,3.9308,3.6458,3.2647,2.9093,2.6911,2.5299,2.4153,2.3765,2.3617,2.362,2.3866,2.4635,2.562,2.6762,2.8443,2.9786,3.044,0.0,0.0,0.0,0.0,0.0,0.0,0.0,0.0,0.0,1.3101,1.1657,0.8832,0.3106,-0.0712,-0.2049,-0.5894,-0.9024,-1.1397,-1.1241,-1.2328,-1.4657,-1.6445,-1.7496,-1.7908,0.0,0.0,0.0,-2.1962,-2.285,-2.3661,-2.4921,-2.5886,-2.6584,-2.6892,-2.703,-2.7118,0.0,0.0,0.0,0.0,0.0,0.0,3.3807,3.3807,3.3807,3.3807,3.3807,3.3807,3.3807,3.3807,3.3807,3.3807,3.3807,0.0,0.0,0.0,0.0,0.0,0.0,0.0,0.0,0.0,3.4379,3.4694,3.4963,3.4647,0.0,0.0,0.0,0.0,0.0,0.0,0.0,0.0,0.0,0.0,0.0,0.0,0.0,0.0,0.0,0.0,0.0,0.0,0.0,0.0,0.0,0.0,0.0,2.5341,2.6044,2.9458,3.1635,3.3697,3.7095,3.9646,4.1543,4.2384,4.1152,3.8772,3.5243,3.1862,2.8736,2.5981,2.4504,2.371,2.3692,2.3424,2.3102,2.2762,2.301,2.3871,2.5756,2.5668,2.6251,0.0,0.0,0.0,0.0,0.0,0.0,0.0,0.0,0.0,0.0,1.1014,0.9513,0.7122,0.2487,-0.2227,-0.7009,-0.8677,-0.9878,-1.0611,-1.1724,-1.3503,-1.5696,-1.6846,-1.7908,0.0,0.0,0.0,0.0,-2.2713,-2.3514,-2.3661,-2.5721,-2.6465,-2.6533,-2.6533,-2.6533,-2.6622,0.0,0.0,0.0,0.0,0.0,0.0,3.3807,3.3807,3.3807,3.3807,3.3807,3.3807,3.3807,3.3807,3.3807,3.3807,3.3807,0.0,0.0,0.0,0.0,0.0,0.0,0.0,0.0,0.0,3.4068,3.4357,3.4427,3.386,3.2692,3.2095,3.1073,0.0,0.0,0.0,0.0,0.0,0.0,0.0,0.0,0.0,0.0,0.0,0.0,0.0,0.0,0.0,0.0,0.0,0.0,0.0,0.0,0.0,0.0,2.6275,2.8247,3.0706,3.3555,3.5561,3.68,3.6517,3.5855,3.4648,3.2376,2.9613,2.7056,2.5409,2.4337,2.3547,2.3102,2.2708,2.2474,2.2604,2.2498,2.2763,0.0,0.0,0.0,2.5819,0.0,0.0,0.0,0.0,0.0,0.0,0.0,0.0,0.0,0.0,0.3022,0.222,-0.08,-0.4455,-0.8677,-0.9007,-1.0024,-1.1809,-1.2899,-1.4253,-1.5779,-1.7658,0.0,0.0,0.0,0.0,0.0,-2.1962,-2.285,-2.3661,-2.4992,-2.5873,-2.6533,-2.6533,-2.6533,-2.6546,0.0,0.0,0.0,0.0,0.0,0.0,3.3807,3.3807,3.3807,3.3807,3.3807,3.3678,3.3385,3.3348,3.3238,3.2908,3.2889,0.0,0.0,0.0,0.0,0.0,0.0,0.0,3.2449,3.2449,3.2514,3.2696,3.2794,3.2577,3.205,3.1462,3.0462,2.9144,2.8439,0.0,0.0,0.0,0.0,0.0,0.0,0.0,2.7945,0.0,0.0,0.0,0.0,0.0,0.0,0.0,0.0,0.0,0.0,0.0,0.0,0.0,2.5468,2.7347,3.03,3.2352,3.3639,3.3441,3.273,3.1683,3.0215,2.7846,2.5632,2.4485,2.3777,2.32,2.2781,2.2265,2.1982,2.2172,2.1757,2.1726,0.0,0.0,0.0,0.0,0.0,0.0,0.0,0.0,0.0,0.0,0.0,0.0,0.0,0.0,-0.0801,-0.2585,-0.4107,-0.6425,-0.9468,-0.9515,-1.0438,-1.2322,-1.3917,-1.526,-1.6355,-1.8149,0.0,0.0,0.0,0.0,0.0,-2.2038,-2.2925,-2.3672,-2.4992,-2.5943,-2.6533,-2.6533,-2.6533,-2.6533,0.0,0.0,0.0,0.0,0.0,0.0,0.0,3.3807,3.377,3.3715,3.3715,3.3421,3.2614,3.2522,3.221,3.1458,3.1384,0.0,0.0,0.0,0.0,0.0,0.0,0.0,3.0136,3.0173,3.021,3.021,3.0457,3.0921,3.1573,3.0998,3.0278,2.9465,2.8615,2.793,0.0,0.0,0.0,0.0,0.0,0.0,0.0,0.0,0.0,0.0,0.0,0.0,0.0,0.0,0.0,0.0,0.0,0.0,0.0,0.0,0.0,0.0,0.0,2.9626,3.1371,3.2166,3.109,2.9522,2.8421,2.6442,0.0,2.3391,2.2915,2.27,2.2683,2.2085,2.1576,2.1647,2.0892,0.0,0.0,2.1235,0.0,0.0,0.0,0.0,0.0,0.0,0.0,0.0,0.0,0.0,0.0,0.0,-0.2316,-0.692,-0.7177,-0.7967,-0.9551,-1.0289,-1.1209,-1.2498,-1.4768,-1.6355,-1.7334,-1.8559,0.0,0.0,0.0,0.0,0.0,-2.2627,-2.3514,-2.3818,-2.5652,-2.6465,-2.6533,-2.6533,-2.6533,-2.6533,0.0,0.0,0.0,0.0,0.0,0.0,0.0,0.0,0.0,0.0,3.2889,3.2577,3.177,3.1678,3.1604,0.0,0.0,0.0,0.0,0.0,0.0,0.0,0.0,0.0,2.931,2.9898,3.021,3.021,3.0244,3.007,2.9628,2.8442,2.7419,2.6632,2.5973,2.5588,0.0,0.0,0.0,0.0,0.0,0.0,0.0,0.0,0.0,0.0,2.4764,2.4716,0.0,0.0,0.0,0.0,0.0,0.0,0.0,0.0,2.2665,2.2335,2.3177,0.0,2.5112,2.5311,2.5765,2.5923,0.0,2.4675,2.4191,2.305,2.274,2.2683,2.2649,2.1799,2.1368,2.2039,0.0,0.0,0.0,0.0,0.0,0.0,0.0,0.0,0.0,0.0,0.0,0.0,0.0,0.0,0.0,0.0,-0.4105,-0.6999,-0.8036,-0.9069,-1.0366,-1.0529,-1.1649,-1.373,-1.5861,-1.709,-1.7342,-1.9353,0.0,0.0,0.0,0.0,-2.1735,-2.2178,-2.3294,-2.4707,-2.5146,-2.5804,-2.6533,-2.6533,-2.6533,-2.6533,0.0,0.0,0.0,0.0,0.0,0.0,0.0,0.0,0.0,0.0,3.2284,3.1733,3.0944,3.0852,3.0705,0.0,0.0,0.0,0.0,0.0,0.0,0.0,0.0,2.8558,2.7365,2.7769,2.8172,2.8558,2.8558,2.8521,2.8448,2.8046,2.7058,2.5542,2.4933,2.4651,0.0,0.0,0.0,0.0,0.0,0.0,0.0,0.0,0.0,0.0,2.3039,2.2996,0.0,2.3306,2.3656,2.3969,0.0,0.0,0.0,0.0,2.1482,2.0985,2.0622,2.1609,2.2865,2.3213,2.3456,2.3644,2.3799,2.3458,2.3005,2.2587,2.2344,2.2198,2.2136,2.1778,2.1448,0.0,2.1229,0.0,0.0,0.0,0.0,0.0,0.0,0.0,0.0,0.0,0.0,0.0,0.0,0.0,0.0,0.0,-0.6169,-0.8143,-0.8644,-0.9405,-1.0611,-1.1128,-1.2577,-1.481,-1.6527,-1.7577,-1.8149,-1.9835,0.0,0.0,0.0,0.0,-2.2038,-2.2478,-2.3588,-2.5087,-2.5523,-2.6025,-2.6533,-2.6533,-2.6533,-2.6533,0.0,0.0,0.0,0.0,0.0,0.0,0.0,0.0,0.0,0.0,0.0,0.0,0.0,0.0,0.0,0.0,0.0,0.0,0.0,0.0,0.0,0.0,2.742,2.6796,2.5439,2.5403,2.5786,2.6612,2.6484,2.6778,2.7438,2.8007,2.7181,2.5201,2.4819,2.4569,0.0,0.0,0.0,0.0,0.0,0.0,0.0,0.0,0.0,0.0,0.0,0.0,0.0,2.2538,2.3032,2.3012,2.3012,0.0,0.0,0.0,0.0,0.0,1.9273,2.0774,2.2597,2.2861,2.2369,2.2079,2.3015,2.2281,2.1541,2.1877,2.1703,2.1568,2.177,2.1792,0.0,0.0,0.0,0.0,0.0,0.0,0.0,0.0,0.0,0.0,0.0,0.0,0.0,0.0,0.0,0.0,0.0,0.0,0.0,-0.9371,-0.9253,-0.9662,-1.0869,-1.1809,-1.3341,-1.5462,-1.6683,-1.7827,-1.8798,-2.0001,-2.0566,0.0,0.0,0.0,-2.2103,-2.3073,-2.4108,-2.5087,-2.6094,-2.6533,-2.6533,-2.6533,-2.6533,-2.6533,0.0,0.0,0.0,0.0,0.0,0.0,0.0,0.0,0.0,0.0,0.0,0.0,0.0,0.0,0.0,0.0,0.0,0.0,0.0,0.0,0.0,2.5807,2.577,2.566,2.5421,2.5403,2.5786,2.6612,2.5915,2.566,2.577,2.5199,2.474,2.4392,2.4985,2.4875,2.4247,2.4284,0.0,0.0,0.0,0.0,0.0,0.0,0.0,0.0,0.0,0.0,0.0,2.1686,2.2461,2.3012,2.3012,0.0,0.0,0.0,0.0,0.0,1.9462,2.1104,2.214,1.9926,2.0032,2.0475,1.9754,2.0144,2.0621,2.0416,2.0749,2.144,2.2565,2.1621,2.0941,0.0,0.0,0.0,0.0,0.0,0.0,0.0,0.0,0.0,0.0,0.0,0.0,0.0,0.0,0.0,0.0,0.0,0.0,-0.8986,-0.984,-1.0869,-1.2066,-1.2242,-1.3021,-1.4328,-1.6363,-1.7423,-1.7658,-1.9678,-2.0566,0.0,0.0,-2.1155,-2.2103,-2.3073,-2.4108,-2.5087,-2.6094,-2.6533,-2.6533,-2.6533,-2.6533,-2.6533,0.0,0.0,0.0,0.0,0.0,0.0,0.0,0.0,0.0,0.0,0.0,0.0,0.0,0.0,0.0,0.0,0.0,0.0,0.0,0.0,2.5786,2.5421,2.4999,2.474,2.474,2.474,2.5144,2.5952,2.5586,2.5403,2.5384,2.4575,2.4441,2.4863,2.4776,2.454,2.4171,2.3729,2.3545,0.0,0.0,0.0,0.0,0.0,0.0,0.0,0.0,0.0,0.0,0.0,2.091,2.1402,2.0984,0.0,0.0,0.0,0.0,0.0,1.8814,1.974,2.0465,1.9713,2.1108,2.2618,2.2187,2.2186,2.2266,2.2133,2.1924,2.1873,2.2193,0.0,2.1117,2.1257,0.0,0.0,0.0,0.0,0.0,0.0,0.0,0.0,0.0,0.0,0.0,0.0,0.0,0.0,0.0,0.0,0.0,0.0,-1.095,-1.2077,-1.3294,-1.386,-1.4692,-1.5876,-1.6854,-1.7908,-1.9116,-2.0157,-2.0566,-2.0566,0.0,-2.1155,-2.2103,-2.3073,-2.4108,-2.5087,-2.6094,-2.6533,-2.6533,-2.6533,-2.6533,-2.6533,0.0,0.0,0.0,0.0,0.0,0.0,0.0,0.0,0.0,0.0,0.0,0.0,0.0,0.0,0.0,0.0,0.0,0.0,0.0,2.5219,2.5127,2.5127,2.452,2.4373,2.4759,2.4392,2.4575,2.5403,2.5219,2.5127,2.5109,2.4668,2.4714,2.5099,2.4476,2.4116,2.3876,2.3067,2.2702,2.2667,0.0,0.0,0.0,0.0,0.0,0.0,0.0,0.0,0.0,0.0,0.0,0.0,0.0,0.0,0.0,1.8741,1.8314,1.8133,1.8314,1.8825,1.9495,2.0252,2.1843,2.3413,2.4115,2.3449,2.2831,2.3274,2.2663,2.1934,0.0,2.123,0.0,0.0,0.0,0.0,0.0,0.0,0.0,0.0,0.0,0.0,0.0,0.0,0.0,0.0,0.0,0.0,0.0,0.0,0.0,0.0,-1.1809,-1.2851,-1.4088,-1.5137,-1.6108,-1.6927,-1.7423,-1.863,-2.0235,-2.0489,-2.0566,-2.0566,-2.0566,-2.1155,-2.2103,-2.3073,-2.4108,-2.5087,-2.6094,-2.6533,-2.6533,-2.6533,-2.6533,-2.6533,0.0,0.0,0.0,0.0,0.0,0.0,0.0,0.0,0.0,0.0,0.0,0.0,0.0,0.0,0.0,0.0,0.0,0.0,0.0,2.4685,2.4281,2.4281,2.4226,2.4905,2.6392,2.4961,2.4575,2.5403,2.4649,2.4281,2.43,2.5003,2.4947,2.428,2.4245,2.3803,2.303,2.2224,2.1898,2.1882,2.181,0.0,0.0,0.0,0.0,0.0,0.0,0.0,0.0,0.0,0.0,0.0,0.0,0.0,1.9277,1.8466,1.8042,1.7991,1.8659,1.9648,2.0547,2.0795,1.9846,1.9458,2.187,2.0868,1.9866,2.1444,2.1282,2.099,0.0,2.0096,0.0,0.0,0.0,0.0,0.0,0.0,0.0,0.0,0.0,0.0,0.0,0.0,0.0,0.0,0.0,0.0,0.0,0.0,0.0,0.0,0.0,-1.2851,-1.4088,-1.5137,-1.5779,-1.5861,-1.79,-1.8957,-1.9125,-2.0167,-2.0566,-2.0566,-2.0566,-2.1155,-2.2103,-2.3073,-2.4108,-2.5087,-2.6094,-2.6533,-2.6533,-2.6533,-2.6533,-2.6533,0.0,0.0,0.0,0.0,0.0,0.0,0.0,0.0,0.0,0.0,0.0,0.0,0.0,0.0,0.0,0.0,0.0,0.0,0.0,2.4373,2.441,2.4905,2.4465,2.4722,2.5823,2.4759,2.4355,2.4649,2.4355,2.419,2.4208,2.4504,2.4208,2.3434,2.3434,2.3015,2.2199,2.136,2.0988,2.0948,2.0458,2.0043,0.0,0.0,0.0,0.0,0.0,0.0,0.0,0.0,1.7613,1.798,1.7198,1.7631,1.8297,1.7772,1.7575,1.7502,1.7575,1.8785,2.001,1.9874,1.9452,1.9731,2.2393,2.2381,2.1822,2.1767,2.1657,2.1024,0.0,0.0,0.0,0.0,0.0,0.0,0.0,0.0,0.0,0.0,0.0,0.0,0.0,0.0,0.0,0.0,0.0,0.0,0.0,0.0,0.0,0.0,0.0,-1.3971,-1.5054,-1.6198,-1.709,-1.773,-1.863,-1.9362,-2.0001,-2.0401,-2.0566,-2.0566,-2.0566,-2.1155,-2.2103,-2.3073,-2.4108,-2.5087,-2.6094,-2.6533,-2.6533,-2.6533,-2.6533,-2.6533,0.0,0.0,0.0,0.0,0.0,0.0,0.0,0.0,0.0,0.0,0.0,0.0,0.0,0.0,0.0,0.0,0.0,0.0,2.4245,2.419,2.4447,2.5017,2.4483,2.4447,2.5017,2.4483,2.419,2.419,2.419,2.419,2.419,2.419,2.3858,2.3196,2.2722,2.2129,2.1439,2.0351,1.9899,1.9862,1.9305,1.9091,0.0,0.0,0.0,0.0,0.0,0.0,0.0,0.0,1.649,1.687,1.6206,1.6747,1.7575,1.7233,1.7429,1.7716,1.7502,1.8227,1.9095,1.9428,1.9057,1.9297,2.1827,2.2353,2.2234,2.2194,2.1337,1.9857,1.758,0.0,0.0,0.0,0.0,0.0,0.0,0.0,0.0,0.0,0.0,0.0,0.0,0.0,0.0,0.0,0.0,0.0,0.0,0.0,0.0,0.0,0.0,0.0,-1.5696,-1.709,-1.823,-1.9036,-1.9362,-1.9923,-2.0557,-2.042,-2.0439,-2.0644,-2.0934,-2.1593,-2.2553,-2.3588,-2.4564,-2.5511,-2.6245,-2.6533,-2.6533,-2.6533,-2.6533,-2.6533,0.0,0.0,0.0,0.0,0.0,0.0,0.0,0.0,0.0,0.0,0.0,0.0,0.0,0.0,0.0,0.0,0.0,0.0,2.4245,2.419,2.419,2.419,2.419,2.419,2.419,2.419,2.419,2.419,2.419,2.4171,2.4171,2.4171,2.3987,2.3601,2.2068,2.1204,2.077,1.9237,1.8593,1.8593,1.8593,1.8593,1.8593,0.0,0.0,0.0,0.0,0.0,0.0,0.0,1.6096,1.6624,1.6311,1.6714,1.7227,1.6886,1.7746,1.877,1.8757,1.8219,1.801,1.9668,1.854,1.7557,1.9542,1.9808,2.0245,2.248,1.991,1.7153,1.6996,1.4345,0.0,0.0,0.0,0.0,0.0,0.0,0.0,0.0,0.0,0.0,0.0,0.0,0.0,0.0,0.0,0.0,0.0,0.0,0.0,0.0,0.0,0.0,-1.5696,-1.79,-1.9045,-1.9045,-2.0079,-2.0634,-2.0547,-2.0117,-2.0156,-2.0634,-2.1593,-2.2553,-2.3588,-2.4564,-2.5594,-2.6533,-2.6533,-2.6533,-2.6533,-2.6533,-2.6533,-2.6533,0.0,0.0,0.0,0.0,0.0,0.0,0.0,0.0,0.0,0.0,0.0,0.0,0.0,0.0,0.0,0.0,0.0,0.0,2.4208,2.419,2.419,2.419,2.419,2.419,2.419,2.3656,2.3637,2.419,2.3434,2.3067,2.3067,2.2828,2.2077,2.0964,2.1033,2.0408,1.9243,1.8793,1.8595,1.8595,1.8595,1.829,1.7807,0.0,0.0,0.0,0.0,0.0,0.0,0.0,0.0,0.0,1.6144,1.6719,1.7194,1.6615,1.6744,1.691,1.6352,1.7924,1.9415,1.8235,1.8961,2.0027,2.0025,1.9947,1.9767,1.9511,1.7725,1.5696,1.3718,0.0,0.0,0.0,0.0,0.0,0.0,0.0,0.0,0.0,0.0,0.0,0.0,0.0,0.0,0.0,0.0,0.0,0.0,0.0,0.0,0.0,0.0,0.0,-1.6846,-1.831,-1.9362,-2.0157,-2.0091,-2.0273,-2.0634,-2.043,-2.0814,-2.1593,-2.1886,-2.2999,-2.4636,-2.5652,-2.6245,-2.6533,-2.6533,-2.6533,-2.6533,-2.6533,-2.6533,-2.6533,0.0,0.0,0.0,0.0,0.0,0.0,0.0,0.0,0.0,0.0,2.7328,0.0,0.0,0.0,0.0,0.0,0.0,0.0,0.0,2.419,2.419,2.419,2.419,2.4042,2.3729,2.314,2.292,2.3085,2.2444,2.2054,2.1967,2.2057,2.138,2.0114,2.0856,2.0438,1.9166,1.9166,1.9166,1.9092,1.8512,1.8025,1.753,0.0,0.0,0.0,0.0,0.0,0.0,0.0,0.0,0.0,1.6104,1.6534,1.684,1.6585,1.6569,1.6713,1.717,1.8212,1.9151,1.9007,1.9494,1.9871,1.9323,0.0,0.0,0.0,1.6356,1.4411,1.2485,0.0,0.0,0.0,0.0,0.0,0.0,0.0,0.0,0.0,0.0,0.0,0.0,0.0,0.0,0.0,0.0,0.0,0.0,0.0,0.0,0.0,0.0,0.0,-1.798,-1.9116,-1.9837,-2.0303,-2.0039,-2.0049,-2.0303,-2.0303,-2.0907,-2.2027,-2.285,-2.4108,-2.5664,-2.6233,-2.6533,-2.6533,-2.6533,-2.6533,-2.6533,-2.6533,-2.6533,-2.6533,0.0,0.0,0.0,0.0,0.0,0.0,0.0,0.0,0.0,0.0,2.6502,2.6172,0.0,0.0,0.0,0.0,0.0,0.0,0.0,2.419,2.419,2.419,2.4171,2.3748,2.2884,2.2645,2.2096,2.1223,2.1292,2.12,2.0973,2.1688,2.1458,2.0505,2.124,2.0945,1.9907,1.9907,1.9849,1.9688,1.8341,1.7749,1.7548,1.6201,0.0,0.0,0.0,0.0,0.0,0.0,0.0,0.0,1.6177,1.6301,1.6361,1.6585,1.6848,1.7517,1.9546,1.867,1.7923,2.0917,1.9833,0.0,1.7821,1.7628,1.752,1.752,0.0,1.3314,0.0,0.0,0.0,0.0,0.0,0.0,0.0,0.0,0.0,0.0,0.0,0.0,0.0,0.0,0.0,0.0,0.0,0.0,0.0,0.0,0.0,0.0,0.0,0.0,-1.9036,-2.0079,-2.0342,0.0,-1.9951,-2.0026,-2.0062,-2.0062,-2.0872,-2.2403,-2.4337,-2.5664,-2.6533,-2.6533,-2.6533,-2.6533,-2.6533,-2.6533,-2.6533,-2.6533,-2.6533,-2.6533,0.0,0.0,0.0,0.0,0.0,0.0,0.0,0.0,0.0,0.0,0.0,0.0,0.0,0.0,0.0,0.0,0.0,0.0,0.0,2.419,2.419,2.419,2.395,2.3161,2.1771,2.2007,2.1334,1.9758,2.0374,2.0662,2.0625,2.1136,2.0921,2.0129,2.0942,2.0484,1.9153,1.9153,1.88,1.8238,1.7931,1.7452,1.6905,1.657,1.6113,0.0,0.0,0.0,0.0,0.0,0.0,0.0,1.6172,1.6304,1.6184,1.5636,1.6136,1.6789,1.6379,1.7496,1.8759,1.8901,1.8461,1.7742,1.7051,1.5728,1.4623,1.4623,1.347,0.0,0.0,0.0,0.0,0.0,0.0,0.0,0.0,0.0,0.0,0.0,0.0,0.0,0.0,0.0,0.0,0.0,0.0,0.0,0.0,0.0,0.0,0.0,0.0,-1.9036,-1.9036,-2.0079,-2.0342,0.0,-2.0264,-2.0681,-2.1073,-2.1073,-2.2258,-2.4409,-2.5652,-2.6314,-2.6533,-2.6533,-2.6533,-2.6533,-2.6533,-2.6533,-2.6533,-2.6533,-2.6533,-2.6533,0.0,0.0,0.0,0.0,0.0,0.0,0.0,0.0,0.0,0.0,0.0,0.0,0.0,0.0,0.0,0.0,0.0,0.0,0.0,0.0,2.3969,2.3472,2.2902,2.2134,2.117,2.1227,2.0785,1.9825,2.0515,2.0637,2.0272,2.0917,2.0762,2.0068,2.1207,2.0873,1.9446,1.982,1.9572,1.8775,1.8077,1.7579,1.7114,1.6248,1.5914,1.5838,1.5332,0.0,0.0,0.0,0.0,0.0,0.0,0.0,1.5725,1.5607,1.5515,1.5622,1.6514,1.7115,1.7457,1.7389,0.0,1.689,1.5553,1.4072,1.2882,1.2385,0.0,0.0,0.0,0.0,0.0,0.0,0.0,0.0,0.0,0.0,0.0,0.0,0.0,0.0,0.0,0.0,0.0,0.0,0.0,0.0,0.0,0.0,0.0,0.0,-1.9195,-1.9766,-1.9766,-2.012,-2.0039,-1.9619,-2.0052,-2.1041,-2.245,-2.2921,-2.3796,-2.5087,-2.6094,-2.6533,-2.6533,-2.6533,-2.6533,-2.6533,-2.6533,-2.6533,-2.6533,-2.6533,-2.6533,-2.6533,0.0,0.0,0.0,0.0,0.0,0.0,0.0,0.0,0.0,0.0,0.0,0.0,0.0,0.0,0.0,0.0,0.0,0.0,0.0,0.0,0.0,2.3047,2.2132,2.1457,2.102,2.0881,2.0704,2.0544,2.1128,2.105,2.0416,2.1066,2.1033,2.0449,2.1591,2.1334,2.0047,2.056,2.0349,1.9509,1.8223,1.7721,1.7541,1.5999,1.5775,1.6231,1.5622,1.578,1.6243,1.5916,0.0,0.0,0.0,0.0,1.5183,1.5595,1.4994,1.4694,1.7214,1.6722,1.5727,1.6415,1.636,0.0,1.4041,1.2802,1.1662,0.0,0.0,0.0,0.0,0.0,0.0,0.0,0.0,0.0,0.0,0.0,0.0,0.0,0.0,0.0,0.0,0.0,0.0,0.0,0.0,0.0,0.0,0.0,-1.9116,-1.9274,-2.009,-2.0449,-2.0449,-2.0019,-1.959,-1.917,-1.9975,-2.1496,-2.368,-2.4785,-2.5229,-2.53,-2.6164,-2.6533,-2.6533,-2.6533,-2.6533,-2.6533,-2.6533,-2.6533,-2.6533,-2.6533,-2.6533,-2.6533,0.0,0.0,0.0,0.0,0.0,0.0,0.0,0.0,0.0,0.0,0.0,0.0,0.0,0.0,0.0,0.0,0.0,0.0,0.0,0.0,0.0,2.4602,2.332,2.2279,2.1512,2.1878,2.1731,2.1083,2.1799,2.2102,2.2006,2.2102,2.2102,2.1973,2.1541,2.0844,1.997,1.9423,1.8785,1.8042,1.7558,1.7378,1.7306,1.6786,1.662,1.6673,1.6302,1.6235,1.6243,1.5916,1.5799,0.0,0.0,0.0,0.0,1.437,1.4707,1.5214,1.4941,0.0,1.5556,0.0,1.5334,1.4048,0.0,0.0,1.0668,0.0,0.0,0.0,0.0,0.0,0.0,0.0,0.0,0.0,0.0,0.0,0.0,0.0,0.0,0.0,0.0,0.0,0.0,0.0,0.0,0.0,0.0,-1.831,-1.9441,-2.0323,-2.0119,-2.0,-2.0,-1.959,-1.915,-1.873,-2.0898,-2.264,-2.4148,-2.5603,-2.6314,-2.6314,-2.6452,-2.6533,-2.6533,-2.6533,-2.6533,-2.6533,-2.6533,-2.6533,-2.6533,-2.6533,-2.6533,-2.6533,0.0,0.0,0.0,0.0,0.0,0.0,0.0,0.0,0.0,0.0,0.0,0.0,0.0,0.0,0.0,0.0,0.0,0.0,0.0,0.0,0.0,2.3062,2.2044,2.1438,2.1368,2.1579,2.172,2.1815,2.2136,2.231,2.231,2.231,2.231,2.2265,2.1541,2.0653,1.9664,1.8926,1.8099,1.7233,1.7071,1.7467,1.8013,1.6933,1.6979,1.7441,1.6391,1.602,1.5946,1.5534,1.5402,1.5329,1.4906,0.0,0.0,0.0,1.3857,1.3818,1.3842,1.4551,1.5249,0.0,1.4359,1.3402,1.2305,0.0,0.0,0.0,0.0,0.0,0.0,0.0,0.0,0.0,0.0,0.0,0.0,0.0,0.0,0.0,0.0,0.0,0.0,0.0,0.0,0.0,0.0,0.0,-1.8238,-1.9274,-2.0079,-2.0566,-2.0137,-1.9912,-1.9912,-1.9258,-1.9174,-1.9737,-2.1417,-2.3003,-2.459,-2.5927,-2.6533,-2.6533,-2.6533,-2.6533,-2.6533,-2.6533,-2.6533,-2.6533,-2.6533,-2.6533,-2.6533,-2.6533,-2.6533,-2.6533,0.0,0.0,0.0,0.0,0.0,0.0,0.0,0.0,0.0,0.0,0.0,0.0,0.0,0.0,0.0,0.0,0.0,0.0,0.0,0.0,0.0,2.2218,2.1368,2.1078,2.1474,2.1479,2.1765,2.231,2.231,2.231,2.231,2.231,2.2231,2.2085,2.1161,2.0185,1.9161,1.836,1.7526,1.6824,1.706,1.774,1.853,1.7542,1.7746,1.84,1.684,1.6228,1.602,1.5329,1.5037,1.487,1.4475,1.4127,0.0,0.0,0.0,1.26,1.3248,0.0,1.4237,1.3616,1.3138,1.2385,0.0,0.0,0.0,0.0,0.0,0.0,0.0,0.0,0.0,0.0,0.0,0.0,0.0,0.0,0.0,0.0,0.0,0.0,0.0,0.0,0.0,0.0,0.0,0.0,-1.9045,-2.0001,-2.0566,-2.0566,-2.0039,-1.9756,-1.9756,-1.911,-1.9375,-2.0602,-2.1922,-2.3301,-2.4858,-2.5963,-2.6533,-2.6533,-2.6533,-2.6533,-2.6533,-2.6533,-2.6533,-2.6533,-2.6533,-2.6533,-2.6533,-2.6533,-2.6533,-2.6533,0.0,0.0,0.0,0.0,0.0,0.0,0.0,0.0,0.0,0.0,0.0,0.0,2.892,2.8883,2.8865,2.8865,2.7887,2.6778,2.5642,2.4534,2.3876,2.3891,2.2799,0.0,2.2231,2.2231,2.2248,2.231,2.231,2.231,2.231,2.231,2.204,2.1575,2.0184,1.9173,1.8393,1.7338,1.6848,1.6864,1.7783,1.8181,1.831,1.9169,1.9561,1.945,1.8095,1.7366,1.6824,1.5534,1.4868,1.4464,1.4054,1.3912,1.3736,0.0,0.0,0.0,0.0,1.2554,0.0,1.2795,1.1476,1.0251,0.0,0.0,0.0,0.0,0.0,0.0,0.0,0.0,0.0,0.0,0.0,0.0,0.0,0.0,0.0,0.0,0.0,0.0,0.0,0.0,0.0,0.0,0.0,0.0,-1.9036,-2.0001,-2.0566,-2.0566,-1.9756,-1.9316,-1.9316,-1.9267,-1.9715,-2.0602,-2.2531,-2.3923,-2.4858,-2.5963,-2.6533,-2.6533,-2.6533,-2.6533,-2.6533,-2.6533,-2.6533,-2.6533,-2.6533,-2.6533,-2.6533,-2.6533,-2.6533,-2.6533,0.0,0.0,0.0,0.0,0.0,0.0,0.0,0.0,0.0,0.0,0.0,0.0,0.0,2.8187,2.7812,2.7606,2.6099,2.5009,2.4597,2.3528,2.2907,2.2893,2.2511,2.231,2.231,2.231,2.2085,2.1591,2.1591,2.1334,2.0827,2.0605,2.0151,1.9523,1.9521,1.9085,1.8329,1.7036,1.6361,1.6243,1.7426,1.8396,1.9128,1.8616,1.9224,0.0,0.0,0.0,0.0,1.6007,1.5092,1.3977,1.3245,1.302,1.2871,1.2178,1.215,1.2211,0.0,0.0,0.0,1.0888,1.0288,0.9665,0.0,0.0,0.0,0.0,0.0,0.0,0.0,0.0,0.0,0.0,0.0,0.0,0.0,0.0,0.0,0.0,0.0,0.0,0.0,0.0,0.0,0.0,0.0,0.0,-2.0079,-2.0401,-2.0566,-2.0566,-1.9736,-1.9023,-1.8477,-1.9008,-1.9759,-2.0602,-2.2596,-2.3989,-2.4858,-2.5963,-2.6533,-2.6533,-2.6533,-2.6533,-2.6533,-2.6533,-2.6533,-2.6533,-2.6533,-2.6533,-2.6533,-2.6533,-2.6533,-2.6533,0.0,0.0,0.0,0.0,0.0,0.0,0.0,0.0,0.0,2.8994,0.0,0.0,0.0,0.0,2.6608,2.5907,2.4726,2.3832,2.3458,2.272,2.231,2.231,2.231,2.231,2.231,2.204,2.1687,2.1194,2.0918,2.0464,1.9837,1.9601,1.9126,1.8403,1.8682,1.8385,1.7624,1.6585,1.6005,1.5931,1.7457,1.8456,1.8976,1.8628,0.0,0.0,0.0,0.0,0.0,0.0,0.0,0.0,1.3032,1.2472,1.2207,1.1949,1.1917,0.0,1.1177,0.0,0.0,0.0,0.0,0.8731,0.0,0.0,0.0,0.0,0.0,0.0,0.0,0.0,0.0,0.0,0.0,0.0,0.0,0.0,0.0,0.0,0.0,0.0,0.0,0.0,0.0,0.0,0.0,0.0,-2.0566,-2.0566,-2.043,-2.0146,-1.958,-1.8877,-1.8018,-1.8844,-1.9759,-2.0602,-2.2355,-2.3753,-2.4858,-2.5762,-2.6276,-2.6533,-2.6533,-2.6533,-2.6533,-2.6533,-2.6533,-2.6533,-2.6533,-2.6533,-2.6533,-2.6533,-2.6533,-2.6533,0.0,0.0,0.0,0.0,0.0,0.0,0.0,0.0,2.8957,2.8957,0.0,0.0,0.0,0.0,0.0,2.4077,2.3954,2.3476,2.2372,2.231,2.231,2.231,2.2265,2.2265,2.2265,2.1541,2.1144,2.1122,2.035,1.9767,1.9401,1.9395,1.9026,1.8324,1.7653,1.6959,1.6243,1.5946,1.5799,1.599,0.0,1.8372,1.7904,0.0,0.0,0.0,1.9015,1.8311,0.0,1.7088,0.0,0.0,0.0,0.0,0.0,0.0,0.0,0.0,0.0,0.0,0.0,0.0,0.0,0.0,0.0,0.0,0.0,0.0,0.0,0.0,0.0,0.0,0.0,0.0,0.0,0.0,0.0,0.0,0.0,0.0,0.0,0.0,0.0,0.0,0.0,0.0,0.0,-2.0566,-2.0566,-2.0566,-2.0166,-1.9316,-1.9287,-1.8877,-1.8018,-1.8911,-1.9748,-2.0602,-2.2092,-2.349,-2.4845,-2.5372,-2.5925,-2.6533,-2.6533,-2.6533,-2.6533,-2.6533,-2.6533,-2.6533,-2.6533,-2.6533,-2.6533,-2.6533,-2.6533,-2.6533,0.0,0.0,0.0,0.0,0.0,0.0,2.8994,2.8507,2.8132,0.0,0.0,0.0,2.6027,2.4885,2.3766,2.285,2.2781,2.263,2.2327,2.231,2.231,2.231,2.1782,2.1496,2.1496,2.0732,1.994,1.9171,1.8938,1.8404,1.7535,1.73,1.707,1.6868,1.6435,1.6138,1.5931,1.5857,1.5799,1.599,1.7987,1.8664,0.0,0.0,0.0,0.0,0.0,1.922,1.7509,0.0,1.629,1.3103,0.0,0.0,1.1275,0.0,0.0,0.0,1.0861,0.0,0.0,0.0,0.0,0.0,0.0,0.0,0.0,0.0,0.0,0.0,0.0,0.0,0.0,0.0,0.0,0.0,0.0,0.0,0.0,0.0,0.0,0.0,0.0,0.0,0.0,0.0,-2.045,-2.0566,-2.0566,-2.0566,-2.0166,-1.9316,-1.9287,-1.8877,-1.8018,-1.9497,-2.0333,-2.0602,-2.3063,-2.44,-2.4858,-2.5799,-2.637,-2.6533,-2.6533,-2.6533,-2.6533,-2.6533,-2.6533,-2.6533,-2.6533,-2.6533,-2.6533,-2.6533,-2.6533,-2.6533,0.0,0.0,0.0,0.0,0.0,2.8994,2.8994,2.8187,2.7579,0.0,0.0,0.0,2.4405,2.3519,2.2779,2.2344,2.231,2.231,2.231,2.2006,2.1832,2.1832,2.1128,2.0627,2.0483,1.9747,1.8959,1.8189,1.788,1.7337,1.6593,1.6385,1.6228,1.6079,1.5887,1.5799,1.5799,1.5593,0.0,0.0,1.7684,0.0,0.0,1.9433,1.9779,0.0,0.0,0.0,1.7455,1.8653,1.6423,0.0,0.0,0.0,0.0,0.0,0.0,1.1011,1.0861,1.0091,0.0,0.0,0.0,0.0,0.6265,0.584,0.0,0.0,0.0,0.0,0.0,0.0,0.0,0.0,0.0,0.0,0.0,0.0,0.0,0.0,0.0,0.0,0.0,0.0,0.0,0.0,-2.0517,-2.0566,-2.0566,-2.0566,-2.0166,-1.9316,-1.9287,-1.8877,-1.8018,-1.9163,-2.0171,-2.0969,-2.2768,-2.4164,-2.5172,-2.5799,-2.6239,-2.6533,-2.6533,-2.6533,-2.6533,-2.6533,-2.6533,-2.6533,-2.6533,-2.6533,-2.6533,-2.6533,-2.6533,-2.6533,0.0,0.0,2.8883,2.8883,2.8883,2.8883,2.8938,2.7944,2.7141,0.0,2.5419,2.3817,2.2771,2.2361,2.2198,2.2198,2.2102,2.204,2.204,2.1384,2.1011,2.1011,2.0207,1.962,1.9326,1.8597,1.8057,1.7736,1.7076,1.6585,1.6243,1.6243,1.6094,1.5799,1.5799,1.5784,1.5681,0.0,0.0,1.5921,1.7082,1.7215,0.0,0.0,1.8111,1.7193,1.8912,1.8613,1.7455,1.8007,1.6374,0.0,0.0,0.0,0.0,0.0,1.1425,1.0771,1.0689,0.9775,0.8626,0.0,0.0,0.0,0.633,0.5858,0.4979,0.0,0.0,0.0,0.0,0.0,0.0,0.0,0.0,0.0,0.0,0.0,0.0,0.0,0.0,0.0,0.0,0.0,-1.7661,-1.9766,-2.034,-2.0566,-2.0566,-2.0566,-2.0195,-1.9385,-1.9307,-1.8968,-1.8222,-1.8586,-1.9717,-2.1529,-2.2004,-2.3393,-2.5598,-2.5661,-2.5975,-2.6533,-2.6533,-2.6533,-2.6533,-2.6533,-2.6533,-2.6533,-2.6533,-2.6533,-2.6533,-2.6533,-2.6533,-2.6533,0.0,2.8017,2.8017,2.8017,2.8017,2.815,2.8471,2.7268,2.6231,2.587,2.4226,2.2865,2.2434,2.1799,2.1401,2.1401,2.0827,2.0449,2.0449,2.0057,1.983,1.9829,1.885,1.8272,1.8206,1.7478,1.6933,1.6604,1.6489,1.6228,1.5887,1.5887,1.5857,1.5799,1.5799,1.5593,1.5241,0.0,0.0,1.6042,1.5965,0.0,1.6439,1.8033,1.8681,1.8785,1.9922,1.926,1.7635,1.6049,1.5124,1.4369,0.0,0.0,0.0,0.0,0.0,0.0,0.0,0.0,0.0,0.0,0.0,0.0,0.5835,0.5546,0.5294,0.0,0.0,0.0,0.0,0.0,0.0,0.0,0.0,0.0,0.0,0.0,0.0,0.0,0.0,0.0,0.0,0.0,-1.7077,-1.9727,-2.034,-2.0566,-2.0566,-2.0566,-2.0332,-1.9805,-1.9463,-1.9382,-1.9514,-1.9596,-2.0582,-2.2468,-2.3344,-2.4386,-2.5611,-2.6076,-2.642,-2.6533,-2.6533,-2.6533,-2.6533,-2.6533,-2.6533,-2.6533,-2.6533,-2.6533,-2.6533,-2.6533,-2.6533,-2.6533,2.7268,2.7207,2.7209,2.7209,2.7204,2.7268,2.7474,2.6232,2.5177,2.4975,2.3511,2.231,2.1799,2.1429,2.1021,2.0637,2.0221,2.0002,2.0002,1.9336,1.8942,1.895,1.7918,1.7258,1.711,1.6756,1.6376,1.6064,1.6064,1.5946,1.5799,1.5799,1.599,1.6287,1.571,1.5519,0.0,0.0,1.4684,1.5046,1.558,0.0,1.7024,1.814,1.8497,1.855,1.9318,1.8927,1.7745,1.6233,1.5394,0.0,0.0,1.2807,1.2165,0.0,1.1,1.0592,0.0,0.0,0.0,0.7453,0.0,0.0,0.0,0.5243,0.5027,0.0,0.0,0.0,0.0,0.0,0.0,0.0,0.0,0.0,0.0,0.0,0.0,0.0,0.0,0.0,0.0,0.0,-1.6946,-1.9701,-2.0293,-2.0566,-2.0566,-2.0566,-2.0361,-1.9922,-1.9707,-1.9813,-2.0327,-2.0547,-2.1622,-2.349,-2.4232,-2.5111,-2.6038,-2.6327,-2.6533,-2.6533,-2.6533,-2.6533,-2.6533,-2.6533,-2.6533,-2.6533,-2.6533,-2.6533,-2.6533,-2.6533,-2.6533,-2.6533,2.634,2.6379,2.6357,2.6357,2.6374,2.6376,2.6395,2.526,2.4313,2.4041,2.3249,2.2491,2.1894,2.1837,2.1636,2.1126,2.0585,2.0239,2.0112,1.9001,1.8343,1.8365,1.7215,1.66,1.6585,1.6317,1.6079,1.5799,1.5799,1.5799,1.5799,1.5799,1.6035,1.6437,1.573,1.5503,1.5593,0.0,0.0,1.428,0.0,1.6218,1.7008,1.7684,1.7719,1.7559,1.825,1.8183,1.7648,1.6856,0.0,1.4947,1.3907,1.3155,0.0,0.0,0.0,0.0,0.0,0.0,0.0,0.0,0.0,0.6133,0.0,0.0,0.0,0.0,0.0,0.0,0.0,0.0,0.0,0.0,0.0,0.0,0.0,0.0,0.0,0.0,0.0,0.0,0.0,0.0,-1.6925,-1.9568,-2.0039,-2.0303,-2.0557,-2.0566,-2.0361,-1.9922,-1.9912,-2.028,-2.1037,-2.1269,-2.2479,-2.4526,-2.4883,-2.5511,-2.6533,-2.6533,-2.6533,-2.6533,-2.6533,-2.6533,-2.6533,-2.6533,-2.6533,-2.6533,-2.6533,-2.6533,-2.6533,-2.6533,-2.6533,-2.6533,2.5407,2.5538,2.554,2.554,2.5538,2.5556,2.5611,2.4935,2.3952,2.272,2.3528,2.4229,2.4132,0.0,0.0,2.4919,0.0,0.0,2.0568,0.0,1.8218,1.8229,1.6734,1.6435,1.7517,1.6435,1.5857,1.5799,1.5799,1.5799,1.5799,1.5799,1.5607,1.5345,1.6213,0.0,0.0,0.0,1.5263,0.0,1.4684,1.4425,0.0,1.5476,1.6097,1.6548,1.7642,1.7483,1.676,0.0,1.5545,1.3893,0.0,1.2385,1.2114,0.0,0.0,0.0,0.0,0.0,0.0,0.0,0.6112,0.0,0.0,0.0,0.0,0.0,0.0,0.0,0.0,0.0,0.0,0.0,0.0,0.0,0.0,0.0,0.0,0.0,0.0,0.0,0.0,0.0,0.0,-1.9185,-1.9043,-1.9355,-2.0508,-2.0566,-2.0361,-1.9922,-1.9912,-2.0563,-2.184,-2.1546,-2.2764,-2.5465,-2.5175,-2.5511,-2.6533,-2.6533,-2.6533,-2.6533,-2.6533,-2.6533,-2.6533,-2.6533,-2.6533,-2.6533,-2.6533,-2.6533,-2.6533,-2.6533,-2.6533,-2.6533,2.4818,2.4707,2.4707,2.4707,2.454,2.4411,2.4448,2.3894,2.3195,2.2411,2.283,2.3059,0.0,0.0,0.0,0.0,0.0,2.0188,0.0,0.0,1.7872,1.7138,1.6275,1.6041,1.6586,1.6435,1.6317,1.6317,1.6719,1.6899,1.6899,1.6585,1.6569,1.6754,1.6585,0.0,1.531,0.0,1.5462,0.0,0.0,0.0,0.0,1.5333,1.6326,1.7012,1.7744,1.7387,1.6497,0.0,1.4744,0.0,0.0,0.0,0.0,0.0,0.0,0.0,0.0,0.0,0.0,0.0,0.0,0.0,0.4688,0.0,0.4076,0.0,0.0,0.0,0.0,0.0,0.0,0.0,0.0,0.0,0.0,0.0,0.0,0.0,0.0,0.0,0.0,0.0,0.0,0.0,0.0,-1.9727,-2.0527,-2.0566,-2.0361,-1.9922,-2.0156,-2.1025,-2.2484,-2.2606,-2.3787,-2.6101,-2.5983,-2.6094,-2.6533,-2.6533,-2.6533,-2.6533,-2.6533,-2.6533,-2.6533,-2.6533,-2.6533,-2.6533,-2.6533,-2.6533,-2.6533,-2.6533,-2.6533,-2.6533,2.5084,2.485,2.4818,2.4707,2.4485,2.4258,2.4082,2.343,2.2796,0.0,0.0,0.0,2.1862,2.1911,0.0,0.0,2.1622,2.0944,0.0,0.0,1.8355,1.782,1.65,0.0,0.0,1.684,1.6801,1.6969,1.7471,1.7716,1.77,1.7166,1.7115,1.7522,0.0,1.6271,1.5855,0.0,1.5545,1.4157,1.4941,1.4904,1.4535,1.5703,1.6645,1.7396,1.7561,1.702,1.6109,1.5138,1.395,0.0,1.1917,0.0,0.0,0.0,0.0,0.0,0.7864,0.0,0.0,0.0,0.0,0.0,0.0,0.0,0.0,0.0,0.0,0.0,0.0,0.0,0.0,0.0,0.0,0.0,0.0,0.0,0.0,0.0,0.0,0.0,0.0,0.0,0.0,0.0,-1.8672,0.0,-2.0185,-2.0322,-2.0185,-1.9756,-2.0156,-2.1049,-2.2452,-2.3072,-2.4258,-2.6094,-2.6383,-2.6533,-2.6533,-2.6533,-2.6533,-2.6533,-2.6533,-2.6533,-2.6533,-2.6533,-2.6533,-2.6533,-2.6533,-2.6533,-2.6533,-2.6533,-2.6533,-2.6533,2.6545,2.6523,2.6413,2.6004,2.593,2.5719,2.5067,0.0,0.0,0.0,0.0,0.0,0.0,0.0,0.0,0.0,0.0,2.4719,2.3507,0.0,2.0217,2.1454,1.7856,1.7295,0.0,0.0,1.7012,1.7663,1.7677,1.7713,1.7677,1.7142,1.6696,1.6371,1.6923,1.624,1.4749,1.5827,1.5742,1.4882,1.4908,1.5363,1.6058,0.0,1.6698,1.73,1.6847,0.0,0.0,1.4263,1.333,0.0,0.0,0.0,0.0,0.0,0.0,0.0,0.0,0.0,0.0,0.5606,0.0,0.0,0.0,0.0,0.4477,0.0,0.0,0.0,0.0,0.0,0.0,-0.4477,0.0,0.0,0.0,0.0,0.0,0.0,0.0,0.0,0.0,0.0,0.0,-1.7278,-1.7461,-1.8008,-1.9258,-1.9717,-1.9746,-1.9316,-1.9717,-2.0436,-2.1429,-2.2463,-2.3649,-2.5087,-2.6025,-2.6533,-2.6533,-2.6533,-2.6533,-2.6533,-2.6533,-2.6533,-2.6533,-2.6533,-2.6533,-2.6533,-2.6533,-2.6533,-2.6533,-2.6533,-2.6533,-2.6533,2.8187,2.8191,2.7717,0.0,0.0,0.0,0.0,2.3207,0.0,0.0,0.0,0.0,0.0,2.4883,2.4929,0.0,0.0,2.3683,2.2395,2.0688,0.0,0.0,0.0,1.732,0.0,0.0,0.0,0.0,0.0,1.8825,1.8477,1.7935,1.7424,1.6969,0.0,1.6647,0.0,0.0,0.0,0.0,0.0,1.4854,1.4866,0.0,0.0,1.6406,1.6233,1.5314,0.0,1.3836,1.2889,1.1668,1.0834,1.0113,0.9406,0.8433,0.7969,0.0,0.0,0.0,0.6445,0.5156,0.0,0.0,0.0,0.0,0.0,0.0,0.0,0.0,0.0,0.0,0.0,-0.4353,0.0,0.0,0.0,0.0,0.0,0.0,0.0,0.0,0.0,0.0,0.0,-1.59,-1.7379,-1.8398,0.0,-1.9268,-1.9297,-1.8867,-1.9541,-2.0286,-2.0986,-2.2523,-2.3876,-2.5004,-2.6025,-2.6533,-2.6533,-2.6533,-2.6533,-2.6533,-2.6533,-2.6533,-2.6533,-2.6533,-2.6533,-2.6533,-2.6533,-2.6533,-2.6533,-2.6533,-2.6533,-2.6533,2.8187,0.0,0.0,0.0,0.0,0.0,0.0,0.0,0.0,0.0,2.3613,0.0,2.4957,0.0,2.4271,0.0,2.4068,2.3301,2.1802,2.0883,0.0,2.0417,1.8712,0.0,0.0,0.0,0.0,0.0,0.0,1.9241,1.8891,1.8139,1.7612,1.7282,0.0,1.6683,1.6051,0.0,1.6369,0.0,0.0,1.4723,0.0,0.0,1.5278,1.5033,0.0,1.4283,1.3491,1.3145,1.2218,1.1064,1.0495,0.9508,0.844,0.7867,0.7382,0.6979,0.6342,0.6436,0.0,0.4157,0.4305,0.0,0.4574,0.0,0.0,0.0,0.0,0.0,0.0,0.0,0.0,-0.5178,-0.493,0.0,0.0,0.0,0.0,0.0,0.0,0.0,0.0,0.0,-1.4022,-1.4872,-1.6618,-1.7861,0.0,0.0,-1.8926,-1.8582,-1.9326,-1.9915,-2.0504,-2.2379,-2.372,-2.448,-2.5873,-2.6533,-2.6533,-2.6533,-2.6533,-2.6533,-2.6533,-2.6533,-2.6533,-2.6533,-2.6533,-2.6533,-2.6533,-2.6533,-2.6533,-2.6533,-2.6533,-2.6533,0.0,0.0,0.0,0.0,2.5432,0.0,0.0,0.0,2.3511,0.0,2.3125,2.3031,2.3879,2.4154,2.4311,2.4305,2.4489,0.0,2.1903,2.1743,0.0,0.0,2.0472,2.0647,2.2593,0.0,0.0,0.0,0.0,0.0,1.8856,1.7787,1.7282,1.7256,1.6739,0.0,1.5996,1.5977,1.58,1.541,1.541,1.4877,1.4156,1.4138,0.0,1.3374,1.2991,1.3046,1.3068,1.2204,1.1396,1.0654,0.9633,0.8633,0.7626,0.6581,0.6338,0.618,0.586,0.574,0.514,0.2675,0.0,0.0,0.0,0.0,0.2249,0.0,0.0,0.0,0.0,0.0,0.0,0.0,-0.5637,0.0,0.0,0.0,0.0,0.0,0.0,0.0,0.0,-1.1974,-1.2905,-1.4042,-1.5264,-1.6416,0.0,0.0,0.0,-1.8603,-1.9053,-1.9482,-1.9883,-2.1876,-2.3066,-2.3514,-2.5499,-2.6465,-2.6533,-2.6533,-2.6533,-2.6533,-2.6533,-2.6533,-2.6533,-2.6533,-2.6533,-2.6533,-2.6533,-2.6533,-2.6533,-2.6533,-2.6533,-2.6533,2.6329,2.5338,2.4566,0.0,2.4156,2.368,0.0,0.0,0.0,0.0,2.5687,2.6147,2.6488,2.622,2.5595,2.4581,2.4549,0.0,0.0,0.0,0.0,2.3055,2.1407,2.0926,2.1931,2.0579,0.0,1.9948,0.0,0.0,1.8303,1.7636,1.7106,1.6683,0.0,0.0,1.5996,1.5977,1.58,1.541,1.541,1.4501,0.0,0.0,1.2478,1.1399,1.2412,1.2527,1.2284,1.2175,1.1556,1.0621,0.9651,0.8625,0.7626,0.6581,0.6338,0.6261,0.618,0.6142,0.5221,0.1493,-0.0302,-0.0871,0.0,0.0,0.0,0.0,0.0,0.0,0.0,0.0,0.0,0.0,0.0,0.0,0.0,0.0,0.0,0.0,0.0,0.0,0.0,-1.1531,-1.2059,-1.2761,-1.399,-1.5087,0.0,0.0,0.0,-1.8135,-1.8896,-1.9336,-1.9443,-2.1302,-2.2657,-2.3514,-2.4779,-2.5804,-2.6533,-2.6533,-2.6533,-2.6533,-2.6533,-2.6533,-2.6533,-2.6533,-2.6533,-2.6533,-2.6533,-2.6533,-2.6533,-2.6533,-2.6533,-2.6533,2.5188,0.0,0.0,2.3283,0.0,0.0,2.4361,0.0,0.0,2.6054,2.5983,0.0,2.6468,2.605,2.5423,2.4678,2.4334,0.0,2.2847,0.0,0.0,2.2758,2.2265,2.2004,2.2105,2.1171,0.0,1.9788,0.0,0.0,1.7735,1.72,1.6807,1.6522,0.0,1.6237,1.5712,1.5592,1.5255,1.4809,1.4877,0.0,0.0,1.2577,1.165,1.0694,1.1643,1.1855,1.1655,1.1348,1.0739,0.9988,0.8928,0.7953,0.7061,0.65,0.6338,0.6106,0.5174,0.5599,0.53,0.1021,-0.2281,-0.4256,-0.3448,-0.3156,-0.3351,0.0,0.0,0.0,0.0,0.0,0.0,0.0,0.0,0.0,0.0,0.0,0.0,0.0,0.0,0.0,0.0,-1.0894,-1.1186,-1.1963,-1.2851,-1.3823,0.0,0.0,0.0,-1.7422,-1.8457,-1.9092,-1.9287,-2.1387,-2.2791,-2.3514,-2.4992,-2.5943,-2.6533,-2.6533,-2.6533,-2.6533,-2.6533,-2.6533,-2.6533,-2.6533,-2.6533,-2.6533,-2.6533,-2.6533,-2.6533,-2.6533,-2.6533,-2.6533,0.0,0.0,0.0,0.0,0.0,0.0,0.0,2.4367,0.0,2.6622,0.0,2.4611,2.5125,2.4851,2.4557,2.4468,0.0,2.3111,2.2004,2.2978,2.3096,2.1989,2.2949,2.3198,2.2585,2.1827,0.0,0.0,0.0,0.0,1.7282,1.6751,1.6522,1.6522,0.0,0.0,0.0,1.4966,1.4554,1.4118,1.4194,1.3664,1.2797,1.2088,1.1284,1.0624,1.0701,1.0981,1.1046,1.0217,0.9564,0.8926,0.8047,0.7142,0.6338,0.6338,0.6338,0.5873,0.4012,0.4499,0.458,0.0943,-0.299,-0.593,-0.6271,-0.6338,-0.6338,-0.6338,-0.7061,0.0,0.0,0.0,0.0,0.0,0.0,0.0,0.0,0.0,0.0,0.0,0.0,0.0,0.0,0.0,-1.0391,-1.1344,-1.1802,0.0,0.0,0.0,0.0,-1.6875,-1.8086,0.0,-1.9495,0.0,-2.3111,-2.3745,-2.5499,-2.6383,-2.6533,-2.6533,-2.6533,-2.6533,-2.6533,-2.6533,-2.6533,-2.6533,-2.6533,-2.6533,-2.6533,-2.6533,-2.6533,-2.6533,-2.6533,-2.6533,0.0,0.0,0.0,0.0,0.0,2.6031,2.73,2.7853,2.7882,2.7318,2.7074,2.6362,2.4889,2.4637,2.4364,2.3816,2.3683,0.0,0.0,0.0,0.0,2.3286,2.2993,2.2555,2.1888,2.082,1.9902,0.0,0.0,0.0,1.7282,1.6751,1.6522,0.0,0.0,0.0,1.5201,1.4542,0.0,1.4194,1.4194,1.3322,1.2002,1.1825,1.1284,1.0485,0.9844,0.9823,1.0192,1.0294,0.9306,0.8056,0.7859,0.7142,0.6338,0.6338,0.6338,0.6193,0.5849,0.3467,0.0943,0.0157,-0.1808,-0.4093,-0.5876,-0.6338,-0.6338,-0.6338,-0.7064,-0.7727,-0.7676,0.0,0.0,0.0,0.0,0.0,0.0,0.0,0.0,0.0,0.0,0.0,0.0,0.0,0.0,0.0,0.0,0.0,0.0,0.0,0.0,0.0,0.0,0.0,0.0,0.0,0.0,-2.4707,-2.5075,-2.5734,-2.6533,-2.6533,-2.6533,-2.6533,-2.6533,-2.6533,-2.6533,-2.6533,-2.6533,-2.6533,-2.6533,-2.6533,-2.6533,-2.6533,-2.6533,-2.6533,0.0,0.0,0.0,0.0,0.0,0.0,0.0,2.9637,0.0,2.8022,2.6693,2.5373,2.4061,2.4023,2.3934,2.361,2.3595,2.3595,2.3595,2.3595,2.3477,2.3169,2.2861,0.0,2.1267,2.0688,1.9811,1.8597,0.0,0.0,0.0,1.6615,0.0,1.6052,0.0,1.4752,0.0,0.0,0.0,1.3494,1.3082,1.2476,1.1721,1.1347,1.0631,0.9844,0.9427,0.889,0.8382,0.8524,0.8174,0.7545,0.7061,0.6581,0.6338,0.6338,0.5482,0.487,0.6018,0.3229,-0.055,-0.2753,-0.3149,-0.3694,-0.5796,-0.6338,-0.6468,-0.6988,-0.7912,-0.8635,-0.8873,-0.892,0.0,0.0,0.0,0.0,0.0,0.0,0.0,0.0,0.0,0.0,0.0,0.0,0.0,0.0,0.0,0.0,0.0,0.0,0.0,0.0,0.0,0.0,0.0,0.0,0.0,-2.5016,-2.5511,-2.6025,-2.6533,-2.6533,-2.6533,-2.6533,-2.6533,-2.6533,-2.6533,-2.6533,-2.6533,-2.6533,-2.6533,-2.6533,-2.6533,-2.6533,-2.6533,-2.6533,0.0,2.338,0.0,0.0,2.8198,0.0,2.9881,3.0279,2.9983,2.8348,2.5924,2.4111,2.3419,2.3507,2.3595,2.3595,2.3595,2.3595,2.3595,2.3492,2.3198,2.2701,2.2453,2.1838,2.0836,2.0682,1.9875,0.0,0.0,0.0,0.0,0.0,0.0,0.0,0.0,0.0,0.0,0.0,1.3193,1.2644,1.2026,1.1714,1.1495,1.0841,1.0059,0.9289,0.9076,0.8117,0.6831,0.6664,0.6847,0.7025,0.622,0.6099,0.6261,0.6261,0.5101,0.3942,0.4739,0.2518,-0.1021,-0.5221,-0.5053,-0.424,-0.5951,-0.6338,-0.6597,-0.762,-0.8744,-0.9813,-1.0491,-1.0485,0.0,0.0,0.0,0.0,0.0,0.0,0.0,0.0,0.0,0.0,0.0,0.0,0.0,0.0,0.0,0.0,0.0,0.0,0.0,0.0,0.0,-1.9113,-2.0797,0.0,-2.3697,0.0,-2.6094,-2.6533,-2.6533,-2.6533,-2.6533,-2.6533,-2.6533,-2.6533,-2.6533,-2.6533,-2.6533,-2.6533,-2.6533,-2.6533,-2.6533,-2.6533,-2.6533,-2.6533,0.0,0.0,0.0,0.0,0.0,0.0,0.0,2.9703,2.9889,2.7921,2.5879,2.4334,2.3668,2.3595,2.3595,2.3595,2.3595,2.3595,2.3595,2.3081,2.2774,2.2687,2.1616,2.0938,2.0785,2.0168,1.9556,0.0,0.0,0.0,0.0,0.0,0.0,0.0,0.0,0.0,0.0,1.3185,1.2538,1.1921,1.184,1.1354,1.0701,1.0624,1.0059,0.918,0.838,0.7494,0.661,0.5773,0.5723,0.5964,0.6009,0.6018,0.6099,0.6261,0.6142,0.5218,0.1572,0.0314,-0.1021,-0.5221,-0.6146,-0.6028,-0.6261,-0.6338,-0.6597,-0.762,-0.9295,-1.0795,-1.1199,-1.2381,-1.3172,0.0,0.0,0.0,0.0,0.0,0.0,0.0,0.0,0.0,0.0,0.0,0.0,0.0,0.0,0.0,0.0,0.0,0.0,-1.6626,0.0,-1.8582,-2.0873,-2.2229,0.0,-2.6383,-2.6452,-2.6533,-2.6533,-2.6533,-2.6533,-2.6533,-2.6533,-2.6533,-2.6533,-2.6533,-2.6533,-2.6533,-2.6533,-2.6533,-2.6533,-2.6533,-2.6533,-2.6533,0.0,0.0,0.0,0.0,0.0,0.0,0.0,2.9023,2.8123,2.6474,2.5316,2.4334,2.3683,2.3595,2.3595,2.3595,2.3595,2.3595,2.3595,2.3051,2.2539,2.2118,2.1242,2.0605,2.0233,1.9964,1.9544,0.0,0.0,0.0,0.0,0.0,0.0,0.0,0.0,1.384,1.32,1.3055,1.2515,1.1784,1.1277,1.0911,1.0555,0.999,0.9283,0.8419,0.7564,0.6668,0.5841,0.5498,0.5498,0.5681,0.579,0.5892,0.6028,0.6224,0.6329,0.5381,0.1178,-0.1887,-0.3857,-0.4309,-0.5321,-0.6338,-0.6338,-0.6338,-0.6773,-0.8403,-1.0302,-1.1931,-1.2649,-1.3033,-1.3648,0.0,0.0,0.0,0.0,0.0,0.0,0.0,0.0,0.0,0.0,0.0,0.0,0.0,0.0,0.0,0.0,0.0,0.0,-1.6699,0.0,-2.0172,-2.1212,-2.2511,-2.3919,-2.5473,-2.5473,-2.5473,-2.5473,-2.5473,-2.5649,-2.5963,-2.6314,-2.6533,-2.6533,-2.6533,-2.6533,-2.6533,-2.6533,-2.6533,-2.6533,-2.6533,-2.6533,-2.6533,2.9242,0.0,2.8793,0.0,3.0359,2.9583,2.9468,2.829,2.6773,2.509,2.4541,2.4126,2.3668,2.3595,2.3595,2.3595,2.3595,2.3595,2.3595,2.2861,2.2175,2.1716,2.0952,0.0,1.9811,1.9798,1.962,1.9265,1.7946,0.0,0.0,0.0,0.0,0.0,1.44,1.3821,1.2923,1.2701,1.216,1.1417,1.0841,1.0478,1.0129,0.956,0.8573,0.756,0.6894,0.6117,0.5428,0.5428,0.5495,0.5564,0.5634,0.5415,0.5176,0.6015,0.5381,0.3545,-0.0707,-0.4023,-0.593,-0.4448,-0.5148,-0.6338,-0.6338,-0.6567,-0.7318,-0.9321,-1.1143,-1.2586,-1.3556,-1.3654,-1.4138,-1.5928,0.0,0.0,0.0,0.0,0.0,0.0,-1.5659,-1.5529,-1.573,0.0,0.0,0.0,0.0,0.0,0.0,0.0,0.0,0.0,0.0,0.0,0.0,-2.2526,-2.3688,-2.482,-2.482,-2.482,-2.4833,-2.4971,-2.5247,-2.5624,-2.6214,-2.6533,-2.6533,-2.6533,-2.6533,-2.6533,-2.6533,-2.6533,-2.6533,-2.6533,-2.6533,-2.6533,2.8857,2.8984,2.9447,3.0942,3.1207,3.0349,2.7811,2.7436,2.6504,2.3967,2.361,2.361,2.3595,2.3595,2.3595,2.3595,2.3595,2.3595,2.3595,2.2395,2.1693,0.0,0.0,1.9811,1.9798,1.9798,1.9798,1.9798,0.0,0.0,1.7035,0.0,1.4063,1.483,1.3517,1.2947,1.2932,1.2174,1.1347,1.0624,1.0624,1.0059,0.9289,0.9283,0.8205,0.6734,0.6672,0.6117,0.5428,0.5428,0.5428,0.5428,0.5634,0.4342,0.3228,0.562,0.3308,-0.0864,-0.5059,-0.6267,-0.6332,-0.6274,-0.6261,-0.6338,-0.6338,-0.7099,-0.8385,-1.0335,-1.162,-1.2592,-1.3528,-1.4506,-1.5171,-1.5209,0.0,0.0,0.0,0.0,0.0,0.0,-1.5791,-1.6331,-1.6941,0.0,0.0,0.0,0.0,0.0,0.0,0.0,0.0,-1.9242,-1.9324,0.0,-2.1379,-2.2265,-2.3401,-2.482,-2.482,-2.482,-2.4845,-2.536,-2.5586,-2.5624,-2.6214,-2.6533,-2.6533,-2.6533,-2.6533,-2.6533,-2.6533,-2.6533,-2.6533,-2.6533,-2.6533,-2.6533,3.0443,3.0079,2.9884,3.0367,2.9572,2.8492,2.7369,2.6459,2.546,2.4301,2.3816,2.3595,2.3595,2.3595,2.3595,0.0,2.3595,2.3595,0.0,2.2395,2.1693,2.1703,2.0502,1.9798,1.9798,1.9798,1.9544,1.9037,0.0,0.0,0.0,1.4484,1.4415,1.5187,1.4203,1.3459,1.2964,1.2148,1.1347,1.0555,0.9983,0.956,0.9168,0.7962,0.7166,0.6602,0.6047,0.5634,0.5428,0.5428,0.5428,0.5435,0.5476,0.5029,0.4182,0.2518,-0.1021,-0.458,-0.5943,-0.6318,-0.6285,-0.6268,-0.6338,-0.6338,-0.6338,-0.7629,-0.9221,-1.0565,-1.162,-1.2806,-1.445,-1.4996,-1.5624,-1.6932,0.0,0.0,0.0,0.0,0.0,0.0,-1.7174,-1.735,0.0,-1.7855,0.0,0.0,0.0,0.0,0.0,0.0,0.0,0.0,-2.0997,0.0,-2.1738,-2.2592,-2.317,-2.3616,-2.3616,-2.3616,-2.3629,-2.4255,-2.4707,-2.5096,-2.5636,-2.6101,-2.6533,-2.6533,-2.6533,-2.6533,-2.6533,-2.6533,-2.6533,-2.6533,-2.6533,-2.6533,3.0054,2.9556,2.9143,2.8852,2.8031,2.7182,2.6505,2.5702,2.4915,2.4215,2.3816,2.3595,2.3595,2.3595,0.0,2.3595,2.3595,2.3492,2.3286,2.2279,2.1591,2.1353,2.0348,1.9798,1.9798,0.0,0.0,1.8697,1.7474,1.6269,1.51,1.4732,1.4723,1.4887,1.4118,1.3296,1.253,1.1714,1.1059,1.0548,0.9636,0.9076,0.863,0.7245,0.6531,0.6117,0.5568,0.5428,0.5428,0.5428,0.5376,0.5399,0.5369,0.3545,0.119,0.0297,-0.2984,-0.6264,-0.6322,-0.6288,-0.6338,-0.6338,-0.6338,-0.649,-0.7253,-0.8685,-1.0115,-1.1168,-1.1848,-1.2872,-1.4807,-1.5234,-1.5799,-1.7725,0.0,-1.8008,-1.8008,0.0,0.0,0.0,0.0,0.0,0.0,-1.8885,0.0,0.0,0.0,0.0,0.0,0.0,0.0,-2.0724,-2.2272,0.0,-2.2384,-2.2823,-2.3078,-2.3078,-2.3078,-2.3078,-2.309,-2.3728,-2.4192,-2.4556,-2.5285,-2.5799,-2.6151,-2.6445,-2.6533,-2.6533,-2.6533,-2.6533,-2.6533,-2.6533,-2.6533,-2.6533,2.8031,2.7759,0.0,0.0,2.6708,0.0,2.5363,2.5178,2.478,2.3728,2.3595,2.3595,2.3595,2.3595,2.3595,2.3595,0.0,0.0,0.0,2.2004,2.1393,2.0797,2.0156,1.9798,1.9798,1.9734,1.9339,1.8538,1.7121,1.6055,1.541,1.5342,1.4945,1.4185,1.3293,1.2526,1.1721,1.0918,1.0555,1.0415,0.956,0.8683,0.7792,0.695,0.6117,0.5428,0.5428,0.5428,0.5362,0.5229,0.5266,0.5309,0.4824,-0.0,-0.4763,-0.1429,-0.3227,-0.6257,-0.6278,-0.6338,-0.6338,-0.6338,-0.6338,-0.6949,-0.8846,-1.0115,-1.1087,-1.2077,-1.2305,-1.2872,-1.4807,-1.5234,-1.5799,-1.7725,-1.8008,-1.8008,-1.8008,0.0,0.0,0.0,0.0,0.0,0.0,-1.9817,-2.022,0.0,0.0,0.0,0.0,0.0,-2.0617,-2.304,-2.3078,-2.3078,-2.3078,-2.3078,-2.3078,-2.3078,-2.3078,-2.3078,-2.309,-2.369,-2.3979,-2.4117,-2.5109,-2.5586,-2.5699,-2.6239,-2.6533,-2.6533,-2.6533,-2.6533,-2.6533,-2.6533,-2.6533,-2.6533,0.0,0.0,2.7589,2.6826,2.686,2.659,2.538,2.4854,2.4349,2.3698,2.3595,2.3595,2.3595,2.3595,2.3595,2.3595,2.3183,2.2861,2.2701,2.1627,2.0957,2.0836,2.0156,1.9798,1.9798,1.9265,1.8295,1.7027,1.6128,1.5566,1.541,1.479,1.4357,1.4145,1.2724,1.1947,1.1721,1.0918,1.0199,0.956,0.8661,0.7782,0.688,0.6047,0.5564,0.5428,0.5428,0.5428,0.5163,0.3837,0.4263,0.4411,-0.1079,-0.3999,-0.5326,-0.4933,-0.5443,-0.6094,-0.6274,-0.6338,-0.6338,-0.6338,-0.6872,-0.7783,-0.8998,-1.0115,-1.1087,-1.2077,-1.2305,-1.2872,-1.4807,-1.5234,-1.5799,-1.7725,-1.8008,-1.8008,-1.8008,-1.793,0.0,0.0,-1.8996,-1.9188,-2.1494,-2.0827,-2.0225,0.0,0.0,0.0,0.0,0.0,-2.1971,-2.3065,-2.3078,-2.3078,-2.3078,-2.3078,-2.3078,-2.3078,-2.3078,-2.3078,-2.3078,-2.3276,-2.3816,-2.4644,-2.4895,-2.5473,-2.6264,-2.6471,-2.6533,-2.6533,-2.6533,-2.6533,-2.6533,-2.6533,-2.6533,-2.6533,2.7267,2.7521,2.7504,2.6557,2.6772,2.6605,2.5062,2.4585,2.4215,2.3683,2.3595,2.3595,2.3595,2.3595,2.3492,2.3198,2.2891,2.2556,2.224,2.1362,2.0682,2.0348,1.9989,1.9633,1.929,1.8924,1.7974,1.6516,1.5732,1.541,1.541,1.4578,1.4019,1.3623,1.2367,1.1573,1.1206,1.0771,1.0123,0.9225,0.8377,0.747,0.6602,0.5704,0.5428,0.5428,0.5428,0.5428,0.5233,0.426,0.352,0.1957,-0.3657,-0.543,-0.5474,-0.5875,-0.6016,-0.6058,-0.6109,-0.6257,-0.6338,-0.6338,-0.7042,-0.8043,-0.9079,-1.0115,-1.1087,-1.2077,-1.2305,-1.2872,-1.4807,-1.5234,-1.5799,-1.7725,-1.7686,-1.7559,-1.7959,-1.7676,0.0,-2.0342,-1.9973,-2.0364,-2.2437,-2.2281,-2.1955,-2.1765,0.0,0.0,-2.3071,-2.349,-2.3691,-2.354,-2.3527,-2.3401,-2.3078,-2.3078,-2.3078,-2.3078,-2.3078,-2.3078,-2.3078,-2.3078,-2.3615,-2.4456,-2.4707,-2.5297,-2.6088,-2.642,-2.6533,-2.6533,-2.6533,-2.6533,-2.6533,-2.6533,-2.6533,-2.6533,2.7998,2.8065,2.7741,2.6383,2.6706,2.6521,2.4664,2.4334,2.4126,2.3683,2.3595,2.3595,2.3595,2.3595,2.3374,2.2759,2.26,2.2249,2.1599,2.0978,2.0412,1.9811,1.9798,1.9455,1.8697,1.8498,1.7696,1.6348,1.5722,1.5342,1.5187,1.4415,1.3571,1.2767,1.2011,1.1206,1.0624,1.0624,0.999,0.9029,0.8325,0.7371,0.6394,0.5701,0.5428,0.5428,0.5428,0.5229,0.504,0.5292,0.2975,-0.0607,-0.3931,-0.5202,-0.5428,-0.5634,-0.5796,-0.5987,-0.5996,-0.618,-0.6338,-0.6338,-0.7134,-0.8231,-0.9089,-1.0196,-1.1242,-1.215,-1.2305,-1.2879,-1.4665,-1.5092,-1.5764,-1.7339,-1.7174,-1.7129,-1.7734,0.0,-1.7813,-2.0298,-2.059,-2.1227,-2.2944,-2.3665,-2.4029,-2.4117,-2.5034,0.0,0.0,-2.5485,-2.5272,-2.4268,-2.4079,-2.3715,-2.3078,-2.3078,-2.3078,-2.3078,-2.3078,-2.3078,-2.3078,-2.3078,-2.3452,-2.4029,-2.4582,-2.5109,-2.5636,-2.6214,-2.6533,-2.6533,-2.6533,-2.6533,-2.6533,-2.6533,-2.6533,-2.6533,2.8922,2.9315,2.9162,2.7257,2.7179,2.6667,2.4704,2.4023,2.3698,2.361,2.3595,2.3595,2.3595,2.3595,2.3374,2.2759,2.2164,2.1605,2.0965,2.0335,1.99,1.9798,1.9798,1.9455,1.8697,1.7479,1.6409,1.5566,1.5488,1.5032,1.4347,1.3535,1.2759,1.194,1.1136,1.0701,1.0624,1.0624,0.9699,0.8202,0.8043,0.7021,0.5568,0.5428,0.5428,0.5428,0.5428,0.4434,0.3377,0.4892,0.2975,-0.0337,-0.2432,-0.4175,-0.5428,-0.5564,-0.5706,-0.5828,-0.5967,-0.618,-0.6338,-0.6338,-0.7731,-0.9123,-0.9266,-1.0749,-1.2077,-1.2305,-1.2305,-1.2659,-1.3745,-1.4593,-1.5314,-1.5683,-1.6864,-1.7607,-1.7012,0.0,-1.8502,-2.0386,-2.059,-2.1227,-2.2944,-2.3665,-2.4192,-2.4657,-2.5259,-2.5774,-2.6189,-2.6345,-2.6025,-2.5372,-2.4469,-2.3715,-2.3078,-2.3078,-2.3078,-2.3078,-2.3078,-2.3078,-2.3078,-2.3078,-2.3452,-2.4029,-2.4582,-2.5109,-2.5636,-2.6214,-2.6533,-2.6533,-2.6533,-2.6533,-2.6533,-2.6533,-2.6533,-2.6533,2.9658,2.9593,2.91,2.7486,2.7029,2.6373,2.4765,2.4008,2.3595,2.3595,2.3595,2.3595,2.3595,2.3595,2.3198,2.2265,2.1856,2.1263,2.0335,1.9977,1.9798,1.9798,1.9798,1.9275,1.8111,1.6686,1.5732,1.541,1.541,1.5187,1.4809,1.3588,1.2825,1.2388,1.1136,1.0624,1.0555,1.0123,0.9144,0.7932,0.7484,0.6531,0.5428,0.5428,0.5428,0.5428,0.5428,0.4849,0.3999,0.284,0.1349,-0.0337,-0.2161,-0.3969,-0.5428,-0.5564,-0.5731,-0.5978,-0.6106,-0.6257,-0.6419,-0.6979,-0.7791,-0.8751,-0.9857,-1.0818,-1.162,-1.2224,-1.2305,-1.2732,-1.4235,-1.4879,-1.5547,-1.6578,-1.7081,0.0,0.0,-1.7735,-1.8624,-2.0395,-2.1037,-2.1922,-2.3442,-2.4117,-2.4657,-2.5197,-2.5749,-2.6176,-2.6508,-2.6533,-2.6189,-2.5611,-2.4556,-2.3715,-2.3078,-2.3078,-2.3078,-2.3078,-2.3078,-2.3078,-2.3078,-2.3078,-2.3615,-2.4456,-2.4707,-2.5297,-2.6088,-2.642,-2.6533,-2.6533,-2.6533,-2.6533,-2.6533,-2.6533,-2.6533,-2.6533,3.037,2.9861,2.9062,2.7766,2.7095,2.624,2.4798,2.4141,2.3786,2.361,2.3595,2.3595,2.3595,2.3477,2.2949,2.1802,2.1561,2.0991,1.9888,1.9798,1.9798,1.9798,1.9455,1.8768,1.7636,1.6133,1.541,1.541,1.541,1.5332,1.5119,1.3683,1.2907,1.268,1.1206,1.0485,1.0268,0.9566,0.8695,0.7668,0.6951,0.6184,0.5428,0.5428,0.5428,0.5362,0.4897,0.4791,0.4274,0.1079,-0.0337,-0.0944,-0.2364,-0.4038,-0.5498,-0.5634,-0.5861,-0.6099,-0.6261,-0.6338,-0.6578,-0.7545,-0.7995,-0.859,-1.0404,-1.0944,-1.1391,-1.215,-1.2305,-1.2806,-1.4522,-1.5021,-1.5668,-1.7109,0.0,0.0,0.0,-1.8063,-1.888,-2.0437,-2.1365,-2.2478,-2.3879,-2.4506,-2.5034,-2.5548,-2.6138,-2.6533,-2.6533,-2.6533,-2.6138,-2.5435,-2.4494,-2.3791,-2.3339,-2.314,-2.3078,-2.3078,-2.3078,-2.3078,-2.3078,-2.3078,-2.3616,-2.4644,-2.477,-2.5372,-2.6264,-2.6471,-2.6533,-2.6533,-2.6533,-2.6533,-2.6533,-2.6533,-2.6533,-2.6533,3.114,3.0611,2.9815,2.8521,2.781,2.6778,2.4906,2.4557,2.4319,2.3683,2.3595,2.3595,2.3595,2.3096,2.2483,2.1773,2.1191,2.054,1.9875,1.9798,1.9798,1.9798,1.8509,1.7699,1.7625,1.6133,1.541,1.541,1.541,1.5032,1.4271,1.3377,1.2595,1.1862,1.0989,1.0129,0.9421,0.9352,0.8318,0.6788,0.6734,0.6184,0.5428,0.5428,0.5428,0.5163,0.3504,0.2905,0.2636,0.0674,-0.1281,-0.2907,-0.3044,-0.4311,-0.5774,-0.5911,-0.6083,-0.6261,-0.6261,-0.6338,-0.6578,-0.7545,-0.8486,-0.9469,-1.0512,-1.1489,-1.2224,-1.2298,-1.2305,-1.2592,-1.36,-1.4593,-1.5289,-1.5462,0.0,0.0,-1.6934,-1.8206,-1.9543,-2.0515,-2.1365,-2.2478,-2.3879,-2.4506,-2.5034,-2.5548,-2.6138,-2.6533,-2.6533,-2.6533,-2.5975,-2.4908,-2.4305,-2.3979,-2.3941,-2.3401,-2.3078,-2.3078,-2.3078,-2.3078,-2.3078,-2.3078,-2.3477,-2.4092,-2.4594,-2.5146,-2.5699,-2.6239,-2.6533,-2.6533,-2.6533,-2.6533,-2.6533,-2.6533,-2.6533,-2.6533,3.119,3.0404,2.9575,2.9079,2.7876,2.6564,2.5387,2.5213,2.4811,2.3728,2.3934,2.3919,2.3111,2.2861,2.2291,2.1247,2.0933,2.0515,1.9823,1.9798,1.962,1.9125,1.812,1.7371,1.6911,1.5898,1.541,1.541,1.541,1.4964,1.4194,1.3383,1.2546,1.1784,1.0982,1.0129,0.9295,0.8705,0.778,0.6668,0.6117,0.5704,0.5428,0.5428,0.5428,0.5296,0.4631,0.2958,0.0539,-0.2772,-0.4411,-0.4824,-0.352,-0.4372,-0.5918,-0.5991,-0.6156,-0.6338,-0.6338,-0.6338,-0.6662,-0.8358,-0.9039,-0.9696,-1.139,-1.205,-1.2305,-1.2305,-1.2305,-1.2806,-1.4307,-1.495,-1.5564,-1.6805,0.0,-1.7891,-1.7568,-1.8507,-1.9628,-2.0526,-2.1644,-2.2974,-2.438,-2.4996,-2.5536,-2.6088,-2.6339,-2.6533,-2.6533,-2.6533,-2.6264,-2.585,-2.4423,-2.3636,-2.3464,-2.2739,-2.2628,-2.3078,-2.3078,-2.3078,-2.3078,-2.3502,-2.3979,-2.4544,-2.5071,-2.5611,-2.6151,-2.6433,-2.6533,-2.6533,-2.6533,-2.6533,-2.6533,-2.6533,-2.6533,-2.6533,3.0965,3.0107,2.9353,2.9159,2.7906,2.6686,2.6002,2.5893,2.5431,2.4088,2.4312,2.4111,2.2861,2.2494,2.1977,2.0913,2.0605,2.0271,1.9811,1.9798,1.9455,1.8709,1.7762,1.7027,1.6506,1.58,1.541,1.541,1.5177,1.4732,1.4194,1.3118,1.2318,1.1721,1.0694,0.9705,0.8816,0.7967,0.7087,0.6254,0.5634,0.5428,0.5428,0.5428,0.5428,0.5428,0.5382,0.3837,0.0877,-0.4481,-0.6287,-0.6022,-0.455,-0.5052,-0.6099,-0.6099,-0.618,-0.6342,-0.6662,-0.674,-0.7142,-0.8855,-0.9528,-1.0251,-1.189,-1.2305,-1.2305,-1.2305,-1.2305,-1.2872,-1.4807,-1.5234,-1.5799,-1.7725,-1.8008,-1.8008,-1.8008,-1.8721,-1.9681,-2.0738,-2.1975,-2.3325,-2.4931,-2.5385,-2.5837,-2.6483,-2.6533,-2.6533,-2.6533,-2.6533,-2.6445,-2.6189,-2.4451,-2.3345,-2.296,-2.2023,-2.2051,-2.3078,-2.2823,-2.2884,-2.309,-2.3728,-2.4305,-2.4845,-2.5372,-2.5925,-2.6533,-2.6533,-2.6533,-2.6533,-2.6533,-2.6533,-2.6533,-2.6533,-2.6533,-2.6533,3.0421,2.9811,2.9188,2.859,2.8017,2.739,2.6701,2.6596,2.6136,2.4776,2.4591,2.4126,2.2847,2.2083,2.1445,2.0862,2.0168,1.9798,1.9798,1.9798,1.9455,1.8697,1.7267,1.6516,1.6516,1.58,1.541,1.541,1.4578,1.4203,1.4145,1.2522,1.1792,1.1714,1.0053,0.8799,0.7927,0.7064,0.6184,0.5428,0.5428,0.5428,0.5428,0.5428,0.5362,0.5369,0.5426,0.5383,0.4141,-0.3662,-0.6299,-0.6257,-0.6281,-0.6338,-0.6338,-0.6338,-0.6338,-0.65,-0.7545,-0.7785,-0.803,-0.9092,-1.0095,-1.1064,-1.2057,-1.2305,-1.2305,-1.2305,-1.2298,-1.2872,-1.4807,-1.5234,-1.5799,-1.7725,-1.8008,-1.8008,-1.8008,-1.8721,-1.9799,-2.1263,-2.2197,-2.347,-2.5419,-2.5598,-2.5837,-2.6483,-2.6533,-2.6533,-2.6533,-2.6533,-2.6201,-2.5624,-2.4256,-2.3263,-2.2738,-2.1289,-2.1416,-2.3065,-2.2249,-2.2322,-2.309,-2.3728,-2.4305,-2.4845,-2.5372,-2.5925,-2.6533,-2.6533,-2.6533,-2.6533,-2.6533,-2.6533,-2.6533,-2.6533,-2.6533,-2.6533,3.0421,2.9816,2.9201,2.8591,2.8017,2.739,2.6701,2.6995,2.6647,2.4869,2.5014,2.4453,2.2265,2.1801,2.1263,2.0168,1.99,1.9798,1.9798,1.8848,1.8184,1.7946,1.7512,1.6774,1.5732,1.5498,1.5109,1.4569,1.4338,1.3595,1.253,1.1999,1.1495,1.0911,0.9775,0.8837,0.7967,0.7061,0.6184,0.5428,0.5428,0.5428,0.5428,0.5428,0.4634,0.3641,0.4956,0.3768,0.1053,-0.2789,-0.4083,-0.4332,-0.5799,-0.6338,-0.6338,-0.6338,-0.6338,-0.6342,-0.6659,-0.7744,-0.911,-1.0082,-1.0576,-1.1064,-1.2057,-1.2305,-1.2305,-1.2305,-1.2788,-1.3675,-1.4925,-1.572,-1.6576,-1.7794,-1.8008,-1.8008,-1.8008,-1.8458,-1.9425,-2.1163,-2.2275,-2.3591,-2.5428,-2.5963,-2.6345,-2.6508,-2.6533,-2.6533,-2.6533,-2.6533,-2.6445,-2.6214,-2.4463,-2.3706,-2.4171,-2.1795,-2.1164,-2.2261,-2.2002,-2.2322,-2.309,-2.3728,-2.4305,-2.4845,-2.5372,-2.5925,-2.6533,-2.6533,-2.6533,-2.6533,-2.6533,-2.6533,-2.6533,-2.6533,-2.6533,-2.6533,3.0107,2.9646,2.9138,2.8283,2.7861,2.7434,2.706,2.7324,2.695,2.5214,2.5347,2.4587,2.1989,2.1698,2.1172,1.99,1.9798,1.9697,1.9379,1.8521,1.7752,1.72,1.7148,1.6605,1.542,1.51,1.4713,1.4194,1.3544,1.2728,1.1792,1.1495,1.1059,1.0555,0.9699,0.8812,0.7935,0.7087,0.6184,0.5428,0.5428,0.5428,0.5498,0.5428,0.43,0.272,0.3122,0.187,-0.0314,-0.2359,-0.3694,-0.4628,-0.587,-0.6338,-0.6338,-0.6338,-0.6581,-0.6979,-0.7382,-0.8646,-1.0099,-1.1101,-1.139,-1.1556,-1.2137,-1.2305,-1.2305,-1.2305,-1.3078,-1.4016,-1.5018,-1.5974,-1.6922,-1.7872,-1.8008,-1.8066,-1.8232,-1.8477,-1.9434,-2.172,-2.2509,-2.3723,-2.5777,-2.6319,-2.6533,-2.6533,-2.6533,-2.6533,-2.6533,-2.6533,-2.6533,-2.6533,-2.4895,-2.412,-2.4263,-2.2209,-2.1553,-2.2384,-2.2279,-2.2638,-2.3502,-2.428,-2.4808,-2.5159,-2.5699,-2.6138,-2.6533,-2.6533,-2.6533,-2.6533,-2.6533,-2.6533,-2.6533,-2.6533,-2.6533,-2.6533,2.9688,2.938,2.8946,2.7876,2.764,2.7625,2.7625,2.7625,2.714,2.577,2.5574,2.4646,2.2076,2.1712,2.1172,1.9989,1.9811,1.9467,1.8785,1.8666,1.8032,1.6643,1.6526,1.6201,1.5498,1.4732,1.4308,1.4159,1.2677,1.1862,1.1714,1.0918,1.0624,1.0555,0.9629,0.8731,0.7971,0.7008,0.6117,0.5428,0.5428,0.5498,0.5572,0.549,0.4365,0.2709,0.0685,-0.0236,-0.0786,-0.2518,-0.4553,-0.6338,-0.6338,-0.6338,-0.6338,-0.6338,-0.6983,-0.8026,-0.8904,-0.9967,-1.0988,-1.1974,-1.2218,-1.2305,-1.2305,-1.2305,-1.2298,-1.2432,-1.3201,-1.4157,-1.5171,-1.6079,-1.7001,-1.7862,-1.8047,-1.8193,-1.8584,-1.8701,-1.9728,-2.2555,-2.2913,-2.3897,-2.6264,-2.6533,-2.6533,-2.6533,-2.6533,-2.6533,-2.6533,-2.6533,-2.6533,-2.6533,-2.5385,-2.4406,-2.3634,-2.254,-2.2347,-2.3092,-2.2817,-2.3159,-2.4104,-2.5084,-2.5548,-2.5624,-2.6101,-2.6433,-2.6533,-2.6471,-2.6483,-2.6533,-2.6533,-2.6533,-2.6533,-2.6533,-2.6533,-2.6533,3.0141,2.9348,2.8632,2.8364,2.7906,2.7625,2.7625,2.7625,2.714,2.577,2.5559,2.475,2.2657,2.1952,2.1328,2.0592,1.9888,1.9443,1.9278,1.8432,1.7851,1.7498,1.6942,1.6595,1.6437,1.5956,1.5043,1.3746,1.3375,1.2388,1.0841,1.0694,1.0624,1.0555,0.9075,0.8276,0.793,0.6535,0.5771,0.5428,0.5634,0.5634,0.548,0.5659,0.5324,0.4375,0.1169,-0.2123,-0.4739,-0.3545,-0.4553,-0.6338,-0.6338,-0.6338,-0.6338,-0.6338,-0.6983,-0.7829,-0.8103,-0.9399,-1.084,-1.1083,-1.1723,-1.2305,-1.2305,-1.2305,-1.2485,-1.3222,-1.4205,-1.5138,-1.6114,-1.7051,-1.7794,-1.794,-1.8281,-1.8535,-1.8623,-1.9209,-2.0417,-2.2633,-2.3205,-2.4209,-2.6302,-2.6533,-2.6533,-2.6533,-2.6533,-2.6533,-2.6533,-2.6533,-2.6533,-2.6533,-2.5385,-2.4691,-2.4536,-2.3381,-2.285,-2.2814,-2.2731,-2.3353,-2.4644,-2.4883,-2.5209,-2.5573,-2.5297,-2.5674,-2.6496,-2.5963,-2.605,-2.6533,-2.6533,-2.6533,-2.6533,-2.6533,-2.6533,-2.6533,2.9967,2.9358,2.8746,2.8171,2.7795,2.7625,2.7625,2.7625,2.725,2.622,2.5757,2.4867,2.3243,2.243,2.1732,2.1147,2.0258,1.9612,1.9304,1.8339,1.7665,1.7259,1.6908,1.6578,1.6321,1.6084,1.5223,1.3614,1.2908,1.194,1.0771,1.0918,1.0701,1.0199,0.9358,0.8504,0.7543,0.6772,0.6093,0.5616,0.5688,0.5744,0.5679,0.5622,0.568,0.5059,-0.0864,-0.442,-0.6103,-0.5034,-0.5404,-0.6338,-0.6338,-0.6338,-0.6419,-0.6898,-0.7708,-0.8625,-0.914,-1.0336,-1.155,-1.155,-1.189,-1.2305,-1.2305,-1.264,-1.3091,-1.3567,-1.4866,-1.6026,-1.6519,-1.7527,-1.8311,-1.8311,-1.8662,-1.9014,-1.9219,-1.9629,-2.071,-2.2895,-2.3369,-2.4325,-2.6314,-2.6533,-2.6533,-2.6533,-2.6533,-2.6533,-2.6533,-2.6533,-2.6395,-2.605,-2.5247,-2.4695,-2.4431,-2.3565,-2.3294,-2.3704,-2.3704,-2.4193,-2.5197,-2.5473,-2.5749,-2.5975,-2.5435,-2.5674,-2.6402,-2.5573,-2.5711,-2.6496,-2.6151,-2.6214,-2.6533,-2.6533,-2.6533,-2.6533,2.9722,2.9399,2.892,2.7929,2.767,2.7625,2.7625,2.7625,2.7375,2.6686,2.595,2.5024,2.3857,2.2942,2.2097,2.1362,2.057,1.9794,1.9039,1.8281,1.7561,1.6943,1.6934,1.6665,1.6061,1.5868,1.5085,1.3516,1.2297,1.1532,1.1077,1.13,1.0855,0.9906,0.9753,0.8754,0.7103,0.6978,0.6546,0.5819,0.5789,0.5669,0.5482,0.5523,0.5381,0.4182,-0.3545,-0.626,-0.6325,-0.6278,-0.6338,-0.6338,-0.6338,-0.6338,-0.65,-0.7467,-0.849,-0.954,-1.0496,-1.155,-1.2305,-1.2385,-1.2385,-1.2466,-1.2714,-1.3226,-1.379,-1.3976,-1.547,-1.677,-1.703,-1.8004,-1.8721,-1.8728,-1.9068,-1.9512,-1.9863,-1.998,-2.0883,-2.325,-2.3806,-2.4696,-2.6314,-2.6533,-2.6533,-2.6533,-2.6533,-2.6533,-2.6533,-2.6533,-2.6239,-2.5762,-2.5146,-2.4607,-2.4142,-2.3477,-2.3703,-2.482,-2.472,-2.5008,-2.5611,-2.6101,-2.6382,-2.6276,-2.5711,-2.5787,-2.6239,-2.5234,-2.541,-2.6276,-2.5887,-2.6038,-2.6533,-2.6533,-2.6533,-2.6533,3.0202,2.9316,2.859,2.8414,2.7936,2.7625,2.7625,2.7625,2.7375,2.6686,2.5912,2.5109,2.4393,2.3138,2.1812,2.05,2.004,1.9499,1.864,1.8193,1.792,1.7833,1.7833,1.7387,1.651,1.5686,1.4637,1.3346,1.3158,1.2447,1.1335,1.1414,1.0852,0.9908,0.9239,0.8232,0.7057,0.6569,0.6186,0.5854,0.6093,0.4955,0.3381,0.5378,0.3942,0.0236,-0.458,-0.6315,-0.6271,-0.6264,-0.6338,-0.6338,-0.6338,-0.6338,-0.65,-0.7467,-0.8514,-0.9511,-1.0512,-1.155,-1.2385,-1.264,-1.2721,-1.3058,-1.4177,-1.4088,-1.4053,-1.5231,-1.6338,-1.7474,-1.8741,-1.9113,-1.9206,-1.9222,-1.9538,-1.9853,-1.9902,-2.0244,-2.1237,-2.3294,-2.5063,-2.6233,-2.6452,-2.6533,-2.6533,-2.6533,-2.6533,-2.6533,-2.6533,-2.6533,-2.6496,-2.6352,-2.536,-2.4795,-2.4707,-2.3665,-2.3703,-2.4808,-2.4343,-2.4632,-2.5598,-2.5674,-2.5711,-2.5686,-2.5159,-2.5222,-2.5661,-2.5071,-2.5172,-2.5749,-2.6176,-2.6458,-2.6533,-2.6533,-2.6533,-2.6533,2.9934,2.9364,2.8789,2.8127,2.778,2.7625,2.7625,2.7625,2.75,2.7184,2.6126,2.5311,2.4992,2.3666,2.2333,2.126,2.0574,1.9889,1.8985,1.8368,1.8008,1.8008,1.8008,1.73,1.5822,1.5433,1.4355,1.2721,1.2756,1.236,1.1643,1.123,1.0501,0.9543,0.8641,0.7626,0.6659,0.6419,0.618,0.6099,0.6257,0.4937,0.2912,0.2833,0.165,-0.0393,-0.3467,-0.5268,-0.6338,-0.6338,-0.6338,-0.6338,-0.6338,-0.6662,-0.7305,-0.8358,-0.9458,-1.058,-1.1636,-1.2378,-1.2808,-1.2977,-1.3502,-1.4034,-1.467,-1.5413,-1.6187,-1.6853,-1.7741,-1.8531,-1.9191,-1.9469,-1.9639,-1.9613,-2.0029,-2.0273,-2.0273,-2.0439,-2.1308,-2.3294,-2.5276,-2.6533,-2.6533,-2.6533,-2.6533,-2.6533,-2.6533,-2.6533,-2.6533,-2.6533,-2.6176,-2.5561,-2.5071,-2.4519,-2.3891,-2.3703,-2.4017,-2.482,-2.4569,-2.5034,-2.6063,-2.5737,-2.5774,-2.605,-2.5498,-2.5573,-2.5988,-2.4833,-2.5034,-2.605,-2.5686,-2.5912,-2.6533,-2.6533,-2.6533,-2.6533]},{"header":{"parameterUnit":"m.s-1","parameterCategory":1,"la1":30.6,"la2":28.766,"lo1":-90.7593,"lo2":-88.6598,"dy":0.0162,"dx":0.0183,"nx":116,"ny":114,"refTime":"2023-04-05T12:00:00:Z","depth":0,"parameterNumber":3,"parameterNumberName":"V-component_of_WINDS"},"data":[0.0,0.0,0.0,0.0,0.0,0.0,0.0,0.0,0.0,0.0,0.0,0.0,0.0,0.0,0.0,0.0,0.0,0.0,0.0,0.0,0.0,0.0,0.0,0.0,0.0,0.0,0.0,0.0,0.0,0.0,0.0,0.0,0.0,0.0,0.0,0.0,0.0,0.0,0.0,0.0,0.0,0.0,0.0,0.0,0.0,0.0,0.0,0.0,0.0,0.0,0.0,0.0,0.0,0.0,0.0,0.0,0.0,0.0,0.0,0.0,0.0,0.0,0.0,0.0,0.0,0.0,0.0,0.0,0.0,0.0,0.0,0.0,0.0,0.0,0.0,0.0,0.0,0.0,0.0,0.0,0.0,0.0,0.0,0.0,0.0,0.0,0.0,0.0,0.0,0.0,0.0,0.0,0.0,0.0,0.0,0.0,0.0,0.0,0.0,0.0,0.0,0.0,0.0,0.0,0.0,0.0,0.0,0.0,0.0,0.0,0.0,0.0,0.0,0.0,0.0,0.0,0.0,0.0,0.0,0.0,0.0,0.0,0.0,0.0,0.0,0.0,0.0,0.0,0.0,0.0,0.0,0.0,0.0,0.0,0.0,0.0,0.0,0.0,0.0,0.0,0.0,0.0,0.0,0.0,0.0,0.0,0.0,0.0,0.0,0.0,0.0,0.0,0.0,0.0,0.0,0.0,0.0,0.0,0.0,0.0,0.0,0.0,0.0,0.0,0.0,0.0,0.0,0.0,0.0,0.0,0.0,0.0,0.0,0.0,0.0,0.0,0.0,0.0,0.0,0.0,0.0,0.0,0.0,0.0,0.0,0.0,0.0,0.0,0.0,0.0,0.0,0.0,0.0,0.0,0.0,0.0,0.0,0.0,0.0,0.0,0.0,0.0,0.0,0.0,0.0,0.0,0.0,0.0,0.0,0.0,0.0,0.0,0.0,0.0,0.0,0.0,0.0,0.0,0.0,0.0,0.0,0.0,0.0,0.0,0.0,0.0,0.0,0.0,0.0,0.0,0.0,0.0,0.0,0.0,0.0,0.0,0.0,0.0,0.0,0.0,0.0,0.0,0.0,0.0,0.0,0.0,0.0,0.0,0.0,0.0,0.0,0.0,0.0,0.0,0.0,0.0,0.0,0.0,0.0,0.0,0.0,0.0,0.0,0.0,0.0,0.0,0.0,0.0,0.0,0.0,0.0,0.0,0.0,0.0,0.0,0.0,0.0,0.0,0.0,0.0,0.0,0.0,0.0,0.0,0.0,0.0,0.0,0.0,0.0,0.0,0.0,0.0,0.0,0.0,0.0,0.0,0.0,0.0,0.0,0.0,0.0,0.0,0.0,0.0,0.0,0.0,0.0,0.0,0.0,0.0,0.0,0.0,0.0,0.0,0.0,0.0,0.0,0.0,0.0,0.0,0.0,0.0,0.0,0.0,0.0,0.0,0.0,0.0,0.0,0.0,0.0,0.0,0.0,0.0,0.0,0.0,0.0,0.0,0.0,0.0,0.0,0.0,0.0,0.0,0.0,0.0,0.0,0.0,0.0,0.0,0.0,0.0,0.0,0.0,0.0,0.0,0.0,0.0,0.0,0.0,0.0,0.0,0.0,0.0,0.0,0.0,0.0,0.0,0.0,0.0,0.0,0.0,0.0,0.0,0.0,0.0,0.0,0.0,0.0,0.0,0.0,0.0,0.0,0.0,0.0,0.0,0.0,0.0,0.0,0.0,0.0,0.0,0.0,0.0,0.0,0.0,0.0,0.0,0.0,0.0,0.0,0.0,0.0,0.0,0.0,0.0,0.0,0.0,0.0,0.0,0.0,0.0,0.0,0.0,0.0,0.0,0.0,0.0,0.0,0.0,0.0,0.0,0.0,0.0,0.0,0.0,0.0,0.0,0.0,0.0,0.0,0.0,0.0,0.0,0.0,0.0,0.0,0.0,0.0,0.0,0.0,0.0,0.0,0.0,0.0,0.0,0.0,0.0,0.0,0.0,0.0,0.0,0.0,0.0,0.0,0.0,0.0,0.0,0.0,0.0,0.0,0.0,0.0,0.0,0.0,0.0,0.0,0.0,0.0,0.0,0.0,0.0,0.0,0.0,0.0,0.0,0.0,0.0,0.0,0.0,0.0,0.0,0.0,0.0,0.0,0.0,0.0,0.0,0.0,0.0,0.0,0.0,0.0,0.0,0.0,0.0,0.0,0.0,0.0,0.0,0.0,0.0,0.0,0.0,0.0,0.0,0.0,0.0,0.0,0.0,0.0,0.0,0.0,0.0,0.0,0.0,0.0,0.0,0.0,0.0,0.0,0.0,0.0,0.0,0.0,0.0,0.0,0.0,0.0,0.0,0.0,0.0,0.0,0.0,0.0,0.0,0.0,0.0,0.0,0.0,0.0,0.0,0.0,0.0,0.0,0.0,0.0,0.0,0.0,0.0,0.0,0.0,0.0,0.0,0.0,0.0,0.0,0.0,0.0,0.0,0.0,0.0,0.0,0.0,0.0,0.0,0.0,0.0,0.0,0.0,0.0,0.0,0.0,0.0,0.0,0.0,0.0,0.0,0.0,0.0,0.0,0.0,0.0,0.0,0.0,0.0,0.0,0.0,0.0,0.0,0.0,0.0,0.0,0.0,0.0,0.0,0.0,0.0,0.0,0.0,0.0,0.0,0.0,0.0,0.0,0.0,0.0,0.0,0.0,0.0,0.0,0.0,0.0,0.0,0.0,0.0,0.0,0.0,0.0,0.0,0.0,0.0,0.0,0.0,0.0,0.0,0.0,0.0,0.0,0.0,0.0,0.0,0.0,0.0,0.0,0.0,0.0,0.0,0.0,0.0,0.0,0.0,0.0,0.0,0.0,0.0,0.0,0.0,0.0,0.0,0.0,0.0,0.0,0.0,0.0,0.0,0.0,0.0,0.0,0.0,0.0,0.0,0.0,0.0,0.0,0.0,0.0,0.0,0.0,0.0,0.0,0.0,0.0,0.0,0.0,0.0,0.0,0.0,0.0,0.0,0.0,0.0,0.0,0.0,0.0,0.0,0.0,0.0,0.0,0.0,0.0,0.0,0.0,0.0,0.0,0.0,0.0,0.0,0.0,0.0,0.0,0.0,0.0,0.0,0.0,0.0,0.0,0.0,0.0,0.0,0.0,0.0,0.0,0.0,0.0,0.0,0.0,0.0,0.0,0.0,0.0,0.0,0.0,0.0,0.0,0.0,0.0,0.0,0.0,0.0,0.0,0.0,0.0,0.0,0.0,0.0,0.0,0.0,0.0,0.0,0.0,0.0,0.0,0.0,0.0,0.0,0.0,0.0,0.0,0.0,0.0,0.0,0.0,0.0,0.0,0.0,0.0,0.0,0.0,0.0,0.0,0.0,0.0,0.0,0.0,0.0,0.0,0.0,0.0,0.0,0.0,0.0,0.0,0.0,0.0,0.0,0.0,0.0,0.0,0.0,0.0,0.0,0.0,0.0,0.0,0.0,0.0,0.0,0.0,0.0,0.0,0.0,0.0,0.0,0.0,0.0,0.0,0.0,0.0,0.0,0.0,0.0,0.0,0.0,0.0,0.0,0.0,0.0,0.0,0.0,0.0,0.0,0.0,0.0,0.0,0.0,0.0,0.0,0.0,0.0,0.0,0.0,0.0,0.0,0.0,0.0,0.0,0.0,0.0,0.0,0.0,0.0,0.0,0.0,0.0,0.0,0.0,0.0,0.0,0.0,0.0,0.0,0.0,0.0,0.0,0.0,0.0,0.0,0.0,0.0,0.0,0.0,0.0,0.0,0.0,0.0,0.0,0.0,0.0,0.0,0.0,0.0,0.0,0.0,0.0,0.0,0.0,0.0,0.0,0.0,0.0,0.0,0.0,0.0,0.0,0.0,0.0,0.0,0.0,0.0,0.0,0.0,0.0,0.0,0.0,0.0,0.0,0.0,0.0,0.0,0.0,0.0,0.0,0.0,0.0,0.0,0.0,0.0,0.0,0.0,0.0,0.0,0.0,0.0,0.0,0.0,0.0,0.0,0.0,0.0,0.0,0.0,0.0,0.0,0.0,0.0,0.0,0.0,0.0,0.0,0.0,0.0,0.0,0.0,0.0,0.0,0.0,0.0,0.0,0.0,0.0,0.0,0.0,0.0,0.0,0.0,0.0,0.0,0.0,0.0,0.0,0.0,0.0,0.0,0.0,0.0,0.0,0.0,0.0,0.0,0.0,0.0,0.0,0.0,0.0,0.0,0.0,0.0,0.0,0.0,0.0,0.0,0.0,0.0,0.0,0.0,0.0,0.0,0.0,0.0,0.0,0.0,0.0,0.0,0.0,0.0,0.0,0.0,0.0,0.0,0.0,0.0,0.0,0.0,0.0,0.0,0.0,0.0,0.0,0.0,0.0,0.0,0.0,0.0,0.0,0.0,0.0,0.0,0.0,0.0,0.0,0.0,0.0,0.0,0.0,0.0,0.0,0.0,0.0,0.0,0.0,0.0,0.0,0.0,0.0,0.0,0.0,0.0,0.0,0.0,0.0,0.0,0.0,0.0,0.0,0.0,0.0,0.0,0.0,0.0,0.0,0.0,0.0,0.0,0.0,0.0,0.0,0.0,0.0,0.0,0.0,0.0,0.0,0.0,0.0,0.0,0.0,0.0,0.0,0.0,0.0,0.0,0.0,0.0,0.0,0.0,0.0,0.0,0.0,0.0,0.0,0.0,0.0,0.0,0.0,0.0,0.0,0.0,0.0,0.0,0.0,0.0,0.0,0.0,0.0,0.0,0.0,0.0,0.0,0.0,0.0,0.0,0.0,0.0,0.0,0.0,0.0,0.0,0.0,0.0,0.0,0.0,0.0,0.0,0.0,0.0,0.0,0.0,0.0,0.0,0.0,0.0,0.0,0.0,0.0,0.0,0.0,0.0,0.0,0.0,0.0,0.0,0.0,0.0,0.0,0.0,0.0,0.0,0.0,0.0,0.0,0.0,0.0,0.0,0.0,0.0,0.0,0.0,0.0,0.0,0.0,0.0,0.0,0.0,0.0,0.0,0.0,0.0,0.0,0.0,0.0,0.0,0.0,0.0,0.0,0.0,0.0,0.0,0.0,0.0,0.0,0.0,0.0,0.0,0.0,0.0,0.0,0.0,0.0,0.0,0.0,0.0,0.0,0.0,0.0,0.0,0.0,0.0,0.0,0.0,0.0,0.0,0.0,0.0,0.0,0.0,0.0,0.0,0.0,0.0,0.0,0.0,0.0,0.0,0.0,0.0,0.0,0.0,0.0,0.0,0.0,0.0,0.0,0.0,0.0,0.0,0.0,0.0,0.0,0.0,0.0,0.0,0.0,0.0,0.0,0.0,0.0,0.0,0.0,0.0,0.0,0.0,0.0,0.0,0.0,0.0,0.0,0.0,0.0,0.0,0.0,0.0,0.0,0.0,0.0,0.0,0.0,0.0,0.0,0.0,0.0,0.0,0.0,0.0,0.0,0.0,0.0,0.0,0.0,0.0,0.0,0.0,0.0,0.0,0.0,0.0,0.0,0.0,0.0,0.0,0.0,0.0,0.0,0.0,0.0,0.0,0.0,0.0,0.0,0.0,0.0,0.0,0.0,0.0,0.0,0.0,0.0,0.0,0.0,0.0,0.0,0.0,0.0,0.0,0.0,0.0,0.0,0.0,0.0,0.0,0.0,0.0,0.0,0.0,0.0,0.0,0.0,0.0,0.0,0.0,0.0,0.0,0.0,0.0,0.0,0.0,0.0,0.0,0.0,0.0,0.0,0.0,0.0,0.0,0.0,0.0,0.0,0.0,0.0,0.0,0.0,0.0,0.0,0.0,0.0,0.0,0.0,0.0,0.0,0.0,0.0,0.0,0.0,0.0,0.0,0.0,0.0,0.0,0.0,0.0,0.0,0.0,0.0,0.0,0.0,0.0,0.0,0.0,0.0,0.0,0.0,0.0,0.0,0.0,0.0,0.0,0.0,0.0,0.0,0.0,0.0,0.0,0.0,0.0,0.0,0.0,0.0,0.0,0.0,0.0,0.0,0.0,0.0,0.0,0.0,0.0,0.0,0.0,0.0,0.0,0.0,0.0,0.0,0.0,0.0,0.0,0.0,0.0,0.0,0.0,0.6725,0.0,0.0,0.0,0.0,0.0,0.0,0.0,0.0,0.0,0.0,0.0,0.0,0.0,0.0,0.0,0.0,0.0,0.0,0.0,0.0,0.0,0.0,0.0,0.0,0.0,0.0,0.0,0.0,0.0,0.0,0.0,0.0,0.0,0.0,0.0,0.0,0.0,0.0,0.0,-0.6185,-0.6172,-0.618,-0.2012,0.0,0.0,0.0,0.0,0.0,0.0,0.0,0.0,0.0,0.0,0.0,0.0,0.0,0.0,0.0,0.0,0.0,0.0,0.0,0.0,0.0,0.0,0.0,0.0,0.0,0.0,0.0,0.0,0.0,0.0,0.0,0.0,0.0,0.0,0.0,0.0,0.0,0.0,0.0,0.0,0.0,0.0,0.0,0.0,0.0,0.0,0.0,0.0,0.0,0.0,0.0,0.0,0.0,0.0,0.0,0.0,0.0,0.0,0.0,0.0,0.0,0.0,0.0,0.0,0.0,0.0,0.0,0.0,0.0,0.0,0.0,0.0,0.0,0.7015,0.0,0.0,0.0,0.0,0.0,0.0,0.0,0.0,0.0,0.0,0.0,0.0,0.0,0.0,0.0,0.0,0.0,0.0,0.0,0.0,0.0,0.0,0.0,0.0,-0.9221,-0.9074,-0.7326,0.0,0.0,0.0,0.0,0.0,0.0,0.0,0.0,-0.6067,-0.6019,-0.6237,-0.6137,-0.6178,-0.6253,-0.1944,0.0,0.0,0.0,0.0,0.0,0.0,0.0,0.0,0.0,0.0,0.0,0.0,0.0,0.0,0.0,0.0,0.0,0.0,0.0,0.0,0.0,0.0,0.0,0.0,0.0,0.0,0.0,0.0,0.0,0.0,0.0,0.0,0.0,0.0,0.0,0.0,0.0,0.0,0.0,0.0,0.0,0.0,0.0,0.0,0.0,0.0,0.0,0.0,0.0,0.0,0.0,0.0,0.0,0.0,0.0,0.0,0.0,0.0,0.0,0.0,0.0,0.0,0.0,0.0,0.0,0.0,0.0,0.3414,0.5544,0.6248,0.6882,0.7492,0.7326,0.7519,0.7865,0.0,0.0,0.0,0.0,0.0,0.0,0.0,0.0,0.0,0.0,0.0,0.0,0.0,0.0,0.0,0.0,0.0,0.0,0.0,0.0,0.0,0.0,-0.997,-0.8917,-0.8089,-0.6945,-0.6338,0.0,0.0,0.0,0.0,0.0,0.0,-0.6061,-0.5911,-0.5888,-0.6064,-0.6156,-0.6247,-0.6213,-0.1988,0.0,0.0,0.0,0.0,0.0,0.0,0.0,0.0,0.0,0.0,0.0,0.0,0.0,0.0,0.0,0.0,0.0,0.0,0.0,0.0,0.0,0.0,0.0,0.0,0.0,0.0,0.0,0.0,0.0,0.0,0.0,0.0,0.0,0.0,0.0,0.0,0.0,0.0,0.0,0.0,0.0,0.0,0.0,0.0,0.0,0.0,0.0,0.0,0.0,0.0,0.0,0.0,0.0,0.0,0.0,0.0,0.0,0.0,0.0,0.0,0.0,0.0,-0.0084,0.0,0.0,0.0,0.0288,0.0492,0.0987,0.3351,0.5654,0.7925,0.7885,0.0,0.7691,0.7719,0.0,0.0,0.0,0.0,0.0,0.0,0.0,0.0,0.0,0.0,0.0,0.0,0.0,0.0,0.0,0.0,0.0,0.0,0.0,0.0,0.0,-0.9503,-0.8529,-0.8158,-0.7281,-0.6722,-0.6641,0.0,0.0,0.0,0.0,-0.5901,-0.5901,-0.578,-0.5738,-0.57,-0.3679,-0.2746,-0.2682,-0.0854,0.0,0.0,0.0,0.0,0.0,0.0,0.0,0.0,0.0,0.0,0.0,0.0,0.0,0.0,0.0,0.0,0.0,0.0,0.0,0.0,0.0,0.0,0.0,0.0,0.0,0.0,0.0,0.0,0.0,0.0,0.0,0.0,0.0,0.0,0.0,0.0,0.0,0.0,0.0,0.0,0.0,0.0,0.0,0.0,0.0,0.0,0.0,0.0,0.0,0.0,0.0,0.0,0.0,0.0,0.0,0.0,0.0,0.0,0.0,-0.7368,-0.7457,-0.6544,-0.4499,-0.2884,-0.2085,-0.2229,-0.226,-0.1492,0.0,0.1204,0.4019,0.7905,0.6453,0.5678,0.5674,0.7311,0.7681,0.6972,0.0,0.0,0.0,0.0,0.0,-2.921,0.0,0.0,0.0,0.0,0.0,0.0,0.0,0.0,0.0,0.0,0.0,0.0,-1.0526,-0.9209,-0.8279,-0.8076,-0.7508,-0.7061,-0.6881,-0.662,0.0,0.0,-0.5847,-0.5745,-0.5745,-0.5234,-0.4866,-0.4721,-0.1509,0.0,0.0,0.0,0.0,0.0,0.0,0.0,0.0,0.0,0.0,0.0,0.0,0.0,0.0,0.0,0.0,0.0,0.0,0.0,0.0,0.0,0.0,0.0,0.0,0.0,0.0,0.0,0.0,0.0,0.0,0.0,0.0,0.0,0.0,0.0,0.0,0.0,0.0,0.0,0.0,0.0,0.0,0.0,0.0,0.0,0.0,0.0,0.0,0.0,0.0,0.0,0.0,0.0,0.0,0.0,0.0,0.0,0.0,0.0,-0.1836,-0.0639,-0.2226,-0.7001,-0.7109,-0.7356,-0.7966,-0.5764,-0.4733,-0.4792,-0.4927,-0.3944,-0.1998,-0.1301,0.1203,0.4839,0.281,0.1904,0.22,0.5569,0.6945,0.6972,0.6771,0.3438,-0.2051,-0.9018,-2.0113,-3.1673,0.0,0.0,0.0,0.0,0.0,0.0,0.0,0.0,0.0,0.0,0.0,-1.0803,-0.9837,-0.9137,-0.8249,-0.7214,-0.7136,-0.7017,-0.6729,-0.6563,-0.6339,-0.604,-0.5752,-0.5599,-0.5599,-0.3781,-0.2846,-0.2852,-0.0942,0.0,0.0,0.0,0.0,0.0,0.0,0.0,0.0,0.0,0.0,0.0,0.0,0.0,0.0,0.0,0.0,0.0,0.0,0.0,0.0,0.0,0.0,0.0,0.0,0.0,0.0,0.0,0.0,0.0,0.0,0.0,0.0,0.0,0.0,0.0,0.0,0.0,0.0,0.0,0.0,0.0,0.0,0.0,0.0,0.0,0.0,0.0,0.0,0.0,0.0,0.0,0.0,0.0,0.0,0.0,0.0,0.0,-0.4162,-0.6773,-0.6736,-0.2425,-0.2237,-0.7184,-0.7207,-0.7256,-0.7744,-0.7597,-0.7318,-0.6988,-0.7485,-0.7687,-0.7498,-0.4988,-0.3613,-0.3412,-0.3512,-0.3612,-0.3209,0.2,0.4219,0.4466,0.6979,0.2766,-0.5134,-0.9902,-2.025,-3.2249,0.0,0.0,0.0,0.0,0.0,0.0,0.0,0.0,0.0,-1.2305,-1.1086,-1.011,-0.9705,-0.8703,-0.7838,-0.7563,-0.7662,-0.7631,-0.7428,-0.6915,-0.6488,-0.619,-0.58,-0.5716,-0.6039,-0.5698,-0.4043,-0.0975,-0.0291,0.0,0.0,0.0,0.0,0.0,0.0,0.0,0.0,0.0,0.0,0.0,0.0,0.0,0.0,0.0,0.0,0.0,0.0,0.0,0.0,0.0,0.0,0.0,0.0,0.0,0.0,0.0,0.0,0.0,0.0,0.0,0.0,0.0,0.0,0.0,0.0,0.0,0.0,0.0,0.0,0.0,0.0,0.0,0.0,0.0,0.0,0.0,0.0,0.0,0.0,0.0,0.0,0.0,0.0,-0.2746,-0.4608,-0.4608,-0.4725,-0.5523,-0.7037,-0.5523,-0.5398,-0.7161,-0.7168,-0.7259,-0.7536,-0.7387,-0.7393,-0.7537,-0.7647,-0.7807,-0.8007,-0.7033,-0.6548,-0.6553,-0.6553,-0.6553,-0.645,-0.452,-0.2686,-0.1571,-0.5713,-0.7124,-0.7746,-1.5896,-2.4456,-3.2263,0.0,0.0,0.0,0.0,0.0,0.0,0.0,0.0,-1.2223,-1.1954,-1.0701,-0.9814,-0.9535,-0.8444,-0.7787,-0.7879,-0.798,-0.7909,-0.7604,-0.7031,-0.6522,-0.6122,-0.5871,-0.6007,-0.6621,-0.6927,-0.5588,-0.2587,-0.0879,0.0,0.0,0.0,0.0,0.0,0.0,0.0,0.0,0.0,0.0,0.0,0.0,0.0,0.0,0.0,0.0,0.0,0.0,0.0,0.0,0.0,0.0,0.0,0.0,0.0,0.0,0.0,0.0,0.0,0.0,0.0,0.0,0.0,0.0,0.0,0.0,0.0,0.0,0.0,0.0,0.0,0.0,0.0,0.0,0.0,0.0,0.0,0.0,0.0,0.0,0.0,0.0,0.0,0.0,-0.2851,-0.5352,-0.7015,-0.5654,-0.546,-0.7005,-0.7098,-0.7091,-0.7074,-0.7613,-0.7949,-0.7996,-0.8182,-0.8473,-0.8781,-0.8359,-0.827,-0.8492,-0.8601,-0.8656,-0.8663,-0.9157,-0.9351,-0.9252,-0.8354,-0.7232,-0.6614,-1.2312,-1.315,-1.2346,-2.0942,-2.7487,-3.2623,0.0,0.0,0.0,0.0,0.0,0.0,0.0,-1.2305,-1.2054,-1.1261,-1.0585,-0.9902,-0.9221,-0.8437,-0.8038,-0.8038,-0.8038,-0.7787,-0.7187,-0.6868,-0.6437,-0.584,-0.5979,-0.6481,-0.736,-0.722,-0.7276,-0.7744,-0.2684,-0.0188,0.0,0.0,0.0,0.0,0.0,0.0,0.0,0.0,0.0,0.0,0.0,0.0,0.0,0.0,0.0,0.0,0.0,0.0,0.0,0.0,0.0,0.0,0.0,0.0,0.0,0.0,0.0,0.0,0.0,0.0,0.0,0.0,0.0,0.0,0.0,0.0,0.0,0.0,0.0,0.0,0.0,0.0,0.0,0.0,0.0,0.0,-0.2992,-0.1144,0.0,0.0,0.0,0.0,0.0,0.0,-0.1887,-0.6496,-0.7025,-0.7098,-0.7084,-0.7084,-0.7074,-0.7139,-0.8568,-0.9358,-0.9054,-1.0017,-1.0639,-1.0771,-0.9802,-0.9347,-0.9363,-0.9829,-1.0096,-1.0096,-1.1361,-1.1945,-1.1745,-0.917,-0.8985,-1.0203,-1.15,-1.4383,-1.8519,-2.4307,-2.9012,-3.3444,0.0,0.0,0.0,0.0,0.0,0.0,0.0,-1.2305,-1.2054,-1.1261,-1.0585,-0.9902,-0.9221,-0.8437,-0.8038,-0.8038,-0.8038,-0.7831,-0.7339,-0.6926,-0.6532,-0.6152,-0.6692,-0.717,-0.7529,-0.7654,-0.7758,-0.7744,-0.6252,-0.3578,0.0,0.0,0.0,0.0,0.0,0.0,0.0,0.0,0.0,0.0,0.0,0.0,0.0,0.0,0.0,0.0,0.0,0.0,0.0,0.0,0.0,0.0,0.0,0.0,0.0,0.0,0.0,0.0,0.0,0.0,0.0,0.0,0.0,0.0,0.0,0.0,0.0,0.0,0.0,0.0,0.0,0.0,0.0,0.0,0.0,-0.5264,-0.1317,-0.0342,0.0,0.0,0.0,0.0,0.0,0.0,-0.0537,-0.1879,-0.5112,-0.7098,-0.7084,-0.7084,-0.7074,-0.7139,-0.7499,-0.8132,-0.8962,-0.9262,-0.9856,-1.0771,-1.0812,-1.0803,-1.0952,-1.1236,-1.1365,-1.1361,-1.175,-1.1945,-1.1945,-1.2073,-1.2443,-1.2855,-1.4165,-1.5222,-1.7051,-2.4745,-3.2243,-3.8891,0.0,0.0,0.0,0.0,0.0,0.0,0.0,-1.2305,-1.1904,-1.0881,-1.0449,-0.9789,-0.8771,-0.8224,-0.8038,-0.8038,-0.7926,-0.7665,-0.7214,-0.6766,-0.658,-0.6719,-0.7139,-0.7502,-0.7777,-0.795,-0.7845,-0.7644,-0.7573,-0.544,-0.1455,-0.045,0.0,0.0,0.0,0.0,0.0,0.0,0.0,0.0,0.0,0.0,0.0,0.0,0.0,0.0,0.0,-0.1332,-0.3281,-0.4011,0.0,0.0,0.0,0.0,0.0,0.0,0.0,0.0,0.0,0.0,0.0,0.0,0.0,0.0,0.0,0.0,0.0,0.0,0.0,0.0,0.0,0.0,0.0,0.0,-0.6619,-0.5946,-0.3354,-0.1232,0.0,0.0,0.0,0.0,0.0,0.0,0.0,0.0,-0.3487,-0.5819,-0.6083,-0.6713,-0.7064,-0.7139,-0.8097,-0.8882,-0.9579,-1.0621,-1.1467,-1.222,-1.1936,-1.1984,-1.2122,-1.3008,-1.3362,0.0,-1.4589,-1.5315,-1.5732,-1.5978,-1.6302,0.0,0.0,0.0,0.0,0.0,-3.6784,-4.2104,0.0,0.0,0.0,0.0,0.0,0.0,0.0,-1.2305,-1.1787,-1.0404,-1.0178,-0.9611,-0.8167,-0.8038,-0.8038,-0.8038,-0.777,-0.7411,-0.6959,-0.6586,-0.6681,-0.7343,-0.7421,-0.7634,-0.8031,-0.8021,-0.7879,-0.76,-0.75,-0.6227,-0.3929,-0.1251,0.0,0.0,0.0,0.0,0.0,0.0,0.0,0.0,0.0,0.0,0.0,0.0,0.0,0.0,0.0,0.0,-0.0239,-0.1889,0.0,0.0,0.0,0.0,0.0,0.0,0.0,0.0,0.0,0.0,0.0,0.0,0.0,0.0,0.0,0.0,0.0,0.0,0.0,0.0,0.0,0.0,0.0,0.0,-0.6997,-0.7197,-0.7128,-0.3507,-0.0629,-0.0089,0.0,0.0,0.0,0.0,-0.0179,-0.0716,-0.2769,-0.4287,-0.4999,0.0,0.0,0.0,0.0,-1.0524,-1.0778,-1.2948,-1.4159,-1.425,-1.3559,-1.3288,-1.3646,-1.515,-1.607,-1.6448,-1.8792,-2.048,-2.1341,-2.0368,-2.0667,-2.1569,-1.9521,-2.199,-2.7791,-3.6688,-4.1431,0.0,0.0,0.0,0.0,0.0,0.0,0.0,0.0,-1.2305,-1.1787,-1.0404,-1.0178,-0.9611,-0.8167,-0.8038,-0.8038,-0.8038,-0.777,-0.7411,-0.6959,-0.7071,-0.7221,-0.7363,-0.7719,-0.795,-0.8038,-0.7919,-0.777,-0.76,-0.7495,-0.7077,-0.637,-0.2056,0.0,0.0,0.0,0.0,0.0,0.0,0.0,0.0,0.0,0.0,0.0,0.0,0.0,0.0,0.0,0.0,-0.0087,-0.0418,-0.3306,-0.6784,-0.6752,-0.6777,0.0,0.0,0.0,0.0,0.0,0.0,0.0,0.0,0.0,0.0,0.0,0.0,0.0,0.0,0.0,0.0,0.0,0.0,0.0,-0.7031,-0.7312,-0.7512,-0.7516,-0.6575,-0.4449,-0.0449,0.0,0.0,0.0,0.0,-0.1616,-0.5399,-0.6126,-0.6474,-0.6631,-0.69,0.0,-0.854,-0.8973,-1.0091,-1.198,-1.3328,-1.4511,-1.5379,0.0,0.0,-1.736,-1.8846,-1.9701,-2.0133,-2.1535,-2.2754,-2.3635,-2.4419,-2.5961,-2.7606,-2.634,-2.9847,-3.6039,-3.9379,-4.176,-4.331,0.0,0.0,0.0,0.0,0.0,0.0,0.0,-1.2305,-1.1923,-1.0853,-1.07,-1.0272,-0.9192,-0.8532,-0.8214,-0.8214,-0.7545,-0.7085,-0.6939,-0.7207,-0.7472,-0.7695,-0.7919,-0.8038,-0.8038,-0.7889,-0.7743,-0.76,-0.7458,-0.7319,-0.7012,-0.3486,-0.1164,0.0,0.0,0.0,0.0,0.0,0.0,0.0,0.0,0.0,0.0,0.0,0.0,0.0,0.0,0.0,0.0,0.0,-0.3199,-0.7118,-0.7104,-0.7108,-0.6998,0.0,0.0,0.0,0.0,0.0,0.0,0.0,0.0,0.0,0.0,0.0,0.0,0.0,0.0,-0.7351,0.0,0.0,-0.72,-0.7346,-0.7499,-0.76,-0.76,-0.751,-0.6599,-0.3968,-0.2671,-0.1929,-0.1821,-0.1621,-0.2596,-0.5114,-0.6319,-0.7024,-0.7081,-0.769,-0.8292,-0.889,-1.0009,-1.1123,-1.2322,-1.4001,-1.5101,-1.5703,-1.6948,-1.802,-1.8834,-2.0457,-2.2144,-2.3824,-2.562,-2.7428,-2.9233,-3.0513,-3.2334,-3.4243,-3.3601,-3.485,-3.7336,-4.0269,-4.1949,-4.275,0.0,0.0,0.0,0.0,0.0,0.0,0.0,0.0,-1.2054,-1.1261,-1.1163,-1.0925,-1.0157,-0.9204,-0.8565,-0.8292,-0.7563,-0.7024,-0.6922,-0.7288,-0.7662,-0.8024,-0.8038,-0.8038,-0.8038,-0.7889,-0.7743,-0.76,-0.7448,-0.7309,-0.7012,-0.4739,-0.2324,0.0,0.0,0.0,0.0,0.0,0.0,0.0,0.0,0.0,0.0,0.0,0.0,0.0,0.0,0.0,0.0,0.0,-0.3121,-0.7094,-0.7061,-0.7066,-0.7062,-0.7096,-0.6278,0.0,0.0,0.0,0.0,0.0,0.0,0.0,0.0,0.0,-0.74,-0.7909,-0.8032,-0.8008,-0.8039,-0.7703,-0.7543,-0.7665,-0.7685,-0.7685,-0.7685,-0.7685,-0.758,-0.7462,-0.579,-0.4599,-0.4432,-0.4068,-0.4024,-0.4312,-0.5914,-0.6967,-0.7115,-0.8308,-0.8978,-0.9235,-1.1214,-1.2492,-1.3002,-1.5162,-1.6406,-1.6651,-1.7937,-1.9207,-2.0461,-2.2257,-2.4646,-2.742,-3.0011,-3.2462,-3.4698,-3.5909,-3.7436,-3.9006,-3.8925,-3.7894,-3.6956,-4.0726,-4.2052,-4.205,0.0,0.0,0.0,0.0,0.0,0.0,0.0,0.0,0.0,-1.1261,-1.1163,-1.086,-0.9868,-0.962,-0.906,-0.7831,-0.8179,-0.8059,-0.6946,-0.758,-0.7987,-0.8038,-0.8038,-0.8038,-0.8038,-0.7889,-0.7743,-0.76,-0.7448,-0.7309,-0.7012,-0.4739,-0.2324,0.0,0.0,0.0,0.0,0.0,0.0,0.0,0.0,0.0,0.0,0.0,0.0,0.0,0.0,0.0,0.0,0.0,-0.3121,-0.7094,-0.7061,-0.7119,-0.7073,-0.7081,-0.627,-0.5599,-0.6631,-0.6931,-0.6925,-0.7024,-0.6655,-0.6322,0.0,0.0,-0.7894,-0.8015,-0.8007,-0.8021,-0.8038,-0.7953,-0.797,-0.7987,-0.7991,-0.7991,-0.7991,-0.7991,-0.794,-0.7804,-0.7289,-0.7053,-0.7139,-0.6821,-0.6783,-0.6995,-0.7052,-0.7118,-0.7343,-0.8367,-0.9405,-1.0351,-1.1638,-1.3256,-1.5274,-1.7396,-1.89,-1.9877,-2.1889,-2.3449,-2.4773,-2.6586,-2.8491,-3.0479,-3.4061,-3.589,-3.6506,-3.7518,-3.8107,-3.8347,-3.8672,-3.8743,-3.8984,-4.1761,-4.2197,-4.133,0.0,0.0,0.0,0.0,0.0,0.0,0.0,0.0,0.0,0.0,-1.1814,-1.1704,-1.1259,-1.0472,-0.9168,-0.7232,-0.784,-0.7854,-0.6888,-0.7577,-0.8038,-0.8038,-0.8038,-0.8038,-0.8038,-0.7889,-0.7743,-0.76,-0.7448,-0.7309,-0.7012,-0.4739,-0.2324,0.0,0.0,0.0,0.0,0.0,0.0,0.0,0.0,0.0,0.0,0.0,0.0,0.0,0.0,0.0,0.0,0.0,-0.3178,-0.7128,-0.7095,-0.7111,-0.7063,-0.7119,-0.628,-0.5571,-0.6408,-0.663,-0.6785,-0.745,-0.746,-0.7261,-0.725,-0.7646,-0.7976,-0.7986,-0.7997,-0.8038,-0.8038,-0.8038,-0.8038,0.0,-0.8038,-0.8038,-0.8038,-0.7963,-0.7882,-0.7818,-0.756,-0.7387,-0.7485,-0.7255,-0.7098,-0.7248,-0.719,-0.7443,-0.8209,-0.958,-1.0766,-1.1854,-1.3815,-1.5533,-1.6822,-1.9004,-2.0557,-2.1288,-2.3667,-2.5453,-2.6569,-2.8903,-3.1841,-3.5321,-3.7993,-3.9454,-3.9905,-3.9849,-3.9825,-3.9785,-3.9247,-3.9026,-3.9172,-4.0497,-4.0757,-4.0344,0.0,0.0,0.0,0.0,0.0,0.0,0.0,0.0,0.0,0.0,-1.2305,-1.2271,-1.2191,-1.109,-0.9496,-0.7348,-0.7847,-0.7825,-0.6778,-0.7465,-0.7953,-0.8035,-0.8038,-0.8038,-0.8038,-0.7929,-0.7804,-0.7658,-0.7509,-0.7373,-0.7072,-0.4661,-0.2324,0.0,0.0,0.0,0.0,0.0,0.0,0.0,0.0,0.0,-0.018,-0.1433,-0.1955,-0.1925,-0.1939,-0.1743,-0.1486,-0.1455,-0.3966,-0.7089,-0.7119,-0.7116,-0.7046,-0.6685,-0.6179,-0.5692,-0.5957,-0.6424,-0.696,-0.7789,-0.7977,-0.7973,-0.7991,-0.8016,-0.798,-0.7997,-0.8038,-0.8038,-0.8038,-0.8038,-0.8038,-0.8038,-0.8038,-0.8038,-0.8038,-0.7909,-0.7797,-0.7756,-0.7529,-0.7535,-0.7761,-0.7382,-0.7156,-0.72,-0.7429,-0.8036,-0.8874,-1.0597,-1.2087,-1.3126,-1.5548,-1.7415,-1.8336,-2.086,-2.252,-2.344,-2.5933,-2.7872,-2.9322,-3.2002,-3.5222,-3.8699,-4.0192,-4.1057,-4.1397,-4.074,-4.0369,-4.0133,-3.9129,-3.8706,-3.8646,-3.8855,-3.9057,-3.9138,0.0,0.0,0.0,0.0,0.0,0.0,0.0,0.0,0.0,0.0,0.0,0.0,0.0,-1.1356,-1.0255,-0.8482,-0.8694,-0.826,-0.6761,-0.7275,-0.774,-0.8028,-0.8038,-0.8038,-0.8038,-0.8035,-0.7957,-0.7804,-0.7662,-0.7436,-0.7034,-0.4694,-0.2324,0.0,0.0,0.0,0.0,0.0,0.0,0.0,0.0,0.0,-0.0539,-0.5131,-0.686,-0.6916,-0.6926,-0.6199,-0.5234,-0.525,-0.604,-0.7096,-0.708,-0.7068,-0.6868,-0.5785,-0.5867,-0.6186,-0.5608,-0.6702,-0.7933,-0.7959,-0.8007,-0.8021,-0.8024,-0.8024,-0.8028,-0.8038,-0.8038,-0.8038,-0.8038,-0.8038,-0.8038,-0.8038,-0.8038,-0.8038,-0.8038,-0.7909,-0.776,-0.7624,-0.7468,-0.7761,0.0,-0.7757,-0.7204,-0.7353,-0.829,-0.8878,-0.9045,-1.1081,-1.276,-1.3911,-1.6024,-1.8196,-2.0285,-2.3078,-2.5406,-2.717,-2.9516,-3.1864,-3.4204,-3.7058,-3.8771,-3.9492,-3.9736,-3.9736,-3.955,-3.9195,-3.8742,-3.8235,-3.7837,-3.7641,-3.7607,-3.7362,-3.7435,-3.7657,0.0,0.0,0.0,0.0,0.0,0.0,0.0,0.0,0.0,0.0,0.0,0.0,0.0,0.0,0.0,0.0,-0.8175,-0.7602,-0.6479,-0.7061,-0.7539,-0.774,-0.7936,-0.8038,-0.8038,-0.8038,-0.7963,-0.7811,-0.7763,-0.7533,-0.7044,-0.4671,-0.2356,0.0,0.0,0.0,0.0,0.0,0.0,0.0,0.0,0.0,-0.043,-0.4475,-0.6411,-0.7019,0.0,-0.5453,-0.4823,-0.4824,-0.5058,-0.5414,-0.582,-0.5962,-0.5931,-0.5525,-0.5544,-0.5656,-0.5417,0.0,-0.7985,-0.798,-0.7967,-0.8038,-0.8038,-0.8038,-0.8038,-0.8038,-0.8004,-0.7792,-0.7211,-0.7597,-0.7889,-0.7691,-0.7845,-0.8038,-0.8038,-0.7909,-0.7756,-0.7617,-0.7465,0.0,0.0,0.0,0.0,-0.9495,-0.9916,-1.0787,-1.2244,-1.3274,-1.496,-1.7392,-1.9117,-2.1184,-2.3494,-2.5712,-2.7748,-2.9664,-3.2531,-3.5111,-3.7312,-3.8592,-3.9383,-3.9702,-3.9916,-3.9829,-3.9545,-3.9412,-3.8912,-3.8229,-3.7743,-3.7238,-3.6738,-3.6298,-3.6197,-3.6359,0.0,0.0,0.0,0.0,0.0,0.0,0.0,0.0,0.0,0.0,0.0,0.0,0.0,0.0,0.0,0.0,0.0,-0.7635,-0.6861,-0.6954,-0.7092,-0.735,-0.7489,-0.7587,-0.7641,-0.7587,-0.7512,-0.7414,-0.7468,-0.7421,-0.7358,-0.482,-0.2355,0.0,0.0,0.0,0.0,0.0,0.0,-0.0087,-0.1401,-0.1968,-0.2218,-0.4676,-0.6018,0.0,-0.5936,-0.531,-0.4785,-0.4584,-0.4476,-0.4579,-0.4928,-0.5051,-0.5087,-0.5087,-0.5253,-0.551,-0.6195,-0.7183,-0.7959,-0.8028,-0.8038,-0.8038,-0.8038,-0.7997,-0.796,-0.796,-0.7991,-0.766,-0.6454,-0.6828,-0.7348,-0.7149,-0.7461,-0.774,-0.7794,-0.7994,-0.8162,-0.8236,-0.8409,-0.8928,0.0,0.0,0.0,-1.0611,-1.1429,-1.2561,-1.3904,-1.5326,-1.7195,-1.9512,-2.1539,-2.3696,-2.5853,-2.8168,-3.0675,-3.3251,-3.5872,-3.793,-3.9384,-3.9785,-3.9871,-3.9702,-3.955,-3.917,-3.8631,-3.8762,-3.8371,-3.7746,-3.7364,-3.6905,-3.6435,-3.5819,-3.5595,-3.564,0.0,0.0,0.0,0.0,0.0,0.0,0.0,0.0,0.0,0.0,0.0,0.0,0.0,0.0,0.0,0.0,0.0,0.0,-0.7821,-0.6865,-0.6531,-0.6888,-0.6773,-0.677,-0.6915,-0.6773,-0.6702,-0.6702,-0.6848,-0.7286,-0.7943,-0.5032,-0.2312,0.0,0.0,-0.009,-0.0275,-0.027,-0.0265,-0.0431,-0.3896,-0.5328,-0.5422,-0.5789,-0.577,-0.5444,-0.6073,-0.5866,-0.5304,-0.4713,-0.4491,-0.4525,-0.4532,-0.4528,-0.4498,-0.457,-0.4992,-0.5835,-0.7569,-0.8012,-0.7987,-0.8034,-0.8038,-0.8038,-0.8028,-0.8017,-0.8004,-0.798,-0.7989,-0.7464,0.0,0.0,-0.639,-0.6729,-0.7046,-0.7313,-0.7552,-0.8376,-0.9039,0.0,0.0,0.0,0.0,0.0,0.0,-1.1037,0.0,-1.4226,-1.4302,-1.7266,-1.9509,-2.0641,-2.3334,-2.5722,-2.7533,-3.0666,-3.407,-3.7615,-3.9308,-4.0207,-4.0383,-4.0659,-4.0284,-3.9413,-3.8707,-3.783,-3.6955,-3.7352,-3.7202,-3.6797,-3.6721,-3.6648,-3.6544,-3.5873,-3.5616,-3.5479,0.0,0.0,0.0,0.0,0.0,0.0,0.0,0.0,0.0,0.0,0.0,0.0,0.0,0.0,0.0,0.0,0.0,0.0,-0.7637,-0.7475,-0.7211,-0.6661,-0.6661,-0.6719,-0.6759,-0.6719,-0.6702,-0.6702,-0.6739,-0.7062,-0.7663,-0.5069,-0.2474,0.0,0.0,-0.1484,-0.4042,-0.4037,-0.3212,-0.2118,-0.3018,-0.4194,-0.5442,-0.55,-0.5526,-0.5431,-0.559,-0.5498,-0.5304,-0.4713,-0.4806,-0.516,-0.5195,-0.4865,-0.4553,-0.5012,-0.586,-0.6853,-0.7781,-0.7977,-0.8,-0.8011,-0.8038,-0.8011,-0.7997,-0.8039,-0.791,-0.7383,-0.7311,-0.6912,0.0,0.0,0.0,-0.766,-0.8552,0.0,-1.0304,-1.0829,0.0,-1.0837,0.0,-1.1421,-1.2192,-1.3322,0.0,0.0,-1.5666,-1.7114,-1.8655,-2.0197,-2.2125,-2.4732,-2.6604,-2.8602,-3.078,-3.4329,-3.7006,-3.8847,-3.9846,-4.0277,-4.0188,-4.0298,-3.974,-3.8678,-3.8474,-3.7987,-3.7346,-3.748,-3.7172,-3.6721,-3.6701,-3.6336,-3.5873,-3.5671,-3.5616,-3.5514,0.0,0.0,0.0,0.0,0.0,0.0,0.0,0.0,0.0,0.0,0.0,0.0,0.0,0.0,0.0,0.0,0.0,0.0,0.0,-0.847,-0.7794,-0.6927,-0.6881,-0.6667,-0.6213,-0.6146,-0.6112,-0.6112,-0.624,-0.6437,-0.6623,-0.4668,-0.2456,-0.0078,-0.1649,-0.3506,-0.5387,-0.5416,-0.4809,0.0,0.0,-0.4494,-0.5427,-0.5418,-0.5414,-0.5388,-0.5423,-0.5389,-0.5433,-0.5559,-0.5835,-0.6144,-0.6168,-0.5945,-0.5725,-0.6023,-0.6603,-0.725,-0.7843,-0.7981,-0.8038,-0.8038,-0.8038,-0.7967,-0.7977,-0.7761,-0.7485,-0.7204,-0.6739,-0.6108,-0.5355,-0.5822,-0.662,0.0,0.0,0.0,-1.0821,-1.15,-1.1896,0.0,-1.2644,0.0,-1.3789,-1.5606,-1.7065,0.0,-1.8329,-1.9191,-2.0352,-2.2816,-2.4924,-2.6665,-2.9242,-3.1812,-3.4337,-3.7035,-3.882,-3.9702,-4.0252,-4.0403,-4.0146,-4.0003,-3.9245,-3.8059,0.0,-3.7427,-3.6661,-3.6729,-3.6527,-3.6204,-3.5958,-3.5721,-3.5556,-3.5225,-3.531,-3.5484,0.0,0.0,0.0,0.0,0.0,0.0,0.0,0.0,0.0,0.0,-1.2305,0.0,0.0,0.0,0.0,0.0,0.0,0.0,0.0,0.0,-0.8589,-0.7602,-0.7285,-0.67,-0.5793,-0.5525,-0.5449,-0.5428,-0.562,-0.5606,-0.5412,-0.4363,-0.2607,-0.0461,-0.3623,-0.5162,-0.5419,-0.5375,-0.5412,-0.5368,-0.5387,-0.5398,-0.5376,0.0,-0.5428,-0.5428,-0.5428,-0.5408,-0.5551,-0.6707,-0.7091,-0.711,-0.7084,-0.7072,-0.7138,-0.7108,-0.7112,-0.7234,-0.7812,-0.8,-0.8014,-0.8035,-0.8024,-0.7993,-0.8015,-0.7406,-0.6883,-0.6896,-0.6057,-0.5287,-0.4992,-0.5725,-0.6719,-0.7498,0.0,-0.9335,-1.0747,-1.1881,-1.2667,-1.2994,-1.4824,-1.5989,-1.5951,-1.862,-2.043,-2.043,-2.0984,-2.1333,-2.1333,-2.5301,-2.784,-2.8339,-3.1828,-3.4945,-3.7579,-3.8952,-3.9852,-4.0266,-4.0528,-4.0462,-4.0089,-3.9656,-3.8748,-3.7521,0.0,0.0,-3.5611,-3.5592,-3.5531,-3.5478,-3.4794,-3.4837,-3.5245,-3.4725,-3.4861,-3.5295,0.0,0.0,0.0,0.0,0.0,0.0,0.0,0.0,0.0,0.0,-1.2305,-1.2305,0.0,0.0,0.0,0.0,0.0,0.0,0.0,0.0,0.0,-0.8824,-0.7833,-0.7168,-0.6813,-0.5971,-0.5488,-0.5428,-0.548,-0.5443,-0.5389,-0.516,-0.4069,-0.2273,-0.2897,-0.4015,-0.5369,-0.5411,-0.5378,-0.5413,-0.5386,-0.541,-0.5432,-0.5428,0.0,0.0,-0.5428,-0.5408,-0.5551,-0.6707,-0.7081,-0.7087,-0.7144,-0.7056,-0.7083,-0.7107,-0.7078,-0.7275,-0.784,-0.802,-0.7983,-0.8007,-0.8045,-0.803,-0.8027,-0.6799,-0.5736,-0.5676,-0.5542,-0.5329,-0.4993,-0.6217,-0.7667,-0.8949,-1.0317,-1.1879,-1.3582,-1.4922,-1.5691,0.0,-1.6638,-1.7341,-1.7041,-1.9034,0.0,0.0,0.0,0.0,-2.6072,-2.8193,-3.081,-3.3908,-3.5759,-3.7365,-3.8713,-3.9804,-4.0403,-4.0604,-4.0494,-4.0186,-3.9683,-3.8951,-3.8113,-3.7232,0.0,0.0,-3.5577,-3.5027,-3.4774,-3.4691,-3.4006,-3.3778,-3.3893,-3.4325,-3.4547,-3.4726,0.0,0.0,0.0,0.0,0.0,0.0,0.0,-1.2305,-1.2305,-1.2305,-1.2305,-1.2305,-1.2305,-1.2305,-1.2305,0.0,0.0,0.0,0.0,0.0,0.0,0.0,-0.8851,-0.7914,-0.7229,-0.6187,0.0,0.0,0.0,-0.5484,-0.5488,0.0,0.0,-0.409,-0.409,-0.4564,-0.5379,-0.5372,-0.5432,-0.5428,-0.5428,-0.5428,-0.5428,0.0,0.0,0.0,-0.5428,-0.5408,-0.5453,-0.6046,-0.6645,-0.7097,-0.7135,-0.7139,-0.7139,-0.7139,-0.7065,-0.7122,-0.746,-0.7801,-0.8046,-0.8001,-0.8024,-0.7946,-0.7592,-0.6399,-0.5393,-0.5372,-0.538,-0.5269,-0.4766,-0.5998,-0.7435,-0.8779,-1.0822,-1.2788,-1.4398,-1.6027,-1.6867,-1.6703,-1.7763,-1.8574,0.0,-2.0814,0.0,0.0,0.0,0.0,-2.7366,-3.0485,-3.3752,-3.6872,-3.7998,-3.8884,-3.9614,-4.0309,-4.0576,-4.045,-4.0338,-3.9966,-3.9314,-3.8699,-3.7954,-3.7173,-3.6643,0.0,-3.556,-3.4894,-3.4381,-3.4042,-3.331,-3.2989,-3.3066,-3.3724,-3.4188,-3.4577,0.0,0.0,0.0,0.0,0.0,0.0,-1.2305,-1.2305,-1.2305,-1.2305,-1.2305,-1.2305,-1.2305,-1.2305,-1.2305,0.0,0.0,0.0,0.0,0.0,0.0,0.0,0.0,0.0,0.0,0.0,0.0,0.0,0.0,0.0,0.0,0.0,0.0,0.0,0.0,0.0,-0.5376,-0.5432,-0.5428,0.0,0.0,0.0,0.0,0.0,0.0,0.0,0.0,-0.5372,-0.5419,-0.538,-0.5992,-0.6757,-0.7031,-0.7118,-0.7135,-0.7135,-0.7132,-0.7098,-0.7147,-0.758,-0.8007,-0.7994,-0.8004,-0.7865,-0.7204,-0.6188,-0.5374,-0.5223,-0.5685,-0.5986,-0.5502,-0.631,-0.7409,-0.8365,-1.0805,-1.3068,-1.4683,-1.6385,-1.7481,-1.7641,-1.8859,0.0,-2.0938,0.0,0.0,0.0,0.0,0.0,-2.9096,-3.3096,-3.633,-3.8373,-3.9239,-3.9857,-4.0232,-4.0645,-4.0638,-4.0205,-4.0151,-3.9741,-3.908,-3.8432,-3.7803,-3.7135,-3.6522,0.0,0.0,-3.4736,-3.4087,-3.3547,-3.268,-3.2327,-3.2377,-3.3036,-3.3619,-3.4173,0.0,0.0,0.0,0.0,0.0,0.0,-1.2305,-1.2305,-1.2305,-1.2305,-1.2305,-1.2305,-1.2305,-1.2305,-1.2305,0.0,0.0,0.0,0.0,0.0,0.0,0.0,0.0,0.0,0.0,0.0,0.0,0.0,0.0,0.0,0.0,0.0,0.0,0.0,0.0,0.0,0.0,-0.5428,0.0,0.0,0.0,0.0,0.0,0.0,0.0,0.0,0.0,-0.5379,-0.542,-0.5418,-0.5501,-0.5718,-0.6779,-0.7106,-0.7087,-0.7087,-0.7097,-0.7062,-0.7069,-0.7513,-0.7981,-0.797,-0.8028,-0.783,-0.7235,-0.6234,-0.5228,-0.4705,-0.6671,-0.8486,-0.8393,-0.8525,-0.8595,-0.8692,-1.0651,-1.2991,-1.5048,-1.6704,-1.7926,-1.8708,0.0,0.0,-2.2959,0.0,0.0,0.0,0.0,0.0,0.0,-3.6822,-3.818,-3.8489,-3.9695,-4.0329,-4.0382,-4.0773,-4.0723,-4.0215,-3.9958,-3.9582,-3.9053,-3.7855,-3.7285,-3.7135,0.0,0.0,0.0,-3.4202,-3.3649,-3.3479,-3.2089,-3.1627,-3.1646,-3.2362,-3.2647,-3.2871,0.0,0.0,0.0,0.0,0.0,0.0,-1.2305,-1.2305,-1.2305,-1.2305,-1.2305,-1.2305,-1.2305,-1.2305,-1.2305,-1.2305,0.0,0.0,0.0,0.0,0.0,0.0,0.0,0.0,0.0,0.0,0.0,0.0,0.0,0.0,0.0,0.0,0.0,0.0,0.0,0.0,0.0,0.0,0.0,0.0,0.0,0.0,0.0,0.0,0.0,0.0,0.0,0.0,-0.5422,-0.5391,-0.5158,-0.4918,-0.5404,-0.5559,-0.56,-0.594,-0.6563,-0.712,-0.7111,-0.7529,-0.8015,-0.8041,-0.8013,-0.7797,-0.7222,-0.7864,-0.8225,-0.7262,-0.8023,-0.8793,-0.8803,-0.8811,-0.9065,-0.9813,-1.0989,-1.248,-1.4388,-1.7288,-1.9251,-1.9598,-2.2024,0.0,0.0,0.0,0.0,0.0,0.0,0.0,0.0,-3.8209,-3.8984,-3.9514,-4.0254,-4.0648,-4.0639,-4.0752,-4.0538,-3.9967,-3.9768,-3.9406,-3.8826,-3.7702,-3.719,-3.7135,0.0,0.0,0.0,-3.4592,-3.3987,-3.3479,-3.2532,-3.191,-3.1556,-3.2273,-3.2512,-3.2647,0.0,0.0,0.0,0.0,0.0,-1.2305,-1.2305,-1.2305,-1.2305,-1.2305,-1.2305,-1.2305,-1.2305,-1.2305,-1.2305,-1.2305,-1.2305,0.0,0.0,0.0,0.0,0.0,0.0,0.0,0.0,0.0,-0.9216,-0.8237,0.0,0.0,0.0,0.0,0.0,0.0,0.0,0.0,0.0,0.0,0.0,0.0,0.0,0.0,0.0,0.0,0.0,0.0,0.0,0.0,0.0,0.0,0.0,-0.4525,-0.4524,-0.4488,-0.4567,-0.5032,-0.6046,-0.7062,-0.7097,-0.7427,-0.7805,-0.7948,-0.7876,-0.7819,-0.8083,-0.9439,-1.0231,-0.907,-0.8773,-0.8791,-0.8826,-0.9482,-1.0332,-1.1256,-1.1684,-1.2565,-1.4606,-1.743,-1.9436,-1.9863,0.0,0.0,0.0,0.0,0.0,0.0,0.0,0.0,0.0,-3.9155,-3.967,-4.0253,-4.0604,-4.0794,-4.0808,-4.0649,-4.0291,-3.9746,-3.9526,-3.9099,-3.8433,-3.7596,-3.7097,-3.6921,0.0,0.0,0.0,-3.464,-3.4037,-3.3479,-3.2625,-3.1966,-3.1541,-3.2048,-3.2213,-3.2317,0.0,0.0,0.0,0.0,0.0,0.0,-1.2305,-1.2305,-1.2305,-1.2305,-1.2305,-1.2305,-1.2305,-1.2305,-1.2305,-1.2305,-1.2305,0.0,0.0,0.0,0.0,0.0,0.0,0.0,0.0,0.0,-1.0265,-0.9296,-0.8313,-0.7681,0.0,0.0,0.0,0.0,0.0,0.0,0.0,0.0,0.0,0.0,0.0,0.0,0.0,0.0,0.0,0.0,0.0,0.0,0.0,0.0,0.0,0.0,0.0,-0.4525,-0.4475,-0.4534,-0.5721,-0.7086,-0.7127,-0.708,-0.7232,-0.7855,-0.7534,-0.7712,-1.0023,-1.0584,-1.0246,-0.9073,-0.8798,-0.8806,-0.8799,-1.1047,-1.2871,-1.2878,-1.2755,-1.3574,-1.6094,-1.6989,-1.7873,0.0,0.0,0.0,0.0,0.0,0.0,0.0,0.0,0.0,0.0,-4.0056,-4.0399,-4.0392,-4.0666,-4.0799,-4.0789,-4.0387,-3.9989,-3.9599,-3.9264,-3.8667,-3.7893,-3.7396,-3.6921,0.0,0.0,0.0,0.0,-3.4153,-3.3582,-3.3479,-3.2048,-3.1539,-3.1482,-3.1482,-3.1482,-3.1586,0.0,0.0,0.0,0.0,0.0,0.0,-1.2305,-1.2305,-1.2305,-1.2305,-1.2305,-1.2305,-1.2305,-1.2305,-1.2305,-1.2305,-1.2305,0.0,0.0,0.0,0.0,0.0,0.0,0.0,0.0,0.0,-1.1316,-1.034,-1.0034,-0.9311,-0.8227,-0.7189,-0.6463,0.0,0.0,0.0,0.0,0.0,0.0,0.0,0.0,0.0,0.0,0.0,0.0,0.0,0.0,0.0,0.0,0.0,0.0,0.0,0.0,0.0,0.0,-0.4515,-0.4917,-0.5483,-0.6295,-0.6832,-0.8074,-1.2307,-1.2609,-1.1677,-1.0833,-0.998,-0.925,-0.8873,-0.8798,-0.9394,-1.1267,-1.233,-1.291,-1.2919,-1.4195,-1.5499,0.0,0.0,0.0,-2.2247,0.0,0.0,0.0,0.0,0.0,0.0,0.0,0.0,0.0,0.0,-4.0669,-4.0662,-4.0754,-4.0675,-4.0387,-4.0214,-3.9832,-3.9238,-3.8832,-3.8376,-3.7859,-3.702,0.0,0.0,0.0,0.0,0.0,-3.464,-3.4037,-3.3479,-3.2571,-3.1951,-3.1482,-3.1482,-3.1482,-3.1497,0.0,0.0,0.0,0.0,0.0,0.0,-1.2305,-1.2305,-1.2305,-1.2305,-1.2305,-1.2258,-1.2151,-1.2138,-1.2098,-1.1977,-1.1971,0.0,0.0,0.0,0.0,0.0,0.0,0.0,-1.181,-1.181,-1.1514,-1.0861,-1.0498,-0.9882,-0.9039,-0.799,-0.7313,-0.6863,-0.6175,0.0,0.0,0.0,0.0,0.0,0.0,0.0,-0.5053,0.0,0.0,0.0,0.0,0.0,0.0,0.0,0.0,0.0,0.0,0.0,0.0,0.0,-0.6114,-0.6314,-0.7065,-0.7469,-0.87,-1.2837,-1.3307,-1.2401,-1.0923,-0.9656,-0.8826,-0.8791,-0.9607,-1.088,-1.2563,-1.292,-1.3208,-1.4125,-1.6173,-1.783,0.0,0.0,0.0,0.0,0.0,0.0,0.0,0.0,0.0,0.0,0.0,0.0,0.0,0.0,-4.0793,-4.0797,-4.079,-4.0568,-4.0209,-4.0017,-3.9645,-3.908,-3.8499,-3.8008,-3.7614,-3.6803,0.0,0.0,0.0,0.0,0.0,-3.4592,-3.3987,-3.3495,-3.2571,-3.1894,-3.1482,-3.1482,-3.1482,-3.1482,0.0,0.0,0.0,0.0,0.0,0.0,0.0,-1.2305,-1.2291,-1.2271,-1.2271,-1.2164,-1.187,-1.1837,-1.1724,-1.145,-1.1423,0.0,0.0,0.0,0.0,0.0,0.0,0.0,-1.0969,-1.0982,-1.0995,-1.0995,-1.0043,-0.9749,-0.9955,-0.8742,-0.8042,-0.7757,-0.7534,-0.6899,0.0,0.0,0.0,0.0,0.0,0.0,0.0,0.0,0.0,0.0,0.0,0.0,0.0,0.0,0.0,0.0,0.0,0.0,0.0,0.0,0.0,0.0,0.0,-0.8705,-0.907,-1.0219,-1.0553,-1.0599,-1.0485,-0.9755,0.0,-0.9096,-1.1115,-1.2908,-1.2899,-1.288,-1.3679,-1.6091,-1.8241,0.0,0.0,-2.3378,0.0,0.0,0.0,0.0,0.0,0.0,0.0,0.0,0.0,0.0,0.0,0.0,-4.0794,-4.0804,-4.07,-4.0513,-4.0169,-3.9785,-3.9414,-3.9044,-3.8223,-3.7614,-3.7173,-3.662,0.0,0.0,0.0,0.0,0.0,-3.4186,-3.3582,-3.3391,-3.2104,-3.1539,-3.1482,-3.1482,-3.1482,-3.1482,0.0,0.0,0.0,0.0,0.0,0.0,0.0,0.0,0.0,0.0,-1.1971,-1.1857,-1.1563,-1.153,-1.1503,0.0,0.0,0.0,0.0,0.0,0.0,0.0,0.0,0.0,-1.0668,-1.0882,-1.0995,-1.0995,-1.0784,-1.0574,-1.0419,-0.9104,-0.8383,-0.8015,-0.7203,-0.6677,0.0,0.0,0.0,0.0,0.0,0.0,0.0,0.0,0.0,0.0,-0.42,-0.4247,0.0,0.0,0.0,0.0,0.0,0.0,0.0,0.0,-0.8138,-0.7419,-0.7419,0.0,-0.8893,-0.915,-0.989,-1.0342,0.0,-1.0601,-1.193,-1.1935,-1.2476,-1.2899,-1.2879,-1.2905,-1.3678,-1.6086,0.0,0.0,0.0,0.0,0.0,0.0,0.0,0.0,0.0,0.0,0.0,0.0,0.0,0.0,0.0,0.0,-4.077,-4.0731,-4.04,-4.008,-3.9724,-3.9641,-3.9327,-3.8773,-3.7825,-3.7285,-3.719,-3.6207,0.0,0.0,0.0,0.0,-3.4783,-3.4479,-3.3735,-3.2788,-3.2477,-3.2007,-3.1482,-3.1482,-3.1482,-3.1482,0.0,0.0,0.0,0.0,0.0,0.0,0.0,0.0,0.0,0.0,-1.175,-1.155,-1.1263,-1.1229,-1.1176,0.0,0.0,0.0,0.0,0.0,0.0,0.0,0.0,-1.0394,-0.996,-1.0107,-1.0254,-1.0394,-1.0394,-1.0381,-1.0354,-0.9794,-0.9185,-0.8608,-0.7563,-0.7069,0.0,0.0,0.0,0.0,0.0,0.0,0.0,0.0,0.0,0.0,-0.5266,-0.5362,0.0,-0.8082,-0.8786,-0.8783,0.0,0.0,0.0,0.0,-0.7502,-0.7022,-0.7,-0.7493,-0.7985,-0.7993,-0.8479,-0.9254,-1.041,-1.1824,-1.2884,-1.2909,-1.29,-1.288,-1.2909,-1.462,-1.6162,0.0,-1.6512,0.0,0.0,0.0,0.0,0.0,0.0,0.0,0.0,0.0,0.0,0.0,0.0,0.0,0.0,0.0,-4.0668,-4.0478,-4.0234,-3.9943,-3.9599,-3.9457,-3.8998,-3.8332,-3.756,-3.7058,-3.6803,-3.5968,0.0,0.0,0.0,0.0,-3.4592,-3.4284,-3.3531,-3.2547,-3.2231,-3.1853,-3.1482,-3.1482,-3.1482,-3.1482,0.0,0.0,0.0,0.0,0.0,0.0,0.0,0.0,0.0,0.0,0.0,0.0,0.0,0.0,0.0,0.0,0.0,0.0,0.0,0.0,0.0,0.0,-0.998,-0.9753,-0.9196,-0.9183,-0.9385,-0.9686,-0.9639,-0.9746,-0.9987,-1.0194,-0.9893,-0.911,-0.8244,-0.7747,0.0,0.0,0.0,0.0,0.0,0.0,0.0,0.0,0.0,0.0,0.0,0.0,0.0,-0.8203,-0.8669,-0.8776,-0.8776,0.0,0.0,0.0,0.0,0.0,-0.7398,-0.751,-0.7561,-0.7816,-0.7921,-0.8697,-1.179,-1.2735,-1.2879,-1.2887,-1.2912,-1.3024,-1.3406,-1.6646,0.0,0.0,0.0,0.0,0.0,0.0,0.0,0.0,0.0,0.0,0.0,0.0,0.0,0.0,0.0,0.0,0.0,0.0,0.0,-4.0191,-4.0078,-3.9861,-3.9529,-3.9238,-3.8744,-3.8032,-3.747,-3.696,-3.6498,-3.5898,-3.5622,0.0,0.0,0.0,-3.4528,-3.3887,-3.3182,-3.2547,-3.1796,-3.1482,-3.1482,-3.1482,-3.1482,-3.1482,0.0,0.0,0.0,0.0,0.0,0.0,0.0,0.0,0.0,0.0,0.0,0.0,0.0,0.0,0.0,0.0,0.0,0.0,0.0,0.0,0.0,-0.9329,-0.9316,-0.9276,-0.919,-0.9183,-0.9385,-0.9686,-0.9432,-0.9276,-0.9316,-0.9172,-0.9005,-0.8878,-0.8725,-0.8626,-0.8586,-0.8421,0.0,0.0,0.0,0.0,0.0,0.0,0.0,0.0,0.0,0.0,0.0,-0.7204,-0.7954,-0.8776,-0.8776,0.0,0.0,0.0,0.0,0.0,-0.9283,-0.9785,-1.0148,-1.162,-1.1977,-1.1762,-1.0894,-1.1866,-1.2886,-1.2882,-1.2903,-1.3528,-1.5581,-1.6515,-1.9699,0.0,0.0,0.0,0.0,0.0,0.0,0.0,0.0,0.0,0.0,0.0,0.0,0.0,0.0,0.0,0.0,0.0,0.0,-4.0119,-3.9838,-3.9529,-3.916,-3.9125,-3.8915,-3.8578,-3.7632,-3.7152,-3.702,-3.6054,-3.5622,0.0,0.0,-3.5207,-3.4528,-3.3887,-3.3182,-3.2547,-3.1796,-3.1482,-3.1482,-3.1482,-3.1482,-3.1482,0.0,0.0,0.0,0.0,0.0,0.0,0.0,0.0,0.0,0.0,0.0,0.0,0.0,0.0,0.0,0.0,0.0,0.0,0.0,0.0,-0.9385,-0.919,-0.9037,-0.9005,-0.9005,-0.9005,-0.9152,-0.9446,-0.925,-0.9183,-0.9176,-0.8945,-0.9138,-0.9731,-0.9079,-0.8811,-0.8798,-0.8813,-0.8803,0.0,0.0,0.0,0.0,0.0,0.0,0.0,0.0,0.0,0.0,0.0,-0.7818,-0.881,-0.8799,0.0,0.0,0.0,0.0,0.0,-1.0004,-1.0999,-1.2357,-1.499,-1.3577,-1.1277,-1.0464,-1.1734,-1.3379,-1.458,-1.4858,-1.5174,-1.6273,0.0,-2.5166,-2.6965,0.0,0.0,0.0,0.0,0.0,0.0,0.0,0.0,0.0,0.0,0.0,0.0,0.0,0.0,0.0,0.0,0.0,0.0,-3.9486,-3.9197,-3.8884,-3.8603,-3.8273,-3.7861,-3.7414,-3.6921,-3.6333,-3.581,-3.5622,-3.5622,0.0,-3.5207,-3.4528,-3.3887,-3.3182,-3.2547,-3.1796,-3.1482,-3.1482,-3.1482,-3.1482,-3.1482,0.0,0.0,0.0,0.0,0.0,0.0,0.0,0.0,0.0,0.0,0.0,0.0,0.0,0.0,0.0,0.0,0.0,0.0,0.0,-0.9117,-0.9084,-0.9084,-0.8925,-0.8871,-0.9011,-0.8878,-0.8945,-0.9183,-0.9117,-0.9084,-0.9077,-0.8918,-0.9302,-1.0141,-0.9212,-0.8778,-0.8808,-0.8797,-0.8658,-0.8362,0.0,0.0,0.0,0.0,0.0,0.0,0.0,0.0,0.0,0.0,0.0,0.0,0.0,0.0,0.0,-0.9808,-1.0309,-1.0311,-1.0309,-1.1256,-1.2904,-1.554,-1.4733,-1.3314,-1.3299,-1.444,-1.5986,-1.7698,-1.7627,-1.7447,0.0,-2.5984,0.0,0.0,0.0,0.0,0.0,0.0,0.0,0.0,0.0,0.0,0.0,0.0,0.0,0.0,0.0,0.0,0.0,0.0,0.0,0.0,-3.9238,-3.8971,-3.8707,-3.8183,-3.772,-3.736,-3.7152,-3.6563,-3.5766,-3.5667,-3.5622,-3.5622,-3.5622,-3.5207,-3.4528,-3.3887,-3.3182,-3.2547,-3.1796,-3.1482,-3.1482,-3.1482,-3.1482,-3.1482,0.0,0.0,0.0,0.0,0.0,0.0,0.0,0.0,0.0,0.0,0.0,0.0,0.0,0.0,0.0,0.0,0.0,0.0,0.0,-0.8985,-0.8838,-0.8838,-0.8818,-0.9065,-0.9606,-0.9085,-0.8945,-0.9183,-0.8971,-0.8838,-0.8844,-0.8793,-0.8834,-0.8897,-0.8824,-0.8781,-0.8783,-0.881,-0.8133,-0.711,-0.7139,0.0,0.0,0.0,0.0,0.0,0.0,0.0,0.0,0.0,0.0,0.0,0.0,0.0,-1.0089,-1.0236,-1.0312,-1.0283,-1.029,-1.0392,-1.0526,-1.0768,-1.6579,-2.2188,-2.2158,-2.2281,-2.2454,-2.2597,-2.1005,-2.027,0.0,-2.9793,0.0,0.0,0.0,0.0,0.0,0.0,0.0,0.0,0.0,0.0,0.0,0.0,0.0,0.0,0.0,0.0,0.0,0.0,0.0,0.0,0.0,-3.8971,-3.8707,-3.8183,-3.7859,-3.7825,-3.6904,-3.6416,-3.635,-3.5827,-3.5622,-3.5622,-3.5622,-3.5207,-3.4528,-3.3887,-3.3182,-3.2547,-3.1796,-3.1482,-3.1482,-3.1482,-3.1482,-3.1482,0.0,0.0,0.0,0.0,0.0,0.0,0.0,0.0,0.0,0.0,0.0,0.0,0.0,0.0,0.0,0.0,0.0,0.0,0.0,-0.8871,-0.8884,-0.9065,-0.8905,-0.8998,-0.9399,-0.9011,-0.8864,-0.8971,-0.8864,-0.8804,-0.8811,-0.8798,-0.8811,-0.882,-0.882,-0.8377,-0.7698,-0.7669,-0.7432,-0.7009,-0.6995,-0.6999,0.0,0.0,0.0,0.0,0.0,0.0,0.0,0.0,-0.8027,-0.7219,-0.9582,-1.0282,-1.0299,-1.0312,-1.0301,-1.0309,-1.0301,-1.0306,-1.0584,-1.1824,-1.4526,-1.6926,-1.6951,-2.0152,-2.3607,-2.5485,-2.5245,-2.4835,0.0,0.0,0.0,0.0,0.0,0.0,0.0,0.0,0.0,0.0,0.0,0.0,0.0,0.0,0.0,0.0,0.0,0.0,0.0,0.0,0.0,0.0,0.0,-3.8646,-3.8216,-3.7703,-3.7285,-3.6964,-3.6563,-3.6224,-3.5898,-3.5694,-3.5622,-3.5622,-3.5622,-3.5207,-3.4528,-3.3887,-3.3182,-3.2547,-3.1796,-3.1482,-3.1482,-3.1482,-3.1482,-3.1482,0.0,0.0,0.0,0.0,0.0,0.0,0.0,0.0,0.0,0.0,0.0,0.0,0.0,0.0,0.0,0.0,0.0,0.0,-0.8824,-0.8804,-0.8898,-0.9044,-0.8911,-0.8898,-0.9044,-0.8911,-0.8804,-0.8804,-0.8804,-0.8804,-0.8804,-0.8804,-0.8802,-0.8788,-0.8383,-0.7782,-0.7018,-0.7007,-0.6998,-0.6985,-0.6979,-0.6996,0.0,0.0,0.0,0.0,0.0,0.0,0.0,0.0,-0.8676,-0.8002,-0.9737,-1.0313,-1.0301,-1.0303,-1.0733,-1.1232,-1.1204,-1.1225,-1.2048,-1.5453,-1.4755,-1.3575,-1.4931,-2.0038,-2.5131,-2.7164,-2.8186,-2.8893,-2.9403,0.0,0.0,0.0,0.0,0.0,0.0,0.0,0.0,0.0,0.0,0.0,0.0,0.0,0.0,0.0,0.0,0.0,0.0,0.0,0.0,0.0,0.0,0.0,-3.7893,-3.7285,-3.6764,-3.6374,-3.6224,-3.5941,-3.5605,-3.5368,-3.5402,-3.5577,-3.5362,-3.4894,-3.4235,-3.3531,-3.2895,-3.2216,-3.1697,-3.1482,-3.1482,-3.1482,-3.1482,-3.1482,0.0,0.0,0.0,0.0,0.0,0.0,0.0,0.0,0.0,0.0,0.0,0.0,0.0,0.0,0.0,0.0,0.0,0.0,-0.8824,-0.8804,-0.8804,-0.8804,-0.8804,-0.8804,-0.8804,-0.8804,-0.8804,-0.8804,-0.8804,-0.8798,-0.8798,-0.8798,-0.879,-0.8765,-0.7599,-0.7044,-0.705,-0.7049,-0.7044,-0.7044,-0.7044,-0.7044,-0.7044,0.0,0.0,0.0,0.0,0.0,0.0,0.0,-0.772,-0.8019,-0.9752,-1.0293,-1.0351,-1.0348,-1.169,-1.3204,-1.3256,-1.3237,-1.4846,-2.137,-1.8139,-1.4473,-1.8789,-2.3816,-2.7611,-2.7637,-2.9518,-3.209,-3.5041,-3.2032,0.0,0.0,0.0,0.0,0.0,0.0,0.0,0.0,0.0,0.0,0.0,0.0,0.0,0.0,0.0,0.0,0.0,0.0,0.0,0.0,0.0,0.0,-3.7893,-3.6904,-3.6392,-3.6392,-3.5854,-3.556,-3.5588,-3.4844,-3.4912,-3.556,-3.4894,-3.4235,-3.3531,-3.2895,-3.2176,-3.1482,-3.1482,-3.1482,-3.1482,-3.1482,-3.1482,-3.1482,0.0,0.0,0.0,0.0,0.0,0.0,0.0,0.0,0.0,0.0,0.0,0.0,0.0,0.0,0.0,0.0,0.0,0.0,-0.8811,-0.8804,-0.8804,-0.8804,-0.8804,-0.8804,-0.8804,-0.8786,-0.8779,-0.8804,-0.882,-0.8797,-0.8797,-0.882,-0.8808,-0.8845,-1.0429,-1.0454,-0.9333,-0.9319,-0.9322,-0.9322,-0.9322,-0.9319,-0.9319,0.0,0.0,0.0,0.0,0.0,0.0,0.0,0.0,0.0,-1.0137,-1.1224,-1.2321,-1.2351,-1.2732,-1.3877,-1.7008,-1.7846,-1.7869,-1.792,-2.0693,-2.3657,-2.495,-2.647,-2.8099,-2.976,-3.07,-3.1828,-3.3954,0.0,0.0,0.0,0.0,0.0,0.0,0.0,0.0,0.0,0.0,0.0,0.0,0.0,0.0,0.0,0.0,0.0,0.0,0.0,0.0,0.0,0.0,0.0,-3.7396,-3.6724,-3.6224,-3.581,-3.5152,-3.5115,-3.556,-3.5385,-3.516,-3.4894,-3.4688,-3.3937,-3.2841,-3.2104,-3.1697,-3.1482,-3.1482,-3.1482,-3.1482,-3.1482,-3.1482,-3.1482,0.0,0.0,0.0,0.0,0.0,0.0,0.0,0.0,0.0,0.0,-0.9947,0.0,0.0,0.0,0.0,0.0,0.0,0.0,0.0,-0.8804,-0.8804,-0.8804,-0.8804,-0.881,-0.8813,-0.8825,-0.8798,-0.8804,-0.8784,-0.9022,-0.9381,-0.942,-0.9744,-1.047,-1.1442,-1.1271,-1.0298,-1.0298,-1.0298,-1.0312,-1.0314,-1.0302,-1.0223,0.0,0.0,0.0,0.0,0.0,0.0,0.0,0.0,0.0,-1.0309,-1.1631,-1.3216,-1.3192,-1.318,-1.3778,-1.6437,-1.7664,-1.8575,-2.0117,-2.4073,-2.7858,-2.8783,0.0,0.0,0.0,-3.1758,-3.2559,-3.3616,0.0,0.0,0.0,0.0,0.0,0.0,0.0,0.0,0.0,0.0,0.0,0.0,0.0,0.0,0.0,0.0,0.0,0.0,0.0,0.0,0.0,0.0,0.0,-3.6865,-3.6333,-3.5788,-3.5165,-3.4709,-3.4726,-3.5165,-3.5165,-3.4968,-3.4576,-3.4037,-3.3182,-3.212,-3.1682,-3.1482,-3.1482,-3.1482,-3.1482,-3.1482,-3.1482,-3.1482,-3.1482,0.0,0.0,0.0,0.0,0.0,0.0,0.0,0.0,0.0,0.0,-0.9646,-0.9526,0.0,0.0,0.0,0.0,0.0,0.0,0.0,-0.8804,-0.8804,-0.8804,-0.8798,-0.8761,-0.8727,-0.8806,-0.876,-0.8629,-0.882,-0.9383,-1.0286,-1.0287,-1.123,-1.2813,-1.1057,-1.0386,-1.0529,-1.0529,-1.0554,-1.0524,-1.0536,-1.0351,-0.9878,-0.8299,0.0,0.0,0.0,0.0,0.0,0.0,0.0,0.0,-1.0556,-1.1789,-1.319,-1.3192,-1.3643,-1.4059,-1.356,-1.5118,-1.8641,-2.6062,-2.7933,0.0,-3.0712,-3.1317,-3.1445,-3.1445,0.0,-3.38,0.0,0.0,0.0,0.0,0.0,0.0,0.0,0.0,0.0,0.0,0.0,0.0,0.0,0.0,0.0,0.0,0.0,0.0,0.0,0.0,0.0,0.0,0.0,0.0,-3.6374,-3.5854,-3.5233,0.0,-3.4556,-3.4513,-3.4401,-3.4401,-3.4397,-3.4333,-3.3039,-3.212,-3.1482,-3.1482,-3.1482,-3.1482,-3.1482,-3.1482,-3.1482,-3.1482,-3.1482,-3.1482,0.0,0.0,0.0,0.0,0.0,0.0,0.0,0.0,0.0,0.0,0.0,0.0,0.0,0.0,0.0,0.0,0.0,0.0,0.0,-0.8804,-0.8804,-0.8804,-0.8776,-0.8659,-0.8357,-0.8613,-0.835,-0.7387,-0.9125,-1.0077,-1.0283,-1.0309,-1.1241,-1.2824,-1.1077,-1.1064,-1.232,-1.232,-1.2326,-1.236,-1.2324,-1.0695,-0.82,-0.7859,-0.7685,0.0,0.0,0.0,0.0,0.0,0.0,0.0,-1.2579,-1.2853,-1.3223,-1.3179,-1.7079,-2.0458,-1.6379,-2.0038,-2.5939,-2.9527,-3.0423,-3.0577,-3.1079,-3.2248,-3.3234,-3.3234,-3.3549,0.0,0.0,0.0,0.0,0.0,0.0,0.0,0.0,0.0,0.0,0.0,0.0,0.0,0.0,0.0,0.0,0.0,0.0,0.0,0.0,0.0,0.0,0.0,0.0,-3.6374,-3.6374,-3.5854,-3.5233,0.0,-3.5098,-3.4762,-3.3723,-3.3723,-3.347,-3.2986,-3.2104,-3.164,-3.1482,-3.1482,-3.1482,-3.1482,-3.1482,-3.1482,-3.1482,-3.1482,-3.1482,-3.1482,0.0,0.0,0.0,0.0,0.0,0.0,0.0,0.0,0.0,0.0,0.0,0.0,0.0,0.0,0.0,0.0,0.0,0.0,0.0,0.0,-0.8783,-0.8776,-0.8791,-0.8719,-0.85,-0.9175,-0.9637,-0.9831,-1.0965,-1.1557,-1.1528,-1.1535,-1.2047,-1.2847,-1.1937,-1.2051,-1.2871,-1.2027,-1.1644,-1.1675,-1.1683,-1.0562,-0.8957,-0.896,-0.8958,-0.9052,-0.9957,0.0,0.0,0.0,0.0,0.0,0.0,0.0,-1.3195,-1.3213,-1.6349,-1.9817,-1.9594,-2.4329,-2.9635,-3.0891,0.0,-3.1433,-3.2246,-3.3152,-3.3779,-3.3798,0.0,0.0,0.0,0.0,0.0,0.0,0.0,0.0,0.0,0.0,0.0,0.0,0.0,0.0,0.0,0.0,0.0,0.0,0.0,0.0,0.0,0.0,0.0,0.0,-3.6291,-3.6028,-3.6028,-3.5382,-3.4709,-3.3981,-3.3705,-3.3027,-3.2062,-3.2734,-3.2902,-3.2547,-3.1796,-3.1482,-3.1482,-3.1482,-3.1482,-3.1482,-3.1482,-3.1482,-3.1482,-3.1482,-3.1482,-3.1482,0.0,0.0,0.0,0.0,0.0,0.0,0.0,0.0,0.0,0.0,0.0,0.0,0.0,0.0,0.0,0.0,0.0,0.0,0.0,0.0,0.0,-0.8904,-0.883,-0.8778,-0.8814,-1.0072,-1.1476,-1.29,-1.2884,-1.2899,-1.2882,-1.2909,-1.2889,-1.2903,-1.2909,-1.2882,-1.2771,-1.1047,-1.0312,-1.0319,-1.031,-1.0283,-1.0281,-1.0291,-1.0491,-1.0794,-1.0787,-1.1837,-1.3212,-1.3179,0.0,0.0,0.0,0.0,-1.3257,-1.3557,-1.467,-1.6755,-2.1069,-2.6631,-3.1202,-3.1199,-3.1426,0.0,-3.3484,-3.3789,-3.3869,0.0,0.0,0.0,0.0,0.0,0.0,0.0,0.0,0.0,0.0,0.0,0.0,0.0,0.0,0.0,0.0,0.0,0.0,0.0,0.0,0.0,0.0,0.0,-3.6333,-3.6249,-3.5691,-3.5419,-3.5419,-3.4675,-3.3931,-3.3203,-3.1967,-3.1131,-3.0722,-3.1867,-3.2437,-3.2382,-3.1739,-3.1482,-3.1482,-3.1482,-3.1482,-3.1482,-3.1482,-3.1482,-3.1482,-3.1482,-3.1482,-3.1482,0.0,0.0,0.0,0.0,0.0,0.0,0.0,0.0,0.0,0.0,0.0,0.0,0.0,0.0,0.0,0.0,0.0,0.0,0.0,0.0,0.0,-0.9321,-0.901,-0.8776,-0.8801,-1.1268,-1.2673,-1.292,-1.2905,-1.289,-1.2898,-1.289,-1.289,-1.2878,-1.2879,-1.2898,-1.2783,-1.1045,-1.0306,-1.0312,-1.0291,-1.0288,-1.0296,-1.0287,-1.1369,-1.2793,-1.2794,-1.2972,-1.3212,-1.3179,-1.3198,0.0,0.0,0.0,0.0,-1.5012,-1.5634,-1.5962,-1.6666,0.0,-3.12,0.0,-3.2329,-3.3502,0.0,0.0,-3.4093,0.0,0.0,0.0,0.0,0.0,0.0,0.0,0.0,0.0,0.0,0.0,0.0,0.0,0.0,0.0,0.0,0.0,0.0,0.0,0.0,0.0,0.0,-3.6724,-3.6182,-3.5739,-3.5023,-3.4641,-3.4641,-3.3931,-3.3169,-3.2442,-3.1723,-3.1448,-3.1471,-3.1617,-3.164,-3.164,-3.1524,-3.1482,-3.1482,-3.1482,-3.1482,-3.1482,-3.1482,-3.1482,-3.1482,-3.1482,-3.1482,-3.1482,0.0,0.0,0.0,0.0,0.0,0.0,0.0,0.0,0.0,0.0,0.0,0.0,0.0,0.0,0.0,0.0,0.0,0.0,0.0,0.0,0.0,-1.0147,-0.8628,-0.8825,-1.1064,-1.2271,-1.2922,-1.2914,-1.2909,-1.2881,-1.2881,-1.2881,-1.2881,-1.292,-1.2879,-1.2348,-1.141,-1.0654,-1.0292,-1.0303,-1.0308,-1.0968,-1.1923,-1.1912,-1.245,-1.3203,-1.3214,-1.3206,-1.3204,-1.3209,-1.3213,-1.3208,-1.3188,0.0,0.0,0.0,-1.58,-1.6323,-1.8792,-2.5203,-3.1438,0.0,-3.3221,-3.3807,-3.3807,0.0,0.0,0.0,0.0,0.0,0.0,0.0,0.0,0.0,0.0,0.0,0.0,0.0,0.0,0.0,0.0,0.0,0.0,0.0,0.0,0.0,0.0,0.0,-3.6781,-3.6249,-3.5854,-3.5622,-3.4878,-3.4489,-3.4489,-3.3355,-3.2068,-3.0685,-3.1162,-3.1087,-3.0502,-3.1174,-3.1482,-3.1482,-3.1482,-3.1482,-3.1482,-3.1482,-3.1482,-3.1482,-3.1482,-3.1482,-3.1482,-3.1482,-3.1482,-3.1482,0.0,0.0,0.0,0.0,0.0,0.0,0.0,0.0,0.0,0.0,0.0,0.0,0.0,0.0,0.0,0.0,0.0,0.0,0.0,0.0,0.0,-1.0717,-0.9291,-0.9885,-1.2839,-1.2906,-1.2885,-1.2881,-1.2881,-1.2881,-1.2881,-1.2881,-1.29,-1.288,-1.2904,-1.1949,-1.0349,-1.0815,-1.1058,-1.103,-1.1026,-1.191,-1.334,-1.4461,-1.4179,-1.3185,-1.3216,-1.32,-1.3206,-1.3208,-1.348,-1.3866,-1.3857,-1.4758,0.0,0.0,0.0,-1.7184,-2.1201,0.0,-3.2166,-3.349,-3.3785,-3.3798,0.0,0.0,0.0,0.0,0.0,0.0,0.0,0.0,0.0,0.0,0.0,0.0,0.0,0.0,0.0,0.0,0.0,0.0,0.0,0.0,0.0,0.0,0.0,0.0,-3.6392,-3.5898,-3.5622,-3.5622,-3.4709,-3.4218,-3.4218,-3.2605,-3.1007,-2.9422,-3.0593,-3.0643,-2.9624,-3.0941,-3.1482,-3.1482,-3.1482,-3.1482,-3.1482,-3.1482,-3.1482,-3.1482,-3.1482,-3.1482,-3.1482,-3.1482,-3.1482,-3.1482,0.0,0.0,0.0,0.0,0.0,0.0,0.0,0.0,0.0,0.0,0.0,0.0,-1.0598,-1.0584,-1.0577,-1.0577,-1.0845,-1.1092,-1.1216,-1.144,-1.1325,-1.0637,-1.1868,0.0,-1.29,-1.29,-1.291,-1.2881,-1.2881,-1.2881,-1.2881,-1.2881,-1.2918,-1.2899,-1.292,-1.1923,-1.0406,-1.2253,-1.3045,-1.3057,-1.3039,-1.3089,-1.3673,-1.7876,-1.6854,-1.3181,-1.3207,-1.3205,-1.3204,-1.3209,-1.4295,-1.5647,-1.5677,-1.5725,-1.5802,0.0,0.0,0.0,0.0,-2.7869,0.0,-3.3771,-3.3808,-3.3792,0.0,0.0,0.0,0.0,0.0,0.0,0.0,0.0,0.0,0.0,0.0,0.0,0.0,0.0,0.0,0.0,0.0,0.0,0.0,0.0,0.0,0.0,0.0,0.0,-3.6374,-3.5898,-3.5622,-3.5622,-3.4218,-3.3457,-3.3457,-3.1441,-3.007,-2.9422,-3.0172,-3.021,-2.9624,-3.0941,-3.1482,-3.1482,-3.1482,-3.1482,-3.1482,-3.1482,-3.1482,-3.1482,-3.1482,-3.1482,-3.1482,-3.1482,-3.1482,-3.1482,0.0,0.0,0.0,0.0,0.0,0.0,0.0,0.0,0.0,0.0,0.0,0.0,0.0,-1.0609,-1.0606,-1.0597,-1.1145,-1.1529,-1.1535,-1.2118,-1.2373,-1.2109,-1.2607,-1.2881,-1.2881,-1.2881,-1.288,-1.2909,-1.2909,-1.2882,-1.2888,-1.2875,-1.2899,-1.2861,-1.1729,-1.1581,-1.2189,-1.2896,-1.319,-1.3212,-1.3191,-1.4897,-1.7604,-1.9193,-1.8809,0.0,0.0,0.0,0.0,-1.4476,-1.5291,-1.5798,-1.5785,-1.5794,-1.5966,-1.6839,-1.8798,-2.0938,0.0,0.0,0.0,-2.764,-3.0746,-3.3984,0.0,0.0,0.0,0.0,0.0,0.0,0.0,0.0,0.0,0.0,0.0,0.0,0.0,0.0,0.0,0.0,0.0,0.0,0.0,0.0,0.0,0.0,0.0,0.0,-3.5854,-3.5694,-3.5622,-3.5622,-3.4184,-3.2949,-3.2002,-3.0867,-2.9995,-2.9422,-3.0123,-3.0158,-2.9624,-3.0941,-3.1482,-3.1482,-3.1482,-3.1482,-3.1482,-3.1482,-3.1482,-3.1482,-3.1482,-3.1482,-3.1482,-3.1482,-3.1482,-3.1482,0.0,0.0,0.0,0.0,0.0,0.0,0.0,0.0,0.0,-1.0624,0.0,0.0,0.0,0.0,-1.1295,-1.0997,-1.1399,-1.1818,-1.2082,-1.2594,-1.2881,-1.2881,-1.2881,-1.2881,-1.2881,-1.2918,-1.2902,-1.2924,-1.2322,-1.2054,-1.2037,-1.2011,-1.2362,-1.2946,-1.1787,-1.1997,-1.322,-1.3192,-1.3194,-1.3191,-1.3215,-1.5833,-1.9823,-1.9803,0.0,0.0,0.0,0.0,0.0,0.0,0.0,0.0,-1.5809,-1.6107,-1.6649,-1.7549,-1.9932,0.0,-2.2297,0.0,0.0,0.0,0.0,-3.1751,0.0,0.0,0.0,0.0,0.0,0.0,0.0,0.0,0.0,0.0,0.0,0.0,0.0,0.0,0.0,0.0,0.0,0.0,0.0,0.0,0.0,0.0,0.0,0.0,-3.5622,-3.5622,-3.5385,-3.4895,-3.3914,-3.2696,-3.1207,-3.0601,-2.9995,-2.9422,-2.9937,-2.9996,-2.9624,-3.0702,-3.1315,-3.1482,-3.1482,-3.1482,-3.1482,-3.1482,-3.1482,-3.1482,-3.1482,-3.1482,-3.1482,-3.1482,-3.1482,-3.1482,0.0,0.0,0.0,0.0,0.0,0.0,0.0,0.0,-1.0611,-1.0611,0.0,0.0,0.0,0.0,0.0,-1.1808,-1.1748,-1.2091,-1.2852,-1.2881,-1.2881,-1.2881,-1.292,-1.292,-1.292,-1.2879,-1.2894,-1.2817,-1.1107,-1.029,-1.0316,-1.0367,-1.1376,-1.3191,-1.3182,-1.319,-1.3212,-1.3204,-1.3198,-1.3181,0.0,-1.59,-1.9885,0.0,0.0,0.0,-2.0934,-2.5203,0.0,-1.8648,0.0,0.0,0.0,0.0,0.0,0.0,0.0,0.0,0.0,0.0,0.0,0.0,0.0,0.0,0.0,0.0,0.0,0.0,0.0,0.0,0.0,0.0,0.0,0.0,0.0,0.0,0.0,0.0,0.0,0.0,0.0,0.0,0.0,0.0,0.0,0.0,0.0,-3.5622,-3.5622,-3.5622,-3.4928,-3.3457,-3.3406,-3.2696,-3.1207,-3.0559,-2.9978,-2.9422,-2.9451,-2.9531,-2.9609,-3.0238,-3.0896,-3.1482,-3.1482,-3.1482,-3.1482,-3.1482,-3.1482,-3.1482,-3.1482,-3.1482,-3.1482,-3.1482,-3.1482,-3.1482,0.0,0.0,0.0,0.0,0.0,0.0,-1.0624,-1.0588,-1.0588,0.0,0.0,0.0,-0.9409,-1.1472,-1.2837,-1.2601,-1.2563,-1.2674,-1.2891,-1.2881,-1.2881,-1.2881,-1.2895,-1.2916,-1.2916,-1.2892,-1.2279,-1.1013,-1.0552,-1.0307,-1.0329,-1.1724,-1.2689,-1.3179,-1.3191,-1.3185,-1.3191,-1.3188,-1.3198,-1.3181,-1.3189,-1.6954,0.0,0.0,0.0,0.0,0.0,-2.2111,-2.6962,0.0,-2.2422,-2.2926,0.0,0.0,-1.8219,0.0,0.0,0.0,-2.3425,0.0,0.0,0.0,0.0,0.0,0.0,0.0,0.0,0.0,0.0,0.0,0.0,0.0,0.0,0.0,0.0,0.0,0.0,0.0,0.0,0.0,0.0,0.0,0.0,0.0,0.0,0.0,-3.5599,-3.5622,-3.5622,-3.5622,-3.4928,-3.3457,-3.3406,-3.2696,-3.1207,-3.0166,-2.9585,-2.9422,-2.952,-2.9599,-2.9624,-3.0746,-3.1287,-3.1482,-3.1482,-3.1482,-3.1482,-3.1482,-3.1482,-3.1482,-3.1482,-3.1482,-3.1482,-3.1482,-3.1482,-3.1482,0.0,0.0,0.0,0.0,0.0,-1.0624,-1.0624,-1.0609,-1.0449,0.0,0.0,0.0,-1.0485,-1.1919,-1.2888,-1.29,-1.2881,-1.2881,-1.2881,-1.2898,-1.2924,-1.2924,-1.2884,-1.2579,-1.1826,-1.1807,-1.1336,-1.0291,-1.1118,-1.1529,-1.1511,-1.2687,-1.32,-1.3196,-1.3213,-1.3198,-1.3198,-1.32,0.0,0.0,-1.3205,0.0,0.0,-1.9097,-1.8852,0.0,0.0,0.0,-2.7137,-2.4091,-2.3024,0.0,0.0,0.0,0.0,0.0,0.0,-2.2575,-2.3833,-2.4212,0.0,0.0,0.0,0.0,-2.5129,-2.839,0.0,0.0,0.0,0.0,0.0,0.0,0.0,0.0,0.0,0.0,0.0,0.0,0.0,0.0,0.0,0.0,0.0,0.0,0.0,0.0,-3.5357,-3.5622,-3.5622,-3.5622,-3.4928,-3.3457,-3.3406,-3.2696,-3.1207,-3.0817,-3.0331,-2.9809,-3.0214,-3.0243,-2.9998,-3.0746,-3.127,-3.1482,-3.1482,-3.1482,-3.1482,-3.1482,-3.1482,-3.1482,-3.1482,-3.1482,-3.1482,-3.1482,-3.1482,-3.1482,0.0,0.0,-1.0584,-1.0584,-1.0584,-1.0584,-1.0604,-1.0587,-1.0283,0.0,-0.9252,-1.0171,-1.2622,-1.291,-1.288,-1.288,-1.289,-1.2918,-1.2918,-1.2913,-1.2813,-1.2624,-1.2627,-1.1905,-1.033,-1.0522,-1.0636,-1.0604,-1.235,-1.3192,-1.3212,-1.3212,-1.3208,-1.3198,-1.3198,-1.3185,-1.3216,0.0,0.0,-1.3478,-1.3286,-1.7366,0.0,0.0,-2.5274,-2.7649,-2.7906,-2.7989,-2.7531,-2.4335,-2.1532,0.0,0.0,0.0,0.0,0.0,-2.2302,-2.2582,-2.3868,-2.4194,-2.4192,0.0,0.0,0.0,-2.5153,-2.5888,-2.8236,0.0,0.0,0.0,0.0,0.0,0.0,0.0,0.0,0.0,0.0,0.0,0.0,0.0,0.0,0.0,0.0,0.0,-3.5039,-3.4235,-3.5053,-3.5622,-3.5622,-3.5622,-3.4979,-3.3575,-3.344,-3.2688,-3.1246,-3.1871,-3.1553,-3.0322,-3.1134,-3.1185,-3.0507,-3.0582,-3.0956,-3.1482,-3.1482,-3.1482,-3.1482,-3.1482,-3.1482,-3.1482,-3.1482,-3.1482,-3.1482,-3.1482,-3.1482,-3.1482,0.0,-1.0615,-1.0615,-1.0615,-1.0615,-1.0595,-1.0574,-1.0604,-1.0932,-1.1995,-1.2079,-1.2286,-1.2822,-1.2905,-1.2923,-1.2923,-1.2888,-1.2903,-1.2903,-1.2901,-1.2271,-1.0879,-1.0828,-1.0656,-1.03,-1.1845,-1.2644,-1.2626,-1.2999,-1.32,-1.3213,-1.3213,-1.3188,-1.3198,-1.3198,-1.32,-1.319,0.0,0.0,-1.5157,-1.3756,0.0,-2.3586,-2.3608,-2.5246,-2.785,-2.9816,-3.0525,-3.0391,-2.9712,-2.9053,-2.775,0.0,0.0,0.0,0.0,0.0,0.0,0.0,0.0,0.0,0.0,0.0,0.0,-2.5273,-2.9562,-3.3905,0.0,0.0,0.0,0.0,0.0,0.0,0.0,0.0,0.0,0.0,0.0,0.0,0.0,0.0,0.0,0.0,0.0,-3.4065,-3.4167,-3.5053,-3.5622,-3.5622,-3.5622,-3.5216,-3.4303,-3.3711,-3.274,-3.1381,-3.1513,-3.0949,-2.9681,-3.0978,-3.1213,-3.0522,-3.1076,-3.1347,-3.1482,-3.1482,-3.1482,-3.1482,-3.1482,-3.1482,-3.1482,-3.1482,-3.1482,-3.1482,-3.1482,-3.1482,-3.1482,-1.0604,-1.0105,-0.9702,-0.9702,-1.0171,-1.0604,-1.0615,-1.1955,-1.2967,-1.2932,-1.2898,-1.2881,-1.2905,-1.2876,-1.2569,-1.1676,-1.1616,-1.1606,-1.1606,-1.1619,-1.1665,-1.1727,-1.1748,-1.1751,-1.176,-1.2684,-1.3202,-1.3183,-1.3183,-1.3204,-1.3198,-1.3198,-1.3181,-1.3189,-1.3182,-1.3196,0.0,0.0,-1.5008,-1.5717,-1.485,0.0,-2.0109,-2.3747,-2.6913,-2.9542,-3.0766,-3.1191,-3.1206,-3.1184,-3.1215,0.0,0.0,-2.5827,-2.3876,0.0,-2.5757,-2.3376,0.0,0.0,0.0,-2.419,0.0,0.0,0.0,-2.795,-3.0447,0.0,0.0,0.0,0.0,0.0,0.0,0.0,0.0,0.0,0.0,0.0,0.0,0.0,0.0,0.0,0.0,0.0,-3.3803,-3.4295,-3.5148,-3.5622,-3.5622,-3.5622,-3.5267,-3.4506,-3.4134,-3.3302,-3.1907,-3.2253,-3.1756,-3.0474,-3.1579,-3.1711,-3.1031,-3.1375,-3.1482,-3.1482,-3.1482,-3.1482,-3.1482,-3.1482,-3.1482,-3.1482,-3.1482,-3.1482,-3.1482,-3.1482,-3.1482,-3.1482,-1.0243,-0.9471,-0.8819,-0.8819,-0.9599,-1.0257,-1.0264,-1.2457,-1.3826,-1.2986,-1.2887,-1.292,-1.2897,-1.2607,-1.1808,-1.0418,-1.032,-1.0312,-1.0303,-1.0317,-1.1186,-1.31,-1.321,-1.3204,-1.3192,-1.3213,-1.3196,-1.3198,-1.3198,-1.3198,-1.3198,-1.3198,-1.3218,-1.3251,-1.4605,-1.4647,-1.3796,0.0,0.0,-1.579,0.0,-1.6648,-1.8561,-2.4451,-2.8219,-3.0412,-3.0982,-3.1179,-3.1193,-3.1207,0.0,-3.1691,-3.1607,-2.9034,0.0,0.0,0.0,0.0,0.0,0.0,0.0,0.0,0.0,-2.5302,0.0,0.0,0.0,0.0,0.0,0.0,0.0,0.0,0.0,0.0,0.0,0.0,0.0,0.0,0.0,0.0,0.0,0.0,0.0,0.0,-3.3397,-3.4236,-3.4709,-3.5165,-3.5605,-3.5622,-3.5267,-3.4506,-3.4489,-3.3751,-3.224,-3.3067,-3.2707,-3.1251,-3.2137,-3.2216,-3.1482,-3.1482,-3.1482,-3.1482,-3.1482,-3.1482,-3.1482,-3.1482,-3.1482,-3.1482,-3.1482,-3.1482,-3.1482,-3.1482,-3.1482,-3.1482,-0.8997,-0.8918,-0.8794,-0.8794,-0.8918,-0.8987,-0.9006,-0.9323,-1.0353,-1.2594,-1.2908,-1.2883,-1.2899,0.0,0.0,-1.0322,0.0,0.0,-1.0311,0.0,-1.1164,-1.3123,-1.3192,-1.3191,-1.32,-1.3191,-1.3188,-1.3198,-1.3198,-1.3198,-1.3198,-1.3198,-1.3213,-1.3457,-1.9667,0.0,0.0,0.0,-1.5806,0.0,-1.5816,-1.9673,0.0,-2.6404,-2.6922,-2.754,-3.0251,-3.1219,-3.1192,0.0,-3.2228,-3.2337,0.0,-2.7817,-3.2837,0.0,0.0,0.0,0.0,0.0,0.0,0.0,-2.4745,0.0,0.0,0.0,0.0,0.0,0.0,0.0,0.0,0.0,0.0,0.0,0.0,0.0,0.0,0.0,0.0,0.0,0.0,0.0,0.0,0.0,0.0,-3.3397,-3.2983,-3.3525,-3.552,-3.5622,-3.5267,-3.4506,-3.4489,-3.3556,-3.163,-3.2863,-3.251,-3.0618,-3.1934,-3.2216,-3.1482,-3.1482,-3.1482,-3.1482,-3.1482,-3.1482,-3.1482,-3.1482,-3.1482,-3.1482,-3.1482,-3.1482,-3.1482,-3.1482,-3.1482,-3.1482,-0.8788,-0.881,-0.881,-0.881,-0.8811,-0.8825,-0.8778,-1.0142,-1.1565,-1.2744,-1.2916,-1.3651,0.0,0.0,0.0,0.0,0.0,-1.5075,0.0,0.0,-1.2341,-1.315,-1.5649,-1.5833,-1.3252,-1.3191,-1.3213,-1.3213,-1.318,-1.3203,-1.3203,-1.3192,-1.318,-1.3387,-1.7325,0.0,-2.0133,0.0,-1.5803,0.0,0.0,0.0,0.0,-2.2,-2.4091,-2.9465,-3.0734,-3.1206,-3.1355,0.0,-3.0229,0.0,0.0,0.0,0.0,0.0,0.0,0.0,0.0,0.0,0.0,0.0,0.0,0.0,-2.5292,0.0,-2.5378,0.0,0.0,0.0,0.0,0.0,0.0,0.0,0.0,0.0,0.0,0.0,0.0,0.0,0.0,0.0,0.0,0.0,0.0,0.0,0.0,-3.4167,-3.5554,-3.5622,-3.5267,-3.4506,-3.4912,-3.4143,-3.211,-3.3047,-3.274,-3.1106,-3.166,-3.1796,-3.1482,-3.1482,-3.1482,-3.1482,-3.1482,-3.1482,-3.1482,-3.1482,-3.1482,-3.1482,-3.1482,-3.1482,-3.1482,-3.1482,-3.1482,-3.1482,-0.9316,-0.9045,-0.8788,-0.881,-0.8791,-0.907,-0.9791,-1.1618,-1.2897,0.0,0.0,0.0,-1.6325,-1.6586,0.0,0.0,-1.7431,-1.8858,0.0,0.0,-1.3214,-1.3186,-1.6286,0.0,0.0,-1.3216,-1.3484,-1.4113,-1.4085,-1.4092,-1.4079,-1.4088,-1.4425,-1.5031,0.0,-1.939,-2.3395,0.0,-1.8444,-1.8285,-2.2151,-2.4927,-2.6221,-2.1713,-2.4677,-3.1223,-3.1198,-3.1185,-3.1446,-3.3217,-3.0087,0.0,-2.3389,0.0,0.0,0.0,0.0,0.0,-2.4204,0.0,0.0,0.0,0.0,0.0,0.0,0.0,0.0,0.0,0.0,0.0,0.0,0.0,0.0,0.0,0.0,0.0,0.0,0.0,0.0,0.0,0.0,0.0,0.0,0.0,0.0,0.0,-3.3172,0.0,-3.4962,-3.5199,-3.4962,-3.4218,-3.4912,-3.4518,-3.2821,-3.3104,-3.2782,-3.1796,-3.1582,-3.1482,-3.1482,-3.1482,-3.1482,-3.1482,-3.1482,-3.1482,-3.1482,-3.1482,-3.1482,-3.1482,-3.1482,-3.1482,-3.1482,-3.1482,-3.1482,-3.1482,-1.0523,-0.9588,-0.8774,-0.8827,-0.8802,-0.968,-1.2362,0.0,0.0,0.0,0.0,0.0,0.0,0.0,0.0,0.0,0.0,-1.9751,-1.9812,0.0,-1.3192,-1.3211,-1.3334,-1.3331,0.0,0.0,-1.4274,-1.6399,-1.6412,-1.6373,-1.6412,-1.641,-1.7517,-1.951,-1.9553,-2.1069,-2.3718,-2.5577,-2.5193,-2.2916,-1.8085,-2.0387,-2.6991,0.0,-3.0915,-3.121,-3.119,0.0,0.0,-3.3198,-3.3626,0.0,0.0,0.0,0.0,0.0,0.0,0.0,0.0,0.0,0.0,-3.3499,0.0,0.0,0.0,0.0,-2.539,0.0,0.0,0.0,0.0,0.0,0.0,-2.539,0.0,0.0,0.0,0.0,0.0,0.0,0.0,0.0,0.0,0.0,0.0,-3.0078,-3.0243,-3.119,-3.3355,-3.415,-3.4201,-3.3457,-3.415,-3.4181,-3.3475,-3.2837,-3.255,-3.2547,-3.1853,-3.1482,-3.1482,-3.1482,-3.1482,-3.1482,-3.1482,-3.1482,-3.1482,-3.1482,-3.1482,-3.1482,-3.1482,-3.1482,-3.1482,-3.1482,-3.1482,-3.1482,-1.0609,-1.0261,-1.002,0.0,0.0,0.0,0.0,-1.4572,0.0,0.0,0.0,0.0,0.0,-1.2204,-1.5053,0.0,0.0,-1.9784,-1.9814,-1.8384,0.0,0.0,0.0,-1.6222,0.0,0.0,0.0,0.0,0.0,-1.6509,-1.6491,-1.6507,-1.7654,-1.9694,0.0,-2.0195,0.0,0.0,0.0,0.0,0.0,-2.4478,-2.6819,0.0,0.0,-3.1182,-3.1184,-3.1927,0.0,-3.3611,-3.3797,-3.3412,-3.1241,-3.2568,-3.4502,-3.2316,-3.1669,0.0,0.0,0.0,-2.5849,-2.8165,0.0,0.0,0.0,0.0,0.0,0.0,0.0,0.0,0.0,0.0,0.0,-2.5332,0.0,0.0,0.0,0.0,0.0,0.0,0.0,0.0,0.0,0.0,0.0,-2.9748,-3.0874,-3.1867,0.0,-3.3372,-3.3423,-3.2679,-3.3846,-3.3929,-3.2784,-3.308,-3.3013,-3.2586,-3.1853,-3.1482,-3.1482,-3.1482,-3.1482,-3.1482,-3.1482,-3.1482,-3.1482,-3.1482,-3.1482,-3.1482,-3.1482,-3.1482,-3.1482,-3.1482,-3.1482,-3.1482,-1.0609,0.0,0.0,0.0,0.0,0.0,0.0,0.0,0.0,0.0,-1.2955,0.0,-1.4701,0.0,-1.8289,0.0,-2.1107,-1.9813,-1.9803,-1.9817,0.0,-1.3386,-1.745,0.0,0.0,0.0,0.0,0.0,0.0,-1.6507,-1.6494,-1.7289,-1.8398,-1.9706,0.0,-1.9707,-2.0,0.0,-2.6712,0.0,0.0,-2.6698,0.0,0.0,-2.6067,-2.9824,0.0,-3.2849,-3.3814,-3.3803,-3.3797,-3.3802,-3.3799,-3.4576,-3.5495,-3.5486,-3.549,-3.5492,-3.5512,-3.2354,0.0,-2.9119,-2.7181,0.0,-2.5293,0.0,0.0,0.0,0.0,0.0,0.0,0.0,0.0,-2.6033,-2.5663,0.0,0.0,0.0,0.0,0.0,0.0,0.0,0.0,0.0,-2.8124,-2.8722,-2.998,-3.0937,0.0,0.0,-3.278,-3.2347,-3.3474,-3.3809,-3.3134,-3.3178,-3.3101,-3.2933,-3.1951,-3.1482,-3.1482,-3.1482,-3.1482,-3.1482,-3.1482,-3.1482,-3.1482,-3.1482,-3.1482,-3.1482,-3.1482,-3.1482,-3.1482,-3.1482,-3.1482,-3.1482,0.0,0.0,0.0,0.0,-1.3239,0.0,0.0,0.0,-1.2898,0.0,-1.6042,-1.9497,-2.276,-2.3122,-2.3071,-2.2964,-2.1008,0.0,-1.9808,-1.9577,0.0,0.0,-1.7562,-1.8837,-1.6718,0.0,0.0,0.0,0.0,0.0,-1.6682,-1.8744,-1.9706,-1.9677,-1.9685,0.0,-2.0019,-2.472,-2.6689,-2.6691,-2.6691,-2.6702,-2.6073,-2.0476,0.0,-2.742,-3.1952,-3.3549,-3.3603,-3.376,-3.3815,-3.379,-3.3872,-3.4624,-3.5499,-3.5508,-3.5493,-3.5501,-3.5496,-3.5733,-3.6002,-3.5994,0.0,0.0,0.0,0.0,-2.5703,0.0,0.0,0.0,0.0,0.0,0.0,0.0,-2.6237,0.0,0.0,0.0,0.0,0.0,0.0,0.0,0.0,-2.4147,-2.4923,-2.6974,-2.7537,-2.8433,0.0,0.0,0.0,-3.2222,-3.3,-3.3744,-3.4438,-3.3208,-3.2942,-3.3582,-3.2201,-3.1539,-3.1482,-3.1482,-3.1482,-3.1482,-3.1482,-3.1482,-3.1482,-3.1482,-3.1482,-3.1482,-3.1482,-3.1482,-3.1482,-3.1482,-3.1482,-3.1482,-0.9259,-1.0886,-1.2315,0.0,-1.2979,-1.3397,0.0,0.0,0.0,0.0,-1.807,-2.2135,-2.3026,-2.3096,-2.2446,-2.081,-2.0147,0.0,0.0,0.0,0.0,-1.8013,-1.9191,-1.9514,-1.898,-1.894,0.0,-1.6517,0.0,0.0,-1.8871,-1.9416,-1.9678,-1.9707,0.0,0.0,-2.0019,-2.472,-2.6689,-2.6691,-2.6691,-2.6708,0.0,0.0,-2.7067,-2.8572,-2.9782,-3.0243,-3.0595,-3.3002,-3.3802,-3.3943,-3.48,-3.5249,-3.5499,-3.5508,-3.5493,-3.5507,-3.5501,-3.5746,-3.601,-3.6004,-3.4628,-3.325,0.0,0.0,0.0,0.0,0.0,0.0,0.0,0.0,0.0,0.0,0.0,0.0,0.0,0.0,0.0,0.0,0.0,0.0,0.0,-2.4729,-2.5862,-2.491,-2.645,-2.8078,0.0,0.0,0.0,-3.141,-3.273,-3.3491,-3.3677,-3.3925,-3.3908,-3.3582,-3.2734,-3.2007,-3.1482,-3.1482,-3.1482,-3.1482,-3.1482,-3.1482,-3.1482,-3.1482,-3.1482,-3.1482,-3.1482,-3.1482,-3.1482,-3.1482,-3.1482,-3.1482,-0.8796,0.0,0.0,-1.2906,0.0,0.0,-1.2885,0.0,0.0,-1.8328,-2.1324,0.0,-2.311,-2.2249,-2.1144,-1.9895,-1.9793,0.0,-1.9773,0.0,0.0,-1.9696,-1.9785,-1.9812,-1.9817,-2.0896,0.0,-1.7895,0.0,0.0,-1.9696,-1.97,-1.9678,-1.969,0.0,-1.9697,-2.002,-2.4711,-2.669,-2.6717,-2.6702,0.0,0.0,-2.8415,-2.9018,-2.8989,-2.9,-2.9904,-3.1382,-3.3192,-3.3804,-3.3992,-3.5153,-3.5507,-3.5496,-3.5504,-3.5493,-3.5534,-3.5681,-3.5854,-3.5999,-3.6001,-3.6002,-3.596,-3.5811,-3.2778,-2.9989,0.0,0.0,0.0,0.0,0.0,0.0,0.0,0.0,0.0,0.0,0.0,0.0,0.0,0.0,0.0,0.0,-2.4183,-2.5421,-2.3606,-2.4951,-2.6273,0.0,0.0,0.0,-3.0176,-3.1968,-3.3068,-3.3406,-3.3571,-3.363,-3.3582,-3.2571,-3.1894,-3.1482,-3.1482,-3.1482,-3.1482,-3.1482,-3.1482,-3.1482,-3.1482,-3.1482,-3.1482,-3.1482,-3.1482,-3.1482,-3.1482,-3.1482,-3.1482,0.0,0.0,0.0,0.0,0.0,0.0,0.0,-1.3927,0.0,-2.3761,0.0,-2.1966,-2.2622,-2.0945,-1.9797,-1.9814,0.0,-1.9826,-1.9812,-1.9799,-1.9813,-1.9799,-1.9774,-1.9813,-1.9806,-2.2309,0.0,0.0,0.0,0.0,-1.9706,-1.97,-1.969,-1.969,0.0,0.0,0.0,-2.372,-2.5987,-2.6692,-2.6695,-2.6817,-2.7134,-2.8478,-2.9016,-2.8994,-2.9007,-3.0796,-3.3252,-3.368,-3.3911,-3.4206,-3.5205,-3.55,-3.5493,-3.5493,-3.5493,-3.5573,-3.5909,-3.5989,-3.5999,-3.6003,-3.5989,-3.592,-3.5565,-3.5493,-3.5493,-3.5493,-3.5496,0.0,0.0,0.0,0.0,0.0,0.0,0.0,0.0,0.0,0.0,0.0,0.0,0.0,0.0,0.0,-2.4042,-2.2628,-2.3163,0.0,0.0,0.0,0.0,-2.9228,-3.1326,0.0,-3.3262,0.0,-3.3006,-3.3443,-3.2201,-3.1582,-3.1482,-3.1482,-3.1482,-3.1482,-3.1482,-3.1482,-3.1482,-3.1482,-3.1482,-3.1482,-3.1482,-3.1482,-3.1482,-3.1482,-3.1482,-3.1482,0.0,0.0,0.0,0.0,0.0,-1.4355,-1.8588,-1.9232,-1.828,-1.5613,-1.493,-1.6155,-1.9976,-2.004,-1.9818,-1.9808,-1.9784,0.0,0.0,0.0,0.0,-1.98,-1.9812,-1.978,-1.9795,-2.2326,-2.3405,0.0,0.0,0.0,-1.9706,-1.97,-1.969,0.0,0.0,0.0,-1.6589,-1.853,0.0,-2.6695,-2.6695,-2.7467,-2.8621,-2.8905,-2.9016,-2.9003,-2.9,-2.9357,-3.0243,-3.29,-3.4429,-3.5243,-3.5448,-3.55,-3.5493,-3.5493,-3.5493,-3.5578,-3.5913,-3.6005,-3.6003,-3.5996,-3.6009,-3.592,-3.5592,-3.5493,-3.5493,-3.5493,-3.5515,-3.5217,-3.4268,0.0,0.0,0.0,0.0,0.0,0.0,0.0,0.0,0.0,0.0,0.0,0.0,0.0,0.0,0.0,0.0,0.0,0.0,0.0,0.0,0.0,0.0,0.0,0.0,0.0,0.0,-3.2788,-3.2532,-3.2064,-3.1482,-3.1482,-3.1482,-3.1482,-3.1482,-3.1482,-3.1482,-3.1482,-3.1482,-3.1482,-3.1482,-3.1482,-3.1482,-3.1482,-3.1482,-3.1482,0.0,0.0,0.0,0.0,0.0,0.0,0.0,-2.2333,0.0,-1.8635,-1.717,-1.7357,-1.9571,-1.9803,-1.9818,-1.9811,-1.9798,-1.9798,-1.9798,-1.9798,-1.9787,-1.9788,-1.9786,0.0,-2.1736,-2.2976,-2.361,-2.359,0.0,0.0,0.0,-1.9713,0.0,-1.9647,0.0,-1.7349,0.0,0.0,0.0,-2.6772,-2.7582,-2.8353,-2.9011,-2.8991,-2.9012,-2.9,-2.9015,-2.9306,-3.0226,-3.3563,-3.5056,-3.5496,-3.5496,-3.5508,-3.5493,-3.5493,-3.5616,-3.5783,-3.5965,-3.6008,-3.5992,-3.5988,-3.5995,-3.5904,-3.5586,-3.5493,-3.5331,-3.4734,-3.4615,-3.3999,-3.1995,-2.7865,0.0,0.0,0.0,0.0,0.0,0.0,0.0,0.0,0.0,0.0,0.0,0.0,0.0,0.0,0.0,0.0,0.0,0.0,0.0,0.0,0.0,0.0,0.0,0.0,0.0,-3.2602,-3.2216,-3.1853,-3.1482,-3.1482,-3.1482,-3.1482,-3.1482,-3.1482,-3.1482,-3.1482,-3.1482,-3.1482,-3.1482,-3.1482,-3.1482,-3.1482,-3.1482,-3.1482,0.0,-1.2893,0.0,0.0,-1.3829,0.0,-1.9966,-2.355,-2.5159,-2.3368,-2.1181,-1.9788,-1.9825,-1.9812,-1.9798,-1.9798,-1.9798,-1.9798,-1.9798,-1.9799,-1.9813,-1.9821,-2.0306,-2.1554,-2.3551,-2.3583,-2.3581,0.0,0.0,0.0,0.0,0.0,0.0,0.0,0.0,0.0,0.0,0.0,-2.69,-2.727,-2.8504,-2.8993,-2.8996,-2.8997,-2.9008,-2.9018,-2.9229,-2.9773,-3.0814,-3.3504,-3.4423,-3.4527,-3.5276,-3.5495,-3.5507,-3.5507,-3.5731,-3.5996,-3.5998,-3.6006,-3.6001,-3.601,-3.5955,-3.5824,-3.556,-3.5493,-3.5168,-3.402,-3.3809,-3.3128,-3.0905,-2.7858,0.0,0.0,0.0,0.0,0.0,0.0,0.0,0.0,0.0,0.0,0.0,0.0,0.0,0.0,0.0,0.0,0.0,0.0,0.0,0.0,0.0,-3.1809,-3.172,0.0,-3.2467,0.0,-3.1796,-3.1482,-3.1482,-3.1482,-3.1482,-3.1482,-3.1482,-3.1482,-3.1482,-3.1482,-3.1482,-3.1482,-3.1482,-3.1482,-3.1482,-3.1482,-3.1482,-3.1482,0.0,0.0,0.0,0.0,0.0,0.0,0.0,-2.218,-2.3352,-2.3119,-2.1144,-1.9793,-1.9772,-1.9798,-1.9798,-1.9798,-1.9798,-1.9798,-1.9798,-1.98,-1.9797,-1.9808,-2.1996,-2.3356,-2.3596,-2.3614,-2.3618,0.0,0.0,0.0,0.0,0.0,0.0,0.0,0.0,0.0,0.0,-2.6446,-2.7512,-2.8781,-2.8941,-2.9009,-2.9007,-2.8994,-2.9008,-2.9114,-2.9963,-3.0338,-3.0443,-3.0772,-3.088,-3.1411,-3.452,-3.5489,-3.5495,-3.5507,-3.5746,-3.5991,-3.6001,-3.5995,-3.6001,-3.601,-3.5765,-3.5547,-3.5507,-3.5493,-3.5168,-3.402,-3.3804,-3.3724,-3.3469,-3.1837,-3.1031,0.0,0.0,0.0,0.0,0.0,0.0,0.0,0.0,0.0,0.0,0.0,0.0,0.0,0.0,0.0,0.0,0.0,0.0,-2.8943,0.0,-3.0028,-2.9398,-3.1453,0.0,-3.1582,-3.1524,-3.1482,-3.1482,-3.1482,-3.1482,-3.1482,-3.1482,-3.1482,-3.1482,-3.1482,-3.1482,-3.1482,-3.1482,-3.1482,-3.1482,-3.1482,-3.1482,-3.1482,0.0,0.0,0.0,0.0,0.0,0.0,0.0,-2.0894,-2.1096,-2.1153,-2.0318,-1.9793,-1.9784,-1.9798,-1.9798,-1.9798,-1.9798,-1.9798,-1.9798,-1.9775,-2.0473,-2.2021,-2.308,-2.3599,-2.3585,-2.3583,-2.3603,0.0,0.0,0.0,0.0,0.0,0.0,0.0,0.0,-2.4462,-2.6766,-2.7681,-2.8443,-2.8985,-2.8998,-2.8991,-2.8998,-2.9012,-2.9,-2.912,-3.0059,-3.039,-3.0401,-3.0405,-3.0405,-3.065,-3.202,-3.3846,-3.5547,-3.5751,-3.5892,-3.6006,-3.5996,-3.6005,-3.5946,-3.5737,-3.5601,-3.5493,-3.5493,-3.5493,-3.5254,-3.4338,-3.396,-3.3692,-3.3387,-3.166,-3.0654,0.0,0.0,0.0,0.0,0.0,0.0,0.0,0.0,0.0,0.0,0.0,0.0,0.0,0.0,0.0,0.0,0.0,0.0,-2.8924,0.0,-3.0189,-2.9876,-3.0842,-3.1031,-3.0357,-3.0357,-3.0357,-3.0357,-3.0357,-3.0567,-3.0941,-3.136,-3.1482,-3.1482,-3.1482,-3.1482,-3.1482,-3.1482,-3.1482,-3.1482,-3.1482,-3.1482,-3.1482,-1.5141,0.0,-2.0443,0.0,-1.9809,-1.9673,-1.9137,-1.8725,-1.8834,-1.9691,-1.9785,-1.98,-1.9772,-1.9798,-1.9798,-1.9798,-1.9798,-1.9798,-1.9798,-1.9786,-2.0952,-2.3493,-2.3579,0.0,-2.361,-2.3595,-2.3591,-2.358,-2.36,0.0,0.0,0.0,0.0,0.0,-2.4816,-2.6692,-2.6792,-2.836,-2.8999,-2.8985,-2.8997,-2.8984,-2.9005,-2.8992,-2.9177,-2.9496,-3.016,-3.0406,-3.0398,-3.0398,-3.0386,-3.0393,-3.04,-3.2798,-3.5701,-3.5945,-3.6006,-3.5998,-3.6009,-3.6006,-3.592,-3.5582,-3.5508,-3.5493,-3.5493,-3.5432,-3.5184,-3.4485,-3.4043,-3.3662,-3.3135,-3.159,-3.0667,-3.1429,0.0,0.0,0.0,0.0,0.0,0.0,-2.5932,-2.4612,-2.3878,0.0,0.0,0.0,0.0,0.0,0.0,0.0,0.0,0.0,0.0,0.0,0.0,-3.0029,-3.0048,-2.9579,-2.9579,-2.9579,-2.9594,-2.9759,-3.0088,-3.0537,-3.124,-3.1482,-3.1482,-3.1482,-3.1482,-3.1482,-3.1482,-3.1482,-3.1482,-3.1482,-3.1482,-3.1482,-2.0488,-2.0579,-2.005,-1.8317,-1.8018,-1.7434,-1.5734,-1.5444,-1.6481,-1.9408,-1.9811,-1.9811,-1.9798,-1.9798,-1.9798,-1.9798,-1.9798,-1.9798,-1.9798,-1.9814,-2.0948,0.0,0.0,-2.361,-2.3595,-2.3595,-2.3595,-2.3595,0.0,0.0,-1.5955,0.0,-2.6588,-2.6616,-2.6673,-2.6694,-2.681,-2.8335,-2.8991,-2.8994,-2.8994,-2.9008,-2.9018,-2.9,-2.9586,-3.0376,-3.0409,-3.0406,-3.0398,-3.0398,-3.0398,-3.0398,-3.04,-3.2977,-3.5988,-3.599,-3.6001,-3.6005,-3.5994,-3.6001,-3.5911,-3.5584,-3.5507,-3.5493,-3.5493,-3.5289,-3.4925,-3.4338,-3.3986,-3.368,-3.3273,-3.2581,-3.2168,-3.2431,0.0,0.0,0.0,0.0,0.0,0.0,-2.7351,-2.6781,-2.4308,0.0,0.0,0.0,0.0,0.0,0.0,0.0,0.0,-2.7227,-2.7216,0.0,-2.7241,-2.8755,-2.9552,-2.9579,-2.9579,-2.9579,-2.9609,-3.0223,-3.0492,-3.0537,-3.124,-3.1482,-3.1482,-3.1482,-3.1482,-3.1482,-3.1482,-3.1482,-3.1482,-3.1482,-3.1482,-3.1482,-1.8839,-1.7895,-1.6908,-1.6317,-1.6224,-1.6038,-1.5484,-1.7101,-1.8753,-1.9679,-1.9808,-1.9798,-1.9798,-1.9798,-1.9798,0.0,-1.9798,-1.9798,0.0,-1.9814,-2.0948,-2.3478,-2.3585,-2.3595,-2.3595,-2.3595,-2.3603,-2.3614,0.0,0.0,0.0,-2.5601,-2.6688,-2.6707,-2.6713,-2.7291,-2.8284,-2.8792,-2.8991,-2.8998,-2.8993,-2.8992,-2.9077,-2.9713,-3.0136,-3.0405,-3.04,-3.04,-3.0398,-3.0398,-3.0398,-3.0436,-3.0667,-3.3156,-3.6008,-3.6006,-3.6001,-3.5999,-3.5997,-3.5834,-3.5641,-3.5545,-3.5493,-3.5493,-3.5493,-3.5138,-3.4714,-3.4288,-3.3986,-3.3578,-3.284,-3.253,-3.2212,-3.1677,0.0,0.0,0.0,0.0,0.0,0.0,-2.7753,-2.6716,0.0,-2.5265,0.0,0.0,0.0,0.0,0.0,0.0,0.0,0.0,-2.7364,0.0,-2.8076,-2.8149,-2.8233,-2.8269,-2.8269,-2.8269,-2.8284,-2.8906,-2.9445,-2.9909,-3.0552,-3.1106,-3.1482,-3.1482,-3.1482,-3.1482,-3.1482,-3.1482,-3.1482,-3.1482,-3.1482,-3.1482,-1.7004,-1.6131,-1.5414,-1.5422,-1.5378,-1.5379,-1.538,-1.7913,-1.9818,-1.9784,-1.9808,-1.9798,-1.9798,-1.9798,0.0,-1.9798,-1.9798,-1.9799,-1.98,-1.9798,-2.0941,-2.3508,-2.3615,-2.3595,-2.3595,0.0,0.0,-2.3611,-2.4385,-2.5415,-2.6689,-2.6715,-2.6698,-2.6719,-2.6692,-2.7566,-2.899,-2.8993,-2.8998,-2.898,-2.9008,-2.9229,-2.9608,-3.0178,-3.04,-3.0406,-3.0412,-3.0398,-3.0398,-3.0398,-3.0487,-3.0621,-3.0845,-3.2365,-3.4081,-3.4081,-3.499,-3.5982,-3.5853,-3.5661,-3.5493,-3.5493,-3.5493,-3.5446,-3.5258,-3.4832,-3.4423,-3.4117,-3.3928,-3.3532,-3.2681,-3.2484,-3.2213,-3.1329,0.0,-3.119,-3.119,0.0,0.0,0.0,0.0,0.0,0.0,-2.529,0.0,0.0,0.0,0.0,0.0,0.0,0.0,-2.7377,-2.7504,0.0,-2.814,-2.781,-2.7625,-2.7625,-2.7625,-2.7625,-2.764,-2.8278,-2.8831,-2.9265,-3.0133,-3.0746,-3.1165,-3.1377,-3.1482,-3.1482,-3.1482,-3.1482,-3.1482,-3.1482,-3.1482,-3.1482,-1.5378,-1.5387,0.0,0.0,-1.542,0.0,-1.5391,-1.7877,-1.9799,-1.9822,-1.9798,-1.9798,-1.9798,-1.9798,-1.9798,-1.9798,0.0,0.0,0.0,-1.9987,-2.1115,-2.3507,-2.3599,-2.3595,-2.3595,-2.3623,-2.367,-2.3835,-2.5745,-2.6719,-2.6691,-2.6708,-2.6686,-2.6678,-2.6807,-2.7646,-2.9011,-2.9009,-2.8998,-2.9007,-2.8992,-2.9551,-3.0404,-3.0407,-3.0406,-3.0398,-3.0398,-3.0398,-3.041,-3.0433,-3.0645,-3.0895,-3.0895,-3.0898,-3.0944,-3.1178,-3.3517,-3.5944,-3.5603,-3.5493,-3.5493,-3.5493,-3.5493,-3.5339,-3.4832,-3.4423,-3.4123,-3.3868,-3.3807,-3.3532,-3.2681,-3.2484,-3.2213,-3.1329,-3.119,-3.119,-3.119,0.0,0.0,0.0,0.0,0.0,0.0,-2.5364,-2.5419,0.0,0.0,0.0,0.0,0.0,-2.7359,-2.758,-2.7625,-2.7625,-2.7625,-2.7625,-2.7625,-2.7625,-2.7625,-2.7625,-2.764,-2.8233,-2.8577,-2.8742,-2.9924,-3.0492,-3.0627,-3.127,-3.1482,-3.1482,-3.1482,-3.1482,-3.1482,-3.1482,-3.1482,-3.1482,0.0,0.0,-1.5371,-1.541,-1.543,-1.5429,-1.5401,-1.7893,-1.9805,-1.9797,-1.9798,-1.9798,-1.9798,-1.9798,-1.9798,-1.9798,-1.9801,-1.9786,-1.9821,-2.1627,-2.297,-2.3551,-2.3599,-2.3595,-2.3595,-2.358,-2.4389,-2.5971,-2.6447,-2.6691,-2.6691,-2.6683,-2.6719,-2.6743,-2.7921,-2.8665,-2.9011,-2.9009,-2.9001,-2.8992,-2.9008,-2.9559,-3.0403,-3.04,-3.0393,-3.0398,-3.0398,-3.0398,-3.0444,-3.0699,-3.082,-3.0898,-3.0899,-3.0895,-3.1407,-3.4019,-3.5365,-3.5932,-3.5584,-3.5493,-3.5493,-3.5493,-3.5354,-3.5105,-3.4793,-3.4423,-3.4123,-3.3868,-3.3807,-3.3532,-3.2681,-3.2484,-3.2213,-3.1329,-3.119,-3.119,-3.119,-3.1055,0.0,0.0,-2.8837,-2.8049,-2.6425,-2.6184,-2.5887,0.0,0.0,0.0,0.0,0.0,-2.7869,-2.761,-2.7625,-2.7625,-2.7625,-2.7625,-2.7625,-2.7625,-2.7625,-2.7625,-2.7625,-2.7739,-2.8382,-2.937,-2.9669,-3.0357,-3.13,-3.1407,-3.1482,-3.1482,-3.1482,-3.1482,-3.1482,-3.1482,-3.1482,-3.1482,-1.5427,-1.5413,-1.5641,-1.6434,-1.5928,-1.5828,-1.7224,-1.878,-1.9784,-1.9784,-1.9798,-1.9798,-1.9798,-1.9798,-1.9799,-1.9813,-1.9811,-2.0309,-2.1477,-2.2808,-2.3583,-2.3615,-2.3612,-2.3606,-2.361,-2.3579,-2.4626,-2.669,-2.6707,-2.6691,-2.6691,-2.671,-2.7074,-2.7777,-2.8613,-2.9007,-2.9004,-2.9002,-2.8986,-2.9038,-2.9457,-2.9962,-3.0405,-3.0407,-3.0398,-3.0398,-3.0398,-3.0398,-3.0452,-3.08,-3.0894,-3.0895,-3.0898,-3.0794,-3.1044,-3.2897,-3.4558,-3.572,-3.5553,-3.5488,-3.5493,-3.5493,-3.54,-3.5186,-3.4792,-3.4423,-3.4123,-3.3868,-3.3807,-3.3532,-3.2681,-3.2484,-3.2213,-3.1329,-3.0632,-3.0412,-3.1106,-3.0615,0.0,-2.946,-2.9334,-2.8682,-2.7218,-2.727,-2.7233,-2.6758,0.0,0.0,-2.8238,-2.8879,-2.8867,-2.8053,-2.8038,-2.7889,-2.7625,-2.7625,-2.7625,-2.7625,-2.7625,-2.7625,-2.7625,-2.7625,-2.8143,-2.9146,-2.9445,-3.0148,-3.1091,-3.1347,-3.1482,-3.1482,-3.1482,-3.1482,-3.1482,-3.1482,-3.1482,-3.1482,-1.544,-1.5397,-1.5936,-1.7712,-1.6932,-1.6896,-1.9443,-1.9793,-1.98,-1.9784,-1.9798,-1.9798,-1.9798,-1.9798,-1.9788,-1.9784,-2.0171,-2.1299,-2.3468,-2.3608,-2.3585,-2.361,-2.3595,-2.3601,-2.3611,-2.3891,-2.4923,-2.6678,-2.669,-2.6708,-2.6707,-2.6688,-2.7519,-2.9015,-2.8997,-2.9004,-2.8994,-2.8994,-2.9012,-2.908,-3.0019,-3.0408,-3.0409,-3.0388,-3.0398,-3.0398,-3.0398,-3.0433,-3.0524,-3.0799,-3.0892,-3.0892,-3.0903,-3.0675,-3.0398,-3.04,-3.2455,-3.4841,-3.5355,-3.5501,-3.5493,-3.5493,-3.5461,-3.5303,-3.483,-3.442,-3.4093,-3.3842,-3.3807,-3.355,-3.2745,-3.255,-3.2143,-3.1121,-3.0048,-2.9668,-3.0717,0.0,-2.9354,-2.9396,-2.9406,-2.895,-2.771,-2.8203,-2.8637,-2.8742,-2.9834,0.0,0.0,-3.0372,-3.0118,-2.8921,-2.8697,-2.8263,-2.7625,-2.7625,-2.7625,-2.7625,-2.7625,-2.7625,-2.7625,-2.7625,-2.7949,-2.8637,-2.9295,-2.9924,-3.0552,-3.124,-3.1482,-3.1482,-3.1482,-3.1482,-3.1482,-3.1482,-3.1482,-3.1482,-1.5703,-1.5423,-1.5916,-1.7701,-1.8592,-1.9286,-1.9738,-1.9803,-1.9797,-1.9811,-1.9798,-1.9798,-1.9798,-1.9798,-1.9788,-1.9784,-2.178,-2.3169,-2.3593,-2.36,-2.3611,-2.3595,-2.3595,-2.3601,-2.3611,-2.5313,-2.6388,-2.6691,-2.6691,-2.6704,-2.6702,-2.6708,-2.7518,-2.9006,-2.901,-2.9007,-2.8994,-2.8994,-2.8987,-2.908,-3.0015,-3.0411,-3.0412,-3.0398,-3.0398,-3.0398,-3.0398,-3.0579,-3.0831,-3.0884,-3.0892,-3.0897,-3.09,-3.0674,-3.0398,-3.0393,-3.0784,-3.1834,-3.4725,-3.5501,-3.5493,-3.5493,-3.5236,-3.4962,-3.4884,-3.4354,-3.3868,-3.3807,-3.3807,-3.3634,-3.3184,-3.2777,-3.1927,-3.0127,-3.0424,-3.0497,-2.9465,0.0,-3.049,-2.9524,-2.9406,-2.895,-2.771,-2.8203,-2.8831,-2.9385,-3.0103,-3.0717,-3.121,-3.1258,-3.1016,-3.0238,-2.916,-2.8263,-2.7625,-2.7625,-2.7625,-2.7625,-2.7625,-2.7625,-2.7625,-2.7625,-2.7949,-2.8637,-2.9295,-2.9924,-3.0552,-3.124,-3.1482,-3.1482,-3.1482,-3.1482,-3.1482,-3.1482,-3.1482,-3.1482,-1.6951,-1.6828,-1.7056,-1.785,-1.9014,-1.9784,-1.9787,-1.979,-1.9798,-1.9798,-1.9798,-1.9798,-1.9798,-1.9798,-1.9813,-1.9785,-2.2144,-2.3615,-2.36,-2.3598,-2.3595,-2.3595,-2.3595,-2.4124,-2.5274,-2.6191,-2.6707,-2.6691,-2.6691,-2.6707,-2.6717,-2.7554,-2.8304,-2.9008,-2.901,-2.8994,-2.8998,-2.8986,-2.9003,-2.9094,-3.0018,-3.04,-3.0398,-3.0398,-3.0398,-3.0398,-3.0398,-3.0614,-3.0895,-3.0905,-3.0908,-3.0897,-3.0901,-3.0662,-3.0398,-3.0393,-3.1693,-3.3474,-3.5078,-3.5488,-3.5498,-3.5492,-3.5143,-3.4775,-3.4661,-3.4311,-3.3986,-3.3815,-3.3807,-3.3606,-3.2934,-3.2648,-3.2053,-3.0692,-3.019,0.0,0.0,-2.9811,-2.9518,-2.9399,-2.9088,-2.8698,-2.8186,-2.8742,-2.9385,-3.0028,-3.0687,-3.1195,-3.1452,-3.1482,-3.121,-3.0522,-2.9265,-2.8263,-2.7625,-2.7625,-2.7625,-2.7625,-2.7625,-2.7625,-2.7625,-2.7625,-2.8143,-2.9146,-2.9445,-3.0148,-3.1091,-3.1347,-3.1482,-3.1482,-3.1482,-3.1482,-3.1482,-3.1482,-3.1482,-3.1482,-1.7979,-1.8031,-1.8248,-1.9083,-1.9958,-2.0409,-1.9902,-1.9812,-1.9783,-1.9811,-1.9798,-1.9798,-1.9798,-1.9787,-1.9774,-1.9803,-2.2133,-2.3622,-2.3596,-2.3595,-2.3595,-2.3595,-2.3601,-2.457,-2.6645,-2.6718,-2.6691,-2.6691,-2.6691,-2.6691,-2.6723,-2.7899,-2.8653,-2.8989,-2.9004,-2.9003,-2.8997,-2.901,-2.912,-2.9387,-3.0106,-3.0393,-3.0398,-3.0398,-3.0398,-3.041,-3.0488,-3.0683,-3.0897,-3.0899,-3.0897,-3.0903,-3.0906,-3.0673,-3.0405,-3.04,-3.2821,-3.5495,-3.5507,-3.5493,-3.5489,-3.5496,-3.4977,-3.4453,-3.4297,-3.4189,-3.4043,-3.3842,-3.3807,-3.3578,-3.2809,-3.2583,-3.2125,-3.1025,0.0,0.0,0.0,-2.9476,-2.8796,-2.9323,-2.8873,-2.8514,-2.8584,-2.9205,-2.9834,-3.0447,-3.115,-3.1482,-3.1482,-3.1482,-3.115,-3.0313,-2.919,-2.8353,-2.7814,-2.77,-2.7625,-2.7625,-2.7625,-2.7625,-2.7625,-2.7625,-2.8269,-2.937,-2.952,-3.0238,-3.13,-3.1407,-3.1482,-3.1482,-3.1482,-3.1482,-3.1482,-3.1482,-3.1482,-3.1482,-1.7978,-1.8031,-1.8994,-2.2183,-2.2823,-2.2172,-2.0079,-1.9797,-1.9781,-1.9784,-1.9798,-1.9798,-1.9798,-1.9813,-1.9804,-1.9777,-2.2136,-2.3629,-2.3581,-2.3595,-2.3595,-2.3595,-2.3585,-2.4585,-2.6629,-2.6718,-2.6691,-2.6691,-2.6691,-2.6704,-2.6699,-2.683,-2.7636,-2.8995,-2.9004,-2.9005,-2.8996,-2.8998,-2.9494,-3.0304,-3.0376,-3.0393,-3.0398,-3.0398,-3.0398,-3.0444,-3.0758,-3.0879,-3.0903,-3.0891,-3.0891,-3.0899,-3.0905,-3.0675,-3.0414,-3.0407,-3.282,-3.5507,-3.5507,-3.5493,-3.5489,-3.5496,-3.468,-3.3857,-3.3855,-3.3845,-3.3815,-3.3788,-3.3807,-3.368,-3.3243,-3.2777,-3.1874,-3.0022,0.0,0.0,-2.933,-2.9709,-2.995,-2.9435,-2.8873,-2.8514,-2.8584,-2.9205,-2.9834,-3.0447,-3.115,-3.1482,-3.1482,-3.1482,-3.0956,-2.9684,-2.8966,-2.8577,-2.8532,-2.7889,-2.7625,-2.7625,-2.7625,-2.7625,-2.7625,-2.7625,-2.7979,-2.8712,-2.931,-2.9968,-3.0627,-3.127,-3.1482,-3.1482,-3.1482,-3.1482,-3.1482,-3.1482,-3.1482,-3.1482,-1.8008,-1.7999,-1.9115,-2.2516,-2.3081,-2.2789,-2.1971,-2.0692,-1.9824,-1.9822,-1.9818,-1.9805,-1.9826,-1.9786,-2.0426,-2.2002,-2.3045,-2.3599,-2.3625,-2.3595,-2.3591,-2.3618,-2.3615,-2.4579,-2.6673,-2.6722,-2.6691,-2.6691,-2.6691,-2.672,-2.6695,-2.6696,-2.753,-2.8985,-2.8985,-2.9005,-2.9037,-2.9626,-3.0084,-3.039,-3.0406,-3.0407,-3.0398,-3.0398,-3.0398,-3.0421,-3.053,-3.0717,-3.0894,-3.0911,-3.0898,-3.0895,-3.0894,-3.2126,-3.3564,-3.3551,-3.4474,-3.5493,-3.5493,-3.5493,-3.5513,-3.5494,-3.4641,-3.3813,-3.3796,-3.3795,-3.3807,-3.3807,-3.3807,-3.3578,-3.2903,-3.2616,-3.2089,-3.0791,0.0,-3.0987,-3.0429,-3.0349,-3.0081,-2.9451,-2.925,-2.9143,-2.9184,-2.9789,-3.0432,-3.1091,-3.139,-3.1482,-3.1482,-3.1482,-3.13,-3.0806,-3.016,-2.9188,-2.7964,-2.808,-2.7944,-2.7625,-2.7625,-2.7625,-2.7625,-2.8008,-2.8577,-2.925,-2.9879,-3.0522,-3.1165,-3.1362,-3.1482,-3.1482,-3.1482,-3.1482,-3.1482,-3.1482,-3.1482,-3.1482,-1.7968,-1.8001,-1.9062,-2.2476,-2.3106,-2.3096,-2.3106,-2.125,-2.0048,-2.0756,-2.022,-1.9788,-1.9786,-2.0522,-2.1691,-2.3431,-2.3599,-2.3629,-2.361,-2.3595,-2.3601,-2.3626,-2.4225,-2.5243,-2.6673,-2.6689,-2.6691,-2.6691,-2.669,-2.6715,-2.6695,-2.7197,-2.7996,-2.9011,-2.8989,-2.9005,-2.9063,-2.9995,-3.0396,-3.0398,-3.04,-3.0398,-3.0398,-3.0398,-3.0398,-3.0398,-3.0525,-3.0699,-3.0905,-3.0907,-3.1607,-3.2493,-3.2377,-3.3804,-3.5495,-3.5495,-3.5501,-3.5512,-3.5513,-3.5499,-3.55,-3.5514,-3.4651,-3.3792,-3.381,-3.3807,-3.3807,-3.3807,-3.3807,-3.3532,-3.2681,-3.2484,-3.2213,-3.1329,-3.119,-3.119,-3.119,-3.0699,-3.0162,-2.9756,-2.9563,-2.9587,-2.9843,-3.0253,-3.0791,-3.1422,-3.1482,-3.1482,-3.1482,-3.1482,-3.1377,-3.121,-3.0739,-2.9746,-2.8228,-2.8572,-2.8352,-2.7625,-2.781,-2.776,-2.764,-2.8278,-2.8966,-2.9609,-3.0238,-3.0896,-3.1482,-3.1482,-3.1482,-3.1482,-3.1482,-3.1482,-3.1482,-3.1482,-3.1482,-3.1482,-1.8009,-1.8001,-1.9137,-2.2539,-2.3095,-2.3085,-2.3109,-2.125,-2.0604,-2.2802,-2.1189,-1.98,-1.9773,-2.2083,-2.3609,-2.358,-2.3614,-2.3595,-2.3595,-2.3595,-2.3601,-2.3611,-2.56,-2.669,-2.669,-2.6689,-2.6691,-2.6691,-2.671,-2.6713,-2.6743,-2.829,-2.9003,-2.8993,-2.899,-2.9007,-2.9075,-3.0,-3.0393,-3.0398,-3.0398,-3.0398,-3.0398,-3.0398,-3.041,-3.0448,-3.0775,-3.0922,-3.0935,-3.0936,-3.3177,-3.5944,-3.5622,-3.5493,-3.5493,-3.5493,-3.5493,-3.5504,-3.5496,-3.5484,-3.5489,-3.5474,-3.4633,-3.3802,-3.3813,-3.3807,-3.3807,-3.3807,-3.3788,-3.3532,-3.2681,-3.2484,-3.2213,-3.1329,-3.119,-3.119,-3.119,-3.0699,-3.0342,-3.0366,-2.9861,-2.9771,-3.0428,-3.0507,-3.0791,-3.1422,-3.1482,-3.1482,-3.1482,-3.1482,-3.1225,-3.0537,-3.0494,-3.018,-2.95,-2.9437,-2.881,-2.761,-2.8222,-2.8189,-2.764,-2.8278,-2.8966,-2.9609,-3.0238,-3.0896,-3.1482,-3.1482,-3.1482,-3.1482,-3.1482,-3.1482,-3.1482,-3.1482,-3.1482,-3.1482,-1.8009,-1.9922,-2.1905,-2.2946,-2.3095,-2.3085,-2.3109,-2.2552,-2.2359,-2.2989,-2.1176,-1.9801,-1.9785,-2.2088,-2.3615,-2.3614,-2.3611,-2.3595,-2.3595,-2.359,-2.359,-2.36,-2.5599,-2.6713,-2.6707,-2.6708,-2.6706,-2.6693,-2.6685,-2.7267,-2.8308,-2.8791,-2.8996,-2.8991,-2.9003,-2.9363,-2.9995,-3.0281,-3.0393,-3.0398,-3.0398,-3.0398,-3.0398,-3.0398,-3.0549,-3.0762,-3.0854,-3.2438,-3.4476,-3.4477,-3.5154,-3.5931,-3.5605,-3.5493,-3.5493,-3.5493,-3.5493,-3.5512,-3.5494,-3.4933,-3.4299,-3.4311,-3.406,-3.3802,-3.3813,-3.3807,-3.3807,-3.3807,-3.3313,-3.2811,-3.2563,-3.223,-3.1842,-3.1291,-3.119,-3.119,-3.119,-3.1493,-3.139,-3.0507,-3.1085,-3.1306,-3.0573,-3.0941,-3.1258,-3.1452,-3.1482,-3.1482,-3.1482,-3.1482,-3.1377,-3.124,-3.0754,-3.0207,-2.9584,-2.9454,-2.8996,-2.8238,-2.8415,-2.8189,-2.764,-2.8278,-2.8966,-2.9609,-3.0238,-3.0896,-3.1482,-3.1482,-3.1482,-3.1482,-3.1482,-3.1482,-3.1482,-3.1482,-3.1482,-3.1482,-1.8001,-2.0758,-2.3074,-2.3109,-2.3069,-2.3122,-2.3111,-2.3132,-2.3119,-2.3105,-2.1174,-1.9822,-1.9799,-2.208,-2.3618,-2.3611,-2.3595,-2.3578,-2.3613,-2.36,-2.399,-2.4794,-2.6031,-2.6703,-2.6708,-2.6689,-2.6681,-2.6695,-2.7315,-2.8091,-2.9003,-2.8996,-2.8998,-2.8998,-2.8987,-2.9513,-3.0407,-3.0396,-3.0393,-3.0398,-3.0398,-3.0398,-3.0405,-3.0398,-3.0598,-3.1092,-3.2428,-3.4246,-3.5995,-3.5997,-3.5904,-3.5756,-3.5554,-3.5493,-3.5493,-3.5493,-3.5508,-3.5492,-3.549,-3.5003,-3.4367,-3.3913,-3.3796,-3.3802,-3.3805,-3.3807,-3.3807,-3.3807,-3.3201,-3.2624,-3.2391,-3.2039,-3.166,-3.1269,-3.119,-3.1292,-3.1579,-3.2002,-3.2026,-3.1309,-3.1997,-3.206,-3.0994,-3.1228,-3.1482,-3.1482,-3.1482,-3.1482,-3.1482,-3.1482,-3.1482,-3.1482,-3.0607,-3.0053,-2.9963,-2.9339,-2.8732,-2.814,-2.8645,-2.8587,-2.8008,-2.8936,-2.9564,-2.9983,-3.0627,-3.115,-3.1482,-3.1482,-3.1482,-3.1482,-3.1482,-3.1482,-3.1482,-3.1482,-3.1482,-3.1482,-1.8015,-2.0764,-2.3128,-2.3081,-2.309,-2.3078,-2.3078,-2.3078,-2.3077,-2.3102,-2.1176,-1.978,-1.9791,-2.2094,-2.3618,-2.3612,-2.361,-2.3616,-2.3616,-2.3784,-2.4705,-2.6634,-2.6706,-2.6699,-2.6708,-2.6715,-2.6768,-2.6913,-2.8307,-2.8995,-2.8993,-2.9009,-2.8994,-2.8998,-2.8989,-2.9476,-3.0277,-3.0354,-3.0406,-3.0398,-3.0398,-3.0405,-3.0432,-3.0744,-3.1062,-3.176,-3.4876,-3.5995,-3.6007,-3.6006,-3.5786,-3.5493,-3.5493,-3.5493,-3.5493,-3.5493,-3.5511,-3.547,-3.5381,-3.534,-3.5118,-3.405,-3.3797,-3.3807,-3.3807,-3.3807,-3.3788,-3.3698,-3.3299,-3.2755,-3.2168,-3.19,-3.164,-3.1252,-3.1258,-3.1512,-3.2188,-3.2391,-3.251,-3.2513,-3.2572,-3.2296,-3.158,-3.1482,-3.1482,-3.1482,-3.1482,-3.1482,-3.1482,-3.1482,-3.1482,-3.1482,-3.0253,-2.9872,-3.0387,-2.911,-2.822,-2.7765,-2.8943,-2.9245,-2.8727,-2.9894,-3.0447,-3.0537,-3.1106,-3.1362,-3.1482,-3.1407,-3.1422,-3.1482,-3.1482,-3.1482,-3.1482,-3.1482,-3.1482,-3.1482,-1.8021,-2.0741,-2.3082,-2.3071,-2.3106,-2.3078,-2.3078,-2.3078,-2.3077,-2.3102,-2.1163,-1.9775,-1.9782,-2.2048,-2.3583,-2.3584,-2.3596,-2.3586,-2.3595,-2.5138,-2.6218,-2.6689,-2.6722,-2.6687,-2.6692,-2.6687,-2.7279,-2.8499,-2.8847,-2.9008,-2.8997,-2.8989,-2.8994,-2.8998,-2.9004,-2.91,-2.9338,-3.0099,-3.0394,-3.0398,-3.04,-3.04,-3.0686,-3.3371,-3.4593,-3.5001,-3.5723,-3.5992,-3.5998,-3.5998,-3.5786,-3.5493,-3.5493,-3.5493,-3.5493,-3.5493,-3.5511,-3.5314,-3.441,-3.418,-3.412,-3.3857,-3.3806,-3.3807,-3.3807,-3.3807,-3.3616,-3.2933,-3.267,-3.2464,-3.1969,-3.1568,-3.1291,-3.123,-3.1664,-3.2104,-3.2256,-3.3271,-3.3645,-3.2625,-3.2987,-3.2867,-3.1625,-3.1482,-3.1482,-3.1482,-3.1482,-3.1482,-3.1482,-3.1482,-3.1482,-3.1482,-3.0253,-2.9687,-2.9765,-2.849,-2.8217,-2.907,-2.9357,-2.949,-2.937,-2.9654,-3.0043,-3.0477,-3.0148,-3.0597,-3.1437,-3.0941,-3.1046,-3.1482,-3.1482,-3.1482,-3.1482,-3.1482,-3.1482,-3.1482,-2.0118,-2.0557,-2.1174,-2.2813,-2.3117,-2.3078,-2.3078,-2.3078,-2.3069,-2.3096,-2.1138,-2.0774,-2.3243,-2.4693,-2.5,-2.3693,-2.3615,-2.4655,-2.7063,-2.824,-2.8826,-2.8867,-2.8848,-2.8859,-2.8847,-2.8868,-2.9244,-3.0048,-2.9336,-2.9006,-2.9002,-2.9009,-2.9007,-2.9001,-2.9016,-3.0152,-3.2034,-3.0867,-3.1347,-3.2685,-3.1066,-3.1373,-3.3051,-3.5001,-3.5861,-3.5994,-3.6005,-3.5999,-3.599,-3.582,-3.5628,-3.5493,-3.5493,-3.5493,-3.5498,-3.5488,-3.5501,-3.5249,-3.4109,-3.3807,-3.3783,-3.3783,-3.381,-3.3807,-3.3807,-3.3808,-3.3447,-3.2157,-3.188,-3.1795,-3.1564,-3.1619,-3.1715,-3.1715,-3.2324,-3.2933,-3.3288,-3.3998,-3.413,-3.3157,-3.3374,-3.3024,-3.164,-3.1482,-3.1482,-3.1482,-3.1482,-3.1482,-3.1482,-3.1482,-3.1317,-3.1046,-3.0088,-2.943,-2.9116,-2.8083,-2.8258,-2.9535,-2.9535,-2.9743,-3.0028,-3.0357,-3.0687,-3.0956,-3.0313,-3.0597,-3.1465,-3.0477,-3.0642,-3.1437,-3.1165,-3.124,-3.1482,-3.1482,-3.1482,-3.1482,-2.1694,-2.0395,-1.9783,-2.2616,-2.3115,-2.3078,-2.3078,-2.3078,-2.3072,-2.3096,-2.1487,-2.2237,-2.7085,-2.7585,-2.6687,-2.4467,-2.4298,-2.6268,-3.0917,-3.119,-3.1198,-3.1205,-3.1188,-3.1177,-3.1185,-3.1481,-3.1626,-3.1649,-2.9872,-2.9275,-2.9826,-2.9826,-2.9824,-2.9823,-3.0018,-3.2109,-3.5308,-3.2481,-3.291,-3.5245,-3.2417,-3.2993,-3.5616,-3.5886,-3.6006,-3.6008,-3.5998,-3.5963,-3.5872,-3.5603,-3.5493,-3.5493,-3.5493,-3.5493,-3.5504,-3.5512,-3.5362,-3.4992,-3.4064,-3.3783,-3.3807,-3.3798,-3.3798,-3.3789,-3.378,-3.3793,-3.3292,-3.1576,-3.1199,-3.121,-3.1202,-3.1822,-3.2425,-3.2601,-3.3194,-3.3795,-3.4404,-3.4607,-3.4413,-3.3671,-3.3375,-3.2772,-3.164,-3.1482,-3.1482,-3.1482,-3.1482,-3.1482,-3.1482,-3.1482,-3.127,-3.0702,-2.9968,-2.9325,-2.8771,-2.7979,-2.8248,-2.9579,-2.946,-2.9804,-3.0522,-3.1106,-3.1302,-3.1315,-3.0642,-3.0731,-3.127,-3.0073,-3.0283,-3.1315,-3.0851,-3.1031,-3.1482,-3.1482,-3.1482,-3.1482,-1.8598,-2.0719,-2.2539,-2.3009,-2.3131,-2.3078,-2.3078,-2.3078,-2.3072,-2.3096,-2.2825,-2.3932,-2.721,-2.7575,-2.7422,-2.7081,-2.7083,-2.8239,-3.1022,-3.1196,-3.1196,-3.1201,-3.1201,-3.1206,-3.1215,-3.2702,-3.3462,-3.3452,-3.0442,-3.0423,-3.3155,-3.3148,-3.3152,-3.3181,-3.4183,-3.4962,-3.5477,-3.5014,-3.5084,-3.5457,-3.5001,-3.5259,-3.5935,-3.5987,-3.5996,-3.5995,-3.5999,-3.5815,-3.5565,-3.5526,-3.5493,-3.5493,-3.5493,-3.5493,-3.5504,-3.5512,-3.4794,-3.4007,-3.3855,-3.3783,-3.3798,-3.3808,-3.3799,-3.3796,-3.3808,-3.3803,-3.3309,-3.1577,-3.1218,-3.1202,-3.1189,-3.1968,-3.2934,-3.3803,-3.4185,-3.4387,-3.4472,-3.5064,-3.4998,-3.3735,-3.2516,-3.1682,-3.1524,-3.1482,-3.1482,-3.1482,-3.1482,-3.1482,-3.1482,-3.1482,-3.1437,-3.1405,-3.0223,-2.9549,-2.9445,-2.8203,-2.8248,-2.9564,-2.9011,-2.9355,-3.0507,-3.0597,-3.0642,-3.0612,-2.9983,-3.0058,-3.0582,-2.9879,-2.9998,-3.0687,-3.1195,-3.1392,-3.1482,-3.1482,-3.1482,-3.1482,-1.7986,-2.0752,-2.3105,-2.3083,-2.3105,-2.3078,-2.3078,-2.3078,-2.3075,-2.3115,-2.3114,-2.423,-2.7273,-2.7587,-2.758,-2.7582,-2.8844,-3.0049,-3.1133,-3.1183,-3.119,-3.119,-3.119,-3.121,-3.122,-3.2908,-3.3818,-3.3799,-3.2383,-3.2411,-3.3813,-3.3809,-3.3817,-3.3836,-3.4984,-3.5499,-3.5494,-3.5498,-3.5501,-3.5495,-3.5488,-3.5695,-3.5996,-3.6002,-3.5997,-3.5994,-3.6005,-3.5786,-3.5493,-3.5493,-3.5493,-3.5493,-3.5493,-3.5513,-3.5506,-3.5494,-3.4691,-3.3813,-3.3795,-3.378,-3.3807,-3.3806,-3.5173,-3.6559,-3.654,-3.5659,-3.4129,-3.1696,-3.2505,-3.343,-3.258,-3.3051,-3.3676,-3.4143,-3.4692,-3.5115,-3.5115,-3.5402,-3.5115,-3.3735,-3.2351,-3.1482,-3.1482,-3.1482,-3.1482,-3.1482,-3.1482,-3.1482,-3.1482,-3.1482,-3.1195,-3.0462,-2.9879,-2.922,-2.8472,-2.8248,-2.8622,-2.9579,-2.928,-2.9834,-3.1061,-3.0672,-3.0717,-3.1046,-3.0387,-3.0477,-3.0971,-2.9594,-2.9834,-3.1046,-3.0612,-3.0881,-3.1482,-3.1482,-3.1482,-3.1482]}]]